<?xml version="1.0" encoding="UTF-8" standalone="no" ?>
<gpx xmlns="http://www.topografix.com/GPX/1/1" xmlns:xsi="http://www.w3.org/2001/XMLSchema-instance" xsi:schemaLocation="http://www.topografix.com/GPX/1/1 http://www.topografix.com/GPX/1/1/gpx.xsd" version="1.1" creator="VisuGPX - https://www.visugpx.com">
  <metadata>
    <name>petit tour à Blausasc</name>
    <desc><![CDATA[Rando vtt sans difficultés majeur, à éviter après un jour de forte pluie]]></desc>
  </metadata>
  <trk>
    <name><![CDATA[2013-12-01-01 Blausasc]]></name>
    <trkseg>
      <trkpt lat="43.76492" lon="7.32565">
        <ele>14.2</ele>
        <time>2013-12-01T08:23:26Z</time>
      </trkpt>
      <trkpt lat="43.76492" lon="7.32565">
        <ele>38.2</ele>
        <time>2013-12-01T08:23:27Z</time>
      </trkpt>
      <trkpt lat="43.76491" lon="7.32578">
        <ele>110</ele>
        <time>2013-12-01T08:27:32Z</time>
      </trkpt>
      <trkpt lat="43.76494" lon="7.32566">
        <ele>110.4</ele>
        <time>2013-12-01T08:28:30Z</time>
      </trkpt>
      <trkpt lat="43.76498" lon="7.32577">
        <ele>111</ele>
        <time>2013-12-01T08:36:04Z</time>
      </trkpt>
      <trkpt lat="43.76493" lon="7.32567">
        <ele>110.8</ele>
        <time>2013-12-01T08:37:16Z</time>
      </trkpt>
      <trkpt lat="43.76487" lon="7.32557">
        <ele>110.8</ele>
        <time>2013-12-01T08:37:24Z</time>
      </trkpt>
      <trkpt lat="43.76481" lon="7.32546">
        <ele>110.1</ele>
        <time>2013-12-01T08:37:31Z</time>
      </trkpt>
      <trkpt lat="43.76473" lon="7.32537">
        <ele>110.4</ele>
        <time>2013-12-01T08:37:39Z</time>
      </trkpt>
      <trkpt lat="43.76466" lon="7.32529">
        <ele>110.3</ele>
        <time>2013-12-01T08:37:46Z</time>
      </trkpt>
      <trkpt lat="43.76463" lon="7.32517">
        <ele>111</ele>
        <time>2013-12-01T08:37:58Z</time>
      </trkpt>
      <trkpt lat="43.76458" lon="7.32506">
        <ele>111</ele>
        <time>2013-12-01T08:38:39Z</time>
      </trkpt>
      <trkpt lat="43.76452" lon="7.32494">
        <ele>110.8</ele>
        <time>2013-12-01T08:41:18Z</time>
      </trkpt>
      <trkpt lat="43.76445" lon="7.32485">
        <ele>111.3</ele>
        <time>2013-12-01T08:41:21Z</time>
      </trkpt>
      <trkpt lat="43.76436" lon="7.32482">
        <ele>111.5</ele>
        <time>2013-12-01T08:41:24Z</time>
      </trkpt>
      <trkpt lat="43.76426" lon="7.32478">
        <ele>111.1</ele>
        <time>2013-12-01T08:41:28Z</time>
      </trkpt>
      <trkpt lat="43.76415" lon="7.32479">
        <ele>111.2</ele>
        <time>2013-12-01T08:41:33Z</time>
      </trkpt>
      <trkpt lat="43.76408" lon="7.32487">
        <ele>111.1</ele>
        <time>2013-12-01T08:41:37Z</time>
      </trkpt>
      <trkpt lat="43.76407" lon="7.32502">
        <ele>112.8</ele>
        <time>2013-12-01T08:41:42Z</time>
      </trkpt>
      <trkpt lat="43.76408" lon="7.32515">
        <ele>113.8</ele>
        <time>2013-12-01T08:41:47Z</time>
      </trkpt>
      <trkpt lat="43.76409" lon="7.32529">
        <ele>114.9</ele>
        <time>2013-12-01T08:41:53Z</time>
      </trkpt>
      <trkpt lat="43.7641" lon="7.32543">
        <ele>115.8</ele>
        <time>2013-12-01T08:41:59Z</time>
      </trkpt>
      <trkpt lat="43.7641" lon="7.32558">
        <ele>116.5</ele>
        <time>2013-12-01T08:42:05Z</time>
      </trkpt>
      <trkpt lat="43.7641" lon="7.32572">
        <ele>116.9</ele>
        <time>2013-12-01T08:42:10Z</time>
      </trkpt>
      <trkpt lat="43.76409" lon="7.32585">
        <ele>118.1</ele>
        <time>2013-12-01T08:42:15Z</time>
      </trkpt>
      <trkpt lat="43.7641" lon="7.32598">
        <ele>118.5</ele>
        <time>2013-12-01T08:42:21Z</time>
      </trkpt>
      <trkpt lat="43.76411" lon="7.32612">
        <ele>119.4</ele>
        <time>2013-12-01T08:42:27Z</time>
      </trkpt>
      <trkpt lat="43.76412" lon="7.32625">
        <ele>120.1</ele>
        <time>2013-12-01T08:42:33Z</time>
      </trkpt>
      <trkpt lat="43.76413" lon="7.32638">
        <ele>120.6</ele>
        <time>2013-12-01T08:42:39Z</time>
      </trkpt>
      <trkpt lat="43.76414" lon="7.32653">
        <ele>121</ele>
        <time>2013-12-01T08:42:46Z</time>
      </trkpt>
      <trkpt lat="43.76416" lon="7.32666">
        <ele>122</ele>
        <time>2013-12-01T08:42:52Z</time>
      </trkpt>
      <trkpt lat="43.76419" lon="7.3268">
        <ele>124</ele>
        <time>2013-12-01T08:42:58Z</time>
      </trkpt>
      <trkpt lat="43.76421" lon="7.32693">
        <ele>124.4</ele>
        <time>2013-12-01T08:43:04Z</time>
      </trkpt>
      <trkpt lat="43.76421" lon="7.32707">
        <ele>126.2</ele>
        <time>2013-12-01T08:43:10Z</time>
      </trkpt>
      <trkpt lat="43.76422" lon="7.3272">
        <ele>127.4</ele>
        <time>2013-12-01T08:43:16Z</time>
      </trkpt>
      <trkpt lat="43.76426" lon="7.32732">
        <ele>128.8</ele>
        <time>2013-12-01T08:43:22Z</time>
      </trkpt>
      <trkpt lat="43.76428" lon="7.3276">
        <ele>131.6</ele>
        <time>2013-12-01T08:43:34Z</time>
      </trkpt>
      <trkpt lat="43.76426" lon="7.32774">
        <ele>133.5</ele>
        <time>2013-12-01T08:43:40Z</time>
      </trkpt>
      <trkpt lat="43.76425" lon="7.32789">
        <ele>136.4</ele>
        <time>2013-12-01T08:43:46Z</time>
      </trkpt>
      <trkpt lat="43.76424" lon="7.32803">
        <ele>138.5</ele>
        <time>2013-12-01T08:43:52Z</time>
      </trkpt>
      <trkpt lat="43.76424" lon="7.32816">
        <ele>139.5</ele>
        <time>2013-12-01T08:43:58Z</time>
      </trkpt>
      <trkpt lat="43.76423" lon="7.3283">
        <ele>142.4</ele>
        <time>2013-12-01T08:44:05Z</time>
      </trkpt>
      <trkpt lat="43.76419" lon="7.32843">
        <ele>144.2</ele>
        <time>2013-12-01T08:44:12Z</time>
      </trkpt>
      <trkpt lat="43.76419" lon="7.32855">
        <ele>146.6</ele>
        <time>2013-12-01T08:44:19Z</time>
      </trkpt>
      <trkpt lat="43.76418" lon="7.32869">
        <ele>149.8</ele>
        <time>2013-12-01T08:44:28Z</time>
      </trkpt>
      <trkpt lat="43.76417" lon="7.32895">
        <ele>154.9</ele>
        <time>2013-12-01T08:44:44Z</time>
      </trkpt>
      <trkpt lat="43.76417" lon="7.32908">
        <ele>157</ele>
        <time>2013-12-01T08:44:53Z</time>
      </trkpt>
      <trkpt lat="43.76417" lon="7.32921">
        <ele>157.4</ele>
        <time>2013-12-01T08:45:04Z</time>
      </trkpt>
      <trkpt lat="43.76419" lon="7.32934">
        <ele>157.7</ele>
        <time>2013-12-01T08:45:16Z</time>
      </trkpt>
      <trkpt lat="43.76426" lon="7.32942">
        <ele>158.6</ele>
        <time>2013-12-01T08:46:22Z</time>
      </trkpt>
      <trkpt lat="43.7643" lon="7.32968">
        <ele>158.3</ele>
        <time>2013-12-01T08:47:10Z</time>
      </trkpt>
      <trkpt lat="43.76433" lon="7.32981">
        <ele>157.9</ele>
        <time>2013-12-01T08:47:16Z</time>
      </trkpt>
      <trkpt lat="43.76439" lon="7.32992">
        <ele>157.4</ele>
        <time>2013-12-01T08:47:22Z</time>
      </trkpt>
      <trkpt lat="43.76441" lon="7.33005">
        <ele>158.6</ele>
        <time>2013-12-01T08:47:28Z</time>
      </trkpt>
      <trkpt lat="43.7643" lon="7.3303">
        <ele>158.5</ele>
        <time>2013-12-01T08:47:39Z</time>
      </trkpt>
      <trkpt lat="43.76425" lon="7.33044">
        <ele>157.7</ele>
        <time>2013-12-01T08:47:44Z</time>
      </trkpt>
      <trkpt lat="43.76421" lon="7.33055">
        <ele>158.6</ele>
        <time>2013-12-01T08:47:48Z</time>
      </trkpt>
      <trkpt lat="43.76417" lon="7.33067">
        <ele>158.7</ele>
        <time>2013-12-01T08:47:52Z</time>
      </trkpt>
      <trkpt lat="43.76412" lon="7.33079">
        <ele>158.5</ele>
        <time>2013-12-01T08:47:56Z</time>
      </trkpt>
      <trkpt lat="43.76411" lon="7.33092">
        <ele>158.1</ele>
        <time>2013-12-01T08:48:00Z</time>
      </trkpt>
      <trkpt lat="43.76413" lon="7.33105">
        <ele>157.5</ele>
        <time>2013-12-01T08:48:04Z</time>
      </trkpt>
      <trkpt lat="43.76414" lon="7.33118">
        <ele>158.3</ele>
        <time>2013-12-01T08:48:08Z</time>
      </trkpt>
      <trkpt lat="43.76416" lon="7.33133">
        <ele>158.6</ele>
        <time>2013-12-01T08:48:12Z</time>
      </trkpt>
      <trkpt lat="43.76417" lon="7.33147">
        <ele>159.3</ele>
        <time>2013-12-01T08:48:16Z</time>
      </trkpt>
      <trkpt lat="43.76419" lon="7.33159">
        <ele>158.4</ele>
        <time>2013-12-01T08:48:20Z</time>
      </trkpt>
      <trkpt lat="43.76424" lon="7.3317">
        <ele>158.2</ele>
        <time>2013-12-01T08:48:24Z</time>
      </trkpt>
      <trkpt lat="43.76432" lon="7.33178">
        <ele>158.5</ele>
        <time>2013-12-01T08:48:28Z</time>
      </trkpt>
      <trkpt lat="43.76441" lon="7.33186">
        <ele>158.2</ele>
        <time>2013-12-01T08:48:32Z</time>
      </trkpt>
      <trkpt lat="43.76456" lon="7.33207">
        <ele>159.2</ele>
        <time>2013-12-01T08:48:40Z</time>
      </trkpt>
      <trkpt lat="43.76462" lon="7.33218">
        <ele>158.3</ele>
        <time>2013-12-01T08:48:44Z</time>
      </trkpt>
      <trkpt lat="43.76468" lon="7.33227">
        <ele>157.5</ele>
        <time>2013-12-01T08:48:48Z</time>
      </trkpt>
      <trkpt lat="43.76473" lon="7.3324">
        <ele>158</ele>
        <time>2013-12-01T08:48:53Z</time>
      </trkpt>
      <trkpt lat="43.76471" lon="7.33253">
        <ele>158</ele>
        <time>2013-12-01T08:48:59Z</time>
      </trkpt>
      <trkpt lat="43.76467" lon="7.33266">
        <ele>157.8</ele>
        <time>2013-12-01T08:49:05Z</time>
      </trkpt>
      <trkpt lat="43.76461" lon="7.33278">
        <ele>159</ele>
        <time>2013-12-01T08:49:10Z</time>
      </trkpt>
      <trkpt lat="43.76455" lon="7.33288">
        <ele>157.8</ele>
        <time>2013-12-01T08:49:14Z</time>
      </trkpt>
      <trkpt lat="43.76447" lon="7.33299">
        <ele>158</ele>
        <time>2013-12-01T08:49:18Z</time>
      </trkpt>
      <trkpt lat="43.7644" lon="7.33312">
        <ele>158.4</ele>
        <time>2013-12-01T08:49:22Z</time>
      </trkpt>
      <trkpt lat="43.76442" lon="7.33324">
        <ele>158.3</ele>
        <time>2013-12-01T08:49:25Z</time>
      </trkpt>
      <trkpt lat="43.76447" lon="7.33337">
        <ele>158</ele>
        <time>2013-12-01T08:49:28Z</time>
      </trkpt>
      <trkpt lat="43.76451" lon="7.33351">
        <ele>158.4</ele>
        <time>2013-12-01T08:49:31Z</time>
      </trkpt>
      <trkpt lat="43.76454" lon="7.33366">
        <ele>158.4</ele>
        <time>2013-12-01T08:49:34Z</time>
      </trkpt>
      <trkpt lat="43.76453" lon="7.33397">
        <ele>158.2</ele>
        <time>2013-12-01T08:49:40Z</time>
      </trkpt>
      <trkpt lat="43.7645" lon="7.33412">
        <ele>159</ele>
        <time>2013-12-01T08:49:43Z</time>
      </trkpt>
      <trkpt lat="43.76444" lon="7.33424">
        <ele>159.9</ele>
        <time>2013-12-01T08:49:46Z</time>
      </trkpt>
      <trkpt lat="43.76434" lon="7.33428">
        <ele>159.4</ele>
        <time>2013-12-01T08:49:49Z</time>
      </trkpt>
      <trkpt lat="43.76424" lon="7.33431">
        <ele>159.2</ele>
        <time>2013-12-01T08:49:52Z</time>
      </trkpt>
      <trkpt lat="43.76415" lon="7.33437">
        <ele>159.1</ele>
        <time>2013-12-01T08:49:55Z</time>
      </trkpt>
      <trkpt lat="43.76406" lon="7.33448">
        <ele>159.6</ele>
        <time>2013-12-01T08:49:58Z</time>
      </trkpt>
      <trkpt lat="43.76397" lon="7.33459">
        <ele>159</ele>
        <time>2013-12-01T08:50:01Z</time>
      </trkpt>
      <trkpt lat="43.76394" lon="7.33474">
        <ele>158.8</ele>
        <time>2013-12-01T08:50:04Z</time>
      </trkpt>
      <trkpt lat="43.76393" lon="7.33489">
        <ele>158.3</ele>
        <time>2013-12-01T08:50:07Z</time>
      </trkpt>
      <trkpt lat="43.76389" lon="7.33503">
        <ele>158.4</ele>
        <time>2013-12-01T08:50:10Z</time>
      </trkpt>
      <trkpt lat="43.76381" lon="7.33513">
        <ele>158.5</ele>
        <time>2013-12-01T08:50:13Z</time>
      </trkpt>
      <trkpt lat="43.76372" lon="7.33522">
        <ele>158.3</ele>
        <time>2013-12-01T08:50:16Z</time>
      </trkpt>
      <trkpt lat="43.76362" lon="7.33528">
        <ele>158</ele>
        <time>2013-12-01T08:50:19Z</time>
      </trkpt>
      <trkpt lat="43.76352" lon="7.33534">
        <ele>158.8</ele>
        <time>2013-12-01T08:50:22Z</time>
      </trkpt>
      <trkpt lat="43.76342" lon="7.33539">
        <ele>158.7</ele>
        <time>2013-12-01T08:50:25Z</time>
      </trkpt>
      <trkpt lat="43.76333" lon="7.33551">
        <ele>158.1</ele>
        <time>2013-12-01T08:50:28Z</time>
      </trkpt>
      <trkpt lat="43.76328" lon="7.33565">
        <ele>158.3</ele>
        <time>2013-12-01T08:50:31Z</time>
      </trkpt>
      <trkpt lat="43.7632" lon="7.33576">
        <ele>158.6</ele>
        <time>2013-12-01T08:50:34Z</time>
      </trkpt>
      <trkpt lat="43.76312" lon="7.33587">
        <ele>158.5</ele>
        <time>2013-12-01T08:50:37Z</time>
      </trkpt>
      <trkpt lat="43.76293" lon="7.33599">
        <ele>159.7</ele>
        <time>2013-12-01T08:50:43Z</time>
      </trkpt>
      <trkpt lat="43.76283" lon="7.33603">
        <ele>159.6</ele>
        <time>2013-12-01T08:50:46Z</time>
      </trkpt>
      <trkpt lat="43.76273" lon="7.3361">
        <ele>158.4</ele>
        <time>2013-12-01T08:50:49Z</time>
      </trkpt>
      <trkpt lat="43.76265" lon="7.33622">
        <ele>158.5</ele>
        <time>2013-12-01T08:50:52Z</time>
      </trkpt>
      <trkpt lat="43.76261" lon="7.33634">
        <ele>158</ele>
        <time>2013-12-01T08:50:55Z</time>
      </trkpt>
      <trkpt lat="43.7626" lon="7.33648">
        <ele>157.4</ele>
        <time>2013-12-01T08:50:59Z</time>
      </trkpt>
      <trkpt lat="43.76258" lon="7.33662">
        <ele>157.6</ele>
        <time>2013-12-01T08:51:02Z</time>
      </trkpt>
      <trkpt lat="43.76257" lon="7.33676">
        <ele>158.6</ele>
        <time>2013-12-01T08:51:05Z</time>
      </trkpt>
      <trkpt lat="43.76255" lon="7.33691">
        <ele>158.4</ele>
        <time>2013-12-01T08:51:08Z</time>
      </trkpt>
      <trkpt lat="43.76252" lon="7.33705">
        <ele>158.4</ele>
        <time>2013-12-01T08:51:11Z</time>
      </trkpt>
      <trkpt lat="43.76247" lon="7.3372">
        <ele>158.6</ele>
        <time>2013-12-01T08:51:14Z</time>
      </trkpt>
      <trkpt lat="43.76242" lon="7.33735">
        <ele>158.8</ele>
        <time>2013-12-01T08:51:17Z</time>
      </trkpt>
      <trkpt lat="43.7624" lon="7.33751">
        <ele>158.2</ele>
        <time>2013-12-01T08:51:20Z</time>
      </trkpt>
      <trkpt lat="43.76242" lon="7.33768">
        <ele>157.7</ele>
        <time>2013-12-01T08:51:23Z</time>
      </trkpt>
      <trkpt lat="43.76239" lon="7.33785">
        <ele>157.5</ele>
        <time>2013-12-01T08:51:26Z</time>
      </trkpt>
      <trkpt lat="43.76234" lon="7.33799">
        <ele>157.7</ele>
        <time>2013-12-01T08:51:29Z</time>
      </trkpt>
      <trkpt lat="43.76232" lon="7.33812">
        <ele>158.6</ele>
        <time>2013-12-01T08:51:44Z</time>
      </trkpt>
      <trkpt lat="43.76228" lon="7.33835">
        <ele>155.7</ele>
        <time>2013-12-01T08:52:03Z</time>
      </trkpt>
      <trkpt lat="43.76235" lon="7.33844">
        <ele>152.9</ele>
        <time>2013-12-01T08:52:14Z</time>
      </trkpt>
      <trkpt lat="43.76242" lon="7.33852">
        <ele>153.3</ele>
        <time>2013-12-01T08:52:28Z</time>
      </trkpt>
      <trkpt lat="43.7625" lon="7.33859">
        <ele>160.2</ele>
        <time>2013-12-01T08:52:51Z</time>
      </trkpt>
      <trkpt lat="43.76281" lon="7.33887">
        <ele>164.5</ele>
        <time>2013-12-01T08:55:44Z</time>
      </trkpt>
      <trkpt lat="43.76288" lon="7.33898">
        <ele>163.1</ele>
        <time>2013-12-01T08:55:49Z</time>
      </trkpt>
      <trkpt lat="43.76292" lon="7.33909">
        <ele>160.2</ele>
        <time>2013-12-01T08:55:57Z</time>
      </trkpt>
      <trkpt lat="43.76296" lon="7.33923">
        <ele>154</ele>
        <time>2013-12-01T08:56:13Z</time>
      </trkpt>
      <trkpt lat="43.76297" lon="7.33936">
        <ele>150.4</ele>
        <time>2013-12-01T08:57:36Z</time>
      </trkpt>
      <trkpt lat="43.76314" lon="7.33942">
        <ele>156</ele>
        <time>2013-12-01T08:58:10Z</time>
      </trkpt>
      <trkpt lat="43.76323" lon="7.33944">
        <ele>157.6</ele>
        <time>2013-12-01T08:58:19Z</time>
      </trkpt>
      <trkpt lat="43.76332" lon="7.33949">
        <ele>158.1</ele>
        <time>2013-12-01T08:58:23Z</time>
      </trkpt>
      <trkpt lat="43.76341" lon="7.33954">
        <ele>159.4</ele>
        <time>2013-12-01T08:58:57Z</time>
      </trkpt>
      <trkpt lat="43.76359" lon="7.33966">
        <ele>159.1</ele>
        <time>2013-12-01T08:59:12Z</time>
      </trkpt>
      <trkpt lat="43.76367" lon="7.33973">
        <ele>159</ele>
        <time>2013-12-01T08:59:16Z</time>
      </trkpt>
      <trkpt lat="43.76375" lon="7.33981">
        <ele>159.9</ele>
        <time>2013-12-01T08:59:20Z</time>
      </trkpt>
      <trkpt lat="43.76386" lon="7.33983">
        <ele>159.2</ele>
        <time>2013-12-01T08:59:24Z</time>
      </trkpt>
      <trkpt lat="43.76397" lon="7.33984">
        <ele>159.8</ele>
        <time>2013-12-01T08:59:27Z</time>
      </trkpt>
      <trkpt lat="43.76406" lon="7.33989">
        <ele>160.1</ele>
        <time>2013-12-01T08:59:30Z</time>
      </trkpt>
      <trkpt lat="43.76414" lon="7.33997">
        <ele>160.3</ele>
        <time>2013-12-01T08:59:33Z</time>
      </trkpt>
      <trkpt lat="43.76419" lon="7.34008">
        <ele>160.2</ele>
        <time>2013-12-01T08:59:37Z</time>
      </trkpt>
      <trkpt lat="43.76418" lon="7.34022">
        <ele>160.5</ele>
        <time>2013-12-01T08:59:43Z</time>
      </trkpt>
      <trkpt lat="43.76422" lon="7.34035">
        <ele>160</ele>
        <time>2013-12-01T08:59:50Z</time>
      </trkpt>
      <trkpt lat="43.76422" lon="7.3405">
        <ele>160.1</ele>
        <time>2013-12-01T08:59:55Z</time>
      </trkpt>
      <trkpt lat="43.76422" lon="7.34066">
        <ele>159.6</ele>
        <time>2013-12-01T08:59:59Z</time>
      </trkpt>
      <trkpt lat="43.76418" lon="7.34093">
        <ele>158.9</ele>
        <time>2013-12-01T09:00:05Z</time>
      </trkpt>
      <trkpt lat="43.76415" lon="7.34108">
        <ele>159</ele>
        <time>2013-12-01T09:00:08Z</time>
      </trkpt>
      <trkpt lat="43.76413" lon="7.34122">
        <ele>158.3</ele>
        <time>2013-12-01T09:00:11Z</time>
      </trkpt>
      <trkpt lat="43.76411" lon="7.34138">
        <ele>158.6</ele>
        <time>2013-12-01T09:00:14Z</time>
      </trkpt>
      <trkpt lat="43.76409" lon="7.34154">
        <ele>158.7</ele>
        <time>2013-12-01T09:00:17Z</time>
      </trkpt>
      <trkpt lat="43.76406" lon="7.34169">
        <ele>159.1</ele>
        <time>2013-12-01T09:00:20Z</time>
      </trkpt>
      <trkpt lat="43.76402" lon="7.34185">
        <ele>159</ele>
        <time>2013-12-01T09:00:23Z</time>
      </trkpt>
      <trkpt lat="43.76398" lon="7.34197">
        <ele>159.4</ele>
        <time>2013-12-01T09:00:25Z</time>
      </trkpt>
      <trkpt lat="43.76394" lon="7.34208">
        <ele>159.6</ele>
        <time>2013-12-01T09:00:27Z</time>
      </trkpt>
      <trkpt lat="43.7639" lon="7.34219">
        <ele>160.1</ele>
        <time>2013-12-01T09:00:29Z</time>
      </trkpt>
      <trkpt lat="43.76384" lon="7.34236">
        <ele>160.1</ele>
        <time>2013-12-01T09:00:32Z</time>
      </trkpt>
      <trkpt lat="43.76381" lon="7.34253">
        <ele>160.3</ele>
        <time>2013-12-01T09:00:35Z</time>
      </trkpt>
      <trkpt lat="43.76383" lon="7.34268">
        <ele>159.6</ele>
        <time>2013-12-01T09:00:38Z</time>
      </trkpt>
      <trkpt lat="43.76387" lon="7.34281">
        <ele>158.9</ele>
        <time>2013-12-01T09:00:41Z</time>
      </trkpt>
      <trkpt lat="43.76388" lon="7.34295">
        <ele>158.8</ele>
        <time>2013-12-01T09:00:45Z</time>
      </trkpt>
      <trkpt lat="43.76386" lon="7.34312">
        <ele>159.4</ele>
        <time>2013-12-01T09:00:49Z</time>
      </trkpt>
      <trkpt lat="43.76386" lon="7.34326">
        <ele>158.9</ele>
        <time>2013-12-01T09:00:52Z</time>
      </trkpt>
      <trkpt lat="43.76386" lon="7.34342">
        <ele>159.2</ele>
        <time>2013-12-01T09:00:55Z</time>
      </trkpt>
      <trkpt lat="43.76387" lon="7.34358">
        <ele>159.5</ele>
        <time>2013-12-01T09:00:58Z</time>
      </trkpt>
      <trkpt lat="43.76387" lon="7.34375">
        <ele>158.6</ele>
        <time>2013-12-01T09:01:01Z</time>
      </trkpt>
      <trkpt lat="43.76376" lon="7.344">
        <ele>158.3</ele>
        <time>2013-12-01T09:01:07Z</time>
      </trkpt>
      <trkpt lat="43.76372" lon="7.34413">
        <ele>159.2</ele>
        <time>2013-12-01T09:01:10Z</time>
      </trkpt>
      <trkpt lat="43.76368" lon="7.34428">
        <ele>159</ele>
        <time>2013-12-01T09:01:13Z</time>
      </trkpt>
      <trkpt lat="43.76363" lon="7.34441">
        <ele>158.6</ele>
        <time>2013-12-01T09:01:16Z</time>
      </trkpt>
      <trkpt lat="43.76355" lon="7.34451">
        <ele>158.7</ele>
        <time>2013-12-01T09:01:19Z</time>
      </trkpt>
      <trkpt lat="43.76349" lon="7.3446">
        <ele>159.4</ele>
        <time>2013-12-01T09:01:22Z</time>
      </trkpt>
      <trkpt lat="43.76346" lon="7.34473">
        <ele>160.3</ele>
        <time>2013-12-01T09:01:26Z</time>
      </trkpt>
      <trkpt lat="43.76341" lon="7.34485">
        <ele>158.5</ele>
        <time>2013-12-01T09:01:30Z</time>
      </trkpt>
      <trkpt lat="43.76341" lon="7.34499">
        <ele>155.4</ele>
        <time>2013-12-01T09:01:35Z</time>
      </trkpt>
      <trkpt lat="43.7634" lon="7.34513">
        <ele>155</ele>
        <time>2013-12-01T09:01:40Z</time>
      </trkpt>
      <trkpt lat="43.7634" lon="7.34527">
        <ele>154.8</ele>
        <time>2013-12-01T09:01:44Z</time>
      </trkpt>
      <trkpt lat="43.76341" lon="7.34541">
        <ele>154.4</ele>
        <time>2013-12-01T09:01:48Z</time>
      </trkpt>
      <trkpt lat="43.76341" lon="7.34555">
        <ele>153.8</ele>
        <time>2013-12-01T09:01:52Z</time>
      </trkpt>
      <trkpt lat="43.76343" lon="7.34571">
        <ele>154.3</ele>
        <time>2013-12-01T09:01:56Z</time>
      </trkpt>
      <trkpt lat="43.76344" lon="7.34587">
        <ele>154.6</ele>
        <time>2013-12-01T09:02:00Z</time>
      </trkpt>
      <trkpt lat="43.76346" lon="7.34602">
        <ele>155.4</ele>
        <time>2013-12-01T09:02:04Z</time>
      </trkpt>
      <trkpt lat="43.7635" lon="7.34631">
        <ele>156.2</ele>
        <time>2013-12-01T09:02:12Z</time>
      </trkpt>
      <trkpt lat="43.76353" lon="7.34645">
        <ele>155.3</ele>
        <time>2013-12-01T09:02:16Z</time>
      </trkpt>
      <trkpt lat="43.76355" lon="7.34658">
        <ele>155.1</ele>
        <time>2013-12-01T09:02:20Z</time>
      </trkpt>
      <trkpt lat="43.76358" lon="7.34673">
        <ele>156.3</ele>
        <time>2013-12-01T09:02:25Z</time>
      </trkpt>
      <trkpt lat="43.76359" lon="7.34685">
        <ele>157.4</ele>
        <time>2013-12-01T09:02:29Z</time>
      </trkpt>
      <trkpt lat="43.76361" lon="7.34699">
        <ele>157.8</ele>
        <time>2013-12-01T09:02:33Z</time>
      </trkpt>
      <trkpt lat="43.76365" lon="7.34714">
        <ele>158.4</ele>
        <time>2013-12-01T09:02:37Z</time>
      </trkpt>
      <trkpt lat="43.76371" lon="7.34723">
        <ele>157.9</ele>
        <time>2013-12-01T09:02:41Z</time>
      </trkpt>
      <trkpt lat="43.76379" lon="7.3473">
        <ele>158.2</ele>
        <time>2013-12-01T09:02:45Z</time>
      </trkpt>
      <trkpt lat="43.76387" lon="7.3474">
        <ele>158.3</ele>
        <time>2013-12-01T09:02:50Z</time>
      </trkpt>
      <trkpt lat="43.76394" lon="7.34749">
        <ele>158.5</ele>
        <time>2013-12-01T09:02:54Z</time>
      </trkpt>
      <trkpt lat="43.76401" lon="7.34756">
        <ele>158.5</ele>
        <time>2013-12-01T09:02:58Z</time>
      </trkpt>
      <trkpt lat="43.76409" lon="7.34764">
        <ele>158.5</ele>
        <time>2013-12-01T09:03:02Z</time>
      </trkpt>
      <trkpt lat="43.76418" lon="7.34771">
        <ele>159</ele>
        <time>2013-12-01T09:03:06Z</time>
      </trkpt>
      <trkpt lat="43.76429" lon="7.34794">
        <ele>159.5</ele>
        <time>2013-12-01T09:03:14Z</time>
      </trkpt>
      <trkpt lat="43.76433" lon="7.34806">
        <ele>158.9</ele>
        <time>2013-12-01T09:03:18Z</time>
      </trkpt>
      <trkpt lat="43.76438" lon="7.34819">
        <ele>159.4</ele>
        <time>2013-12-01T09:03:22Z</time>
      </trkpt>
      <trkpt lat="43.76445" lon="7.34828">
        <ele>158.8</ele>
        <time>2013-12-01T09:03:26Z</time>
      </trkpt>
      <trkpt lat="43.76454" lon="7.34834">
        <ele>158.6</ele>
        <time>2013-12-01T09:03:30Z</time>
      </trkpt>
      <trkpt lat="43.7646" lon="7.34844">
        <ele>159.1</ele>
        <time>2013-12-01T09:03:34Z</time>
      </trkpt>
      <trkpt lat="43.76461" lon="7.3486">
        <ele>159</ele>
        <time>2013-12-01T09:03:39Z</time>
      </trkpt>
      <trkpt lat="43.76463" lon="7.34875">
        <ele>158.9</ele>
        <time>2013-12-01T09:03:44Z</time>
      </trkpt>
      <trkpt lat="43.76463" lon="7.3489">
        <ele>158.9</ele>
        <time>2013-12-01T09:03:48Z</time>
      </trkpt>
      <trkpt lat="43.76462" lon="7.34903">
        <ele>159.3</ele>
        <time>2013-12-01T09:03:52Z</time>
      </trkpt>
      <trkpt lat="43.76456" lon="7.34914">
        <ele>159.4</ele>
        <time>2013-12-01T09:03:57Z</time>
      </trkpt>
      <trkpt lat="43.7645" lon="7.34926">
        <ele>159.3</ele>
        <time>2013-12-01T09:04:02Z</time>
      </trkpt>
      <trkpt lat="43.76447" lon="7.34939">
        <ele>160.3</ele>
        <time>2013-12-01T09:04:07Z</time>
      </trkpt>
      <trkpt lat="43.76444" lon="7.34965">
        <ele>160.6</ele>
        <time>2013-12-01T09:04:15Z</time>
      </trkpt>
      <trkpt lat="43.76441" lon="7.34978">
        <ele>160.3</ele>
        <time>2013-12-01T09:04:20Z</time>
      </trkpt>
      <trkpt lat="43.76447" lon="7.34966">
        <ele>158.7</ele>
        <time>2013-12-01T09:04:26Z</time>
      </trkpt>
      <trkpt lat="43.76449" lon="7.34953">
        <ele>157.8</ele>
        <time>2013-12-01T09:04:29Z</time>
      </trkpt>
      <trkpt lat="43.76455" lon="7.34942">
        <ele>157.7</ele>
        <time>2013-12-01T09:04:32Z</time>
      </trkpt>
      <trkpt lat="43.76459" lon="7.34931">
        <ele>157.1</ele>
        <time>2013-12-01T09:04:35Z</time>
      </trkpt>
      <trkpt lat="43.76467" lon="7.34921">
        <ele>156.4</ele>
        <time>2013-12-01T09:04:38Z</time>
      </trkpt>
      <trkpt lat="43.76474" lon="7.34908">
        <ele>156.1</ele>
        <time>2013-12-01T09:04:41Z</time>
      </trkpt>
      <trkpt lat="43.76476" lon="7.34892">
        <ele>155.6</ele>
        <time>2013-12-01T09:04:44Z</time>
      </trkpt>
      <trkpt lat="43.76476" lon="7.34879">
        <ele>154.4</ele>
        <time>2013-12-01T09:04:47Z</time>
      </trkpt>
      <trkpt lat="43.76473" lon="7.34863">
        <ele>153.1</ele>
        <time>2013-12-01T09:04:51Z</time>
      </trkpt>
      <trkpt lat="43.76472" lon="7.3485">
        <ele>151.9</ele>
        <time>2013-12-01T09:04:54Z</time>
      </trkpt>
      <trkpt lat="43.76473" lon="7.34836">
        <ele>150.5</ele>
        <time>2013-12-01T09:04:57Z</time>
      </trkpt>
      <trkpt lat="43.7647" lon="7.34825">
        <ele>148.9</ele>
        <time>2013-12-01T09:05:00Z</time>
      </trkpt>
      <trkpt lat="43.76461" lon="7.34816">
        <ele>148</ele>
        <time>2013-12-01T09:05:03Z</time>
      </trkpt>
      <trkpt lat="43.76455" lon="7.34803">
        <ele>147</ele>
        <time>2013-12-01T09:05:06Z</time>
      </trkpt>
      <trkpt lat="43.76448" lon="7.34789">
        <ele>146.3</ele>
        <time>2013-12-01T09:05:09Z</time>
      </trkpt>
      <trkpt lat="43.7643" lon="7.3477">
        <ele>146.7</ele>
        <time>2013-12-01T09:05:15Z</time>
      </trkpt>
      <trkpt lat="43.7642" lon="7.34759">
        <ele>146.4</ele>
        <time>2013-12-01T09:05:18Z</time>
      </trkpt>
      <trkpt lat="43.76412" lon="7.3475">
        <ele>145.8</ele>
        <time>2013-12-01T09:05:20Z</time>
      </trkpt>
      <trkpt lat="43.76405" lon="7.3474">
        <ele>145.4</ele>
        <time>2013-12-01T09:05:22Z</time>
      </trkpt>
      <trkpt lat="43.76401" lon="7.34728">
        <ele>144.9</ele>
        <time>2013-12-01T09:05:25Z</time>
      </trkpt>
      <trkpt lat="43.76404" lon="7.34712">
        <ele>144.1</ele>
        <time>2013-12-01T09:05:28Z</time>
      </trkpt>
      <trkpt lat="43.76405" lon="7.34698">
        <ele>142.2</ele>
        <time>2013-12-01T09:05:31Z</time>
      </trkpt>
      <trkpt lat="43.76413" lon="7.34689">
        <ele>140.6</ele>
        <time>2013-12-01T09:05:33Z</time>
      </trkpt>
      <trkpt lat="43.76421" lon="7.34679">
        <ele>138.8</ele>
        <time>2013-12-01T09:05:35Z</time>
      </trkpt>
      <trkpt lat="43.76429" lon="7.34669">
        <ele>137.9</ele>
        <time>2013-12-01T09:05:37Z</time>
      </trkpt>
      <trkpt lat="43.76436" lon="7.34661">
        <ele>137.7</ele>
        <time>2013-12-01T09:05:39Z</time>
      </trkpt>
      <trkpt lat="43.76444" lon="7.34652">
        <ele>136.2</ele>
        <time>2013-12-01T09:05:42Z</time>
      </trkpt>
      <trkpt lat="43.76452" lon="7.34646">
        <ele>137.2</ele>
        <time>2013-12-01T09:05:47Z</time>
      </trkpt>
      <trkpt lat="43.76464" lon="7.3464">
        <ele>138.5</ele>
        <time>2013-12-01T09:05:51Z</time>
      </trkpt>
      <trkpt lat="43.76473" lon="7.34635">
        <ele>138.7</ele>
        <time>2013-12-01T09:05:54Z</time>
      </trkpt>
      <trkpt lat="43.76483" lon="7.34631">
        <ele>138.7</ele>
        <time>2013-12-01T09:05:57Z</time>
      </trkpt>
      <trkpt lat="43.76485" lon="7.34618">
        <ele>139.1</ele>
        <time>2013-12-01T09:08:53Z</time>
      </trkpt>
      <trkpt lat="43.76494" lon="7.34641">
        <ele>140.4</ele>
        <time>2013-12-01T09:09:10Z</time>
      </trkpt>
      <trkpt lat="43.76497" lon="7.34629">
        <ele>141.8</ele>
        <time>2013-12-01T09:09:23Z</time>
      </trkpt>
      <trkpt lat="43.76499" lon="7.34617">
        <ele>143.2</ele>
        <time>2013-12-01T09:09:33Z</time>
      </trkpt>
      <trkpt lat="43.76508" lon="7.34617">
        <ele>144.5</ele>
        <time>2013-12-01T09:09:50Z</time>
      </trkpt>
      <trkpt lat="43.76518" lon="7.3462">
        <ele>146.3</ele>
        <time>2013-12-01T09:10:01Z</time>
      </trkpt>
      <trkpt lat="43.76536" lon="7.34625">
        <ele>147.6</ele>
        <time>2013-12-01T09:10:19Z</time>
      </trkpt>
      <trkpt lat="43.76545" lon="7.3463">
        <ele>149.2</ele>
        <time>2013-12-01T09:10:27Z</time>
      </trkpt>
      <trkpt lat="43.76554" lon="7.34634">
        <ele>150.7</ele>
        <time>2013-12-01T09:10:36Z</time>
      </trkpt>
      <trkpt lat="43.76563" lon="7.34638">
        <ele>150.9</ele>
        <time>2013-12-01T09:10:47Z</time>
      </trkpt>
      <trkpt lat="43.76571" lon="7.34641">
        <ele>152.7</ele>
        <time>2013-12-01T09:10:56Z</time>
      </trkpt>
      <trkpt lat="43.76581" lon="7.34645">
        <ele>154.4</ele>
        <time>2013-12-01T09:11:07Z</time>
      </trkpt>
      <trkpt lat="43.76599" lon="7.34654">
        <ele>157.6</ele>
        <time>2013-12-01T09:11:25Z</time>
      </trkpt>
      <trkpt lat="43.76608" lon="7.34658">
        <ele>159.2</ele>
        <time>2013-12-01T09:11:33Z</time>
      </trkpt>
      <trkpt lat="43.76617" lon="7.34662">
        <ele>160.7</ele>
        <time>2013-12-01T09:11:42Z</time>
      </trkpt>
      <trkpt lat="43.76626" lon="7.34667">
        <ele>162.2</ele>
        <time>2013-12-01T09:11:50Z</time>
      </trkpt>
      <trkpt lat="43.76636" lon="7.34668">
        <ele>163</ele>
        <time>2013-12-01T09:11:59Z</time>
      </trkpt>
      <trkpt lat="43.76633" lon="7.34656">
        <ele>162.4</ele>
        <time>2013-12-01T09:12:42Z</time>
      </trkpt>
      <trkpt lat="43.76652" lon="7.34623">
        <ele>163.7</ele>
        <time>2013-12-01T09:16:09Z</time>
      </trkpt>
      <trkpt lat="43.76656" lon="7.34612">
        <ele>162.9</ele>
        <time>2013-12-01T09:16:14Z</time>
      </trkpt>
      <trkpt lat="43.76662" lon="7.34602">
        <ele>161.4</ele>
        <time>2013-12-01T09:16:18Z</time>
      </trkpt>
      <trkpt lat="43.76668" lon="7.34591">
        <ele>162.2</ele>
        <time>2013-12-01T09:16:22Z</time>
      </trkpt>
      <trkpt lat="43.76674" lon="7.3458">
        <ele>162.4</ele>
        <time>2013-12-01T09:16:26Z</time>
      </trkpt>
      <trkpt lat="43.7668" lon="7.34568">
        <ele>162.1</ele>
        <time>2013-12-01T09:16:30Z</time>
      </trkpt>
      <trkpt lat="43.76686" lon="7.34559">
        <ele>162.2</ele>
        <time>2013-12-01T09:16:34Z</time>
      </trkpt>
      <trkpt lat="43.76696" lon="7.34557">
        <ele>160.8</ele>
        <time>2013-12-01T09:16:41Z</time>
      </trkpt>
      <trkpt lat="43.76705" lon="7.3456">
        <ele>161.9</ele>
        <time>2013-12-01T09:16:50Z</time>
      </trkpt>
      <trkpt lat="43.76713" lon="7.34566">
        <ele>164</ele>
        <time>2013-12-01T09:17:00Z</time>
      </trkpt>
      <trkpt lat="43.76712" lon="7.34585">
        <ele>170.8</ele>
        <time>2013-12-01T09:17:36Z</time>
      </trkpt>
      <trkpt lat="43.76722" lon="7.34585">
        <ele>173</ele>
        <time>2013-12-01T09:17:46Z</time>
      </trkpt>
      <trkpt lat="43.76732" lon="7.34583">
        <ele>175.1</ele>
        <time>2013-12-01T09:17:58Z</time>
      </trkpt>
      <trkpt lat="43.76741" lon="7.34584">
        <ele>176.7</ele>
        <time>2013-12-01T09:18:09Z</time>
      </trkpt>
      <trkpt lat="43.76758" lon="7.34589">
        <ele>179.4</ele>
        <time>2013-12-01T09:18:26Z</time>
      </trkpt>
      <trkpt lat="43.76768" lon="7.34594">
        <ele>179.9</ele>
        <time>2013-12-01T09:18:36Z</time>
      </trkpt>
      <trkpt lat="43.76777" lon="7.34597">
        <ele>182.3</ele>
        <time>2013-12-01T09:18:46Z</time>
      </trkpt>
      <trkpt lat="43.76786" lon="7.34599">
        <ele>184.4</ele>
        <time>2013-12-01T09:18:55Z</time>
      </trkpt>
      <trkpt lat="43.76795" lon="7.34603">
        <ele>186.8</ele>
        <time>2013-12-01T09:19:05Z</time>
      </trkpt>
      <trkpt lat="43.76788" lon="7.3461">
        <ele>188.7</ele>
        <time>2013-12-01T09:19:24Z</time>
      </trkpt>
      <trkpt lat="43.76768" lon="7.34614">
        <ele>191.9</ele>
        <time>2013-12-01T09:19:40Z</time>
      </trkpt>
      <trkpt lat="43.76759" lon="7.34619">
        <ele>191.6</ele>
        <time>2013-12-01T09:19:47Z</time>
      </trkpt>
      <trkpt lat="43.76751" lon="7.34625">
        <ele>192.2</ele>
        <time>2013-12-01T09:19:53Z</time>
      </trkpt>
      <trkpt lat="43.76743" lon="7.34633">
        <ele>192.5</ele>
        <time>2013-12-01T09:19:59Z</time>
      </trkpt>
      <trkpt lat="43.76737" lon="7.34644">
        <ele>192.9</ele>
        <time>2013-12-01T09:20:05Z</time>
      </trkpt>
      <trkpt lat="43.76734" lon="7.34657">
        <ele>192.8</ele>
        <time>2013-12-01T09:20:11Z</time>
      </trkpt>
      <trkpt lat="43.7673" lon="7.34671">
        <ele>192.5</ele>
        <time>2013-12-01T09:20:17Z</time>
      </trkpt>
      <trkpt lat="43.76729" lon="7.34685">
        <ele>193.5</ele>
        <time>2013-12-01T09:20:23Z</time>
      </trkpt>
      <trkpt lat="43.7673" lon="7.34698">
        <ele>193.2</ele>
        <time>2013-12-01T09:20:28Z</time>
      </trkpt>
      <trkpt lat="43.7674" lon="7.34721">
        <ele>193.4</ele>
        <time>2013-12-01T09:20:40Z</time>
      </trkpt>
      <trkpt lat="43.76747" lon="7.34729">
        <ele>194.9</ele>
        <time>2013-12-01T09:20:47Z</time>
      </trkpt>
      <trkpt lat="43.76756" lon="7.34726">
        <ele>196.2</ele>
        <time>2013-12-01T09:20:54Z</time>
      </trkpt>
      <trkpt lat="43.76755" lon="7.34712">
        <ele>197.8</ele>
        <time>2013-12-01T09:21:02Z</time>
      </trkpt>
      <trkpt lat="43.76757" lon="7.34698">
        <ele>198.9</ele>
        <time>2013-12-01T09:21:11Z</time>
      </trkpt>
      <trkpt lat="43.76761" lon="7.34686">
        <ele>201.2</ele>
        <time>2013-12-01T09:21:19Z</time>
      </trkpt>
      <trkpt lat="43.76764" lon="7.34674">
        <ele>201.7</ele>
        <time>2013-12-01T09:21:26Z</time>
      </trkpt>
      <trkpt lat="43.76771" lon="7.34666">
        <ele>203.7</ele>
        <time>2013-12-01T09:21:34Z</time>
      </trkpt>
      <trkpt lat="43.76788" lon="7.3467">
        <ele>205.8</ele>
        <time>2013-12-01T09:21:51Z</time>
      </trkpt>
      <trkpt lat="43.76796" lon="7.34676">
        <ele>208.9</ele>
        <time>2013-12-01T09:22:01Z</time>
      </trkpt>
      <trkpt lat="43.76805" lon="7.34681">
        <ele>211.2</ele>
        <time>2013-12-01T09:22:11Z</time>
      </trkpt>
      <trkpt lat="43.76814" lon="7.34687">
        <ele>212.8</ele>
        <time>2013-12-01T09:22:20Z</time>
      </trkpt>
      <trkpt lat="43.76822" lon="7.34692">
        <ele>215</ele>
        <time>2013-12-01T09:22:28Z</time>
      </trkpt>
      <trkpt lat="43.7683" lon="7.34699">
        <ele>216.8</ele>
        <time>2013-12-01T09:22:36Z</time>
      </trkpt>
      <trkpt lat="43.76841" lon="7.3472">
        <ele>221.3</ele>
        <time>2013-12-01T09:22:52Z</time>
      </trkpt>
      <trkpt lat="43.76849" lon="7.34727">
        <ele>222.9</ele>
        <time>2013-12-01T09:23:00Z</time>
      </trkpt>
      <trkpt lat="43.76857" lon="7.34733">
        <ele>224.7</ele>
        <time>2013-12-01T09:23:09Z</time>
      </trkpt>
      <trkpt lat="43.76865" lon="7.3474">
        <ele>225.8</ele>
        <time>2013-12-01T09:23:16Z</time>
      </trkpt>
      <trkpt lat="43.76873" lon="7.34748">
        <ele>226.8</ele>
        <time>2013-12-01T09:23:23Z</time>
      </trkpt>
      <trkpt lat="43.76882" lon="7.34754">
        <ele>228.1</ele>
        <time>2013-12-01T09:23:30Z</time>
      </trkpt>
      <trkpt lat="43.76892" lon="7.34759">
        <ele>228.3</ele>
        <time>2013-12-01T09:23:37Z</time>
      </trkpt>
      <trkpt lat="43.7691" lon="7.34769">
        <ele>230.7</ele>
        <time>2013-12-01T09:23:51Z</time>
      </trkpt>
      <trkpt lat="43.76919" lon="7.34774">
        <ele>230.4</ele>
        <time>2013-12-01T09:23:57Z</time>
      </trkpt>
      <trkpt lat="43.76928" lon="7.3478">
        <ele>230.9</ele>
        <time>2013-12-01T09:24:04Z</time>
      </trkpt>
      <trkpt lat="43.76937" lon="7.34785">
        <ele>233.1</ele>
        <time>2013-12-01T09:24:10Z</time>
      </trkpt>
      <trkpt lat="43.76946" lon="7.34789">
        <ele>233.4</ele>
        <time>2013-12-01T09:24:16Z</time>
      </trkpt>
      <trkpt lat="43.76955" lon="7.34793">
        <ele>234.1</ele>
        <time>2013-12-01T09:24:23Z</time>
      </trkpt>
      <trkpt lat="43.76964" lon="7.34798">
        <ele>234</ele>
        <time>2013-12-01T09:24:31Z</time>
      </trkpt>
      <trkpt lat="43.76969" lon="7.3481">
        <ele>235.1</ele>
        <time>2013-12-01T09:24:38Z</time>
      </trkpt>
      <trkpt lat="43.76987" lon="7.34817">
        <ele>236.8</ele>
        <time>2013-12-01T09:25:06Z</time>
      </trkpt>
      <trkpt lat="43.76996" lon="7.34821">
        <ele>237</ele>
        <time>2013-12-01T09:25:48Z</time>
      </trkpt>
      <trkpt lat="43.77" lon="7.34831">
        <ele>238.6</ele>
        <time>2013-12-01T09:36:33Z</time>
      </trkpt>
      <trkpt lat="43.77009" lon="7.34836">
        <ele>239.4</ele>
        <time>2013-12-01T09:36:43Z</time>
      </trkpt>
      <trkpt lat="43.77018" lon="7.34841">
        <ele>241.6</ele>
        <time>2013-12-01T09:36:53Z</time>
      </trkpt>
      <trkpt lat="43.77028" lon="7.34847">
        <ele>243.5</ele>
        <time>2013-12-01T09:37:02Z</time>
      </trkpt>
      <trkpt lat="43.77036" lon="7.34853">
        <ele>244.4</ele>
        <time>2013-12-01T09:37:11Z</time>
      </trkpt>
      <trkpt lat="43.77044" lon="7.3486">
        <ele>246</ele>
        <time>2013-12-01T09:37:21Z</time>
      </trkpt>
      <trkpt lat="43.7706" lon="7.34874">
        <ele>249.1</ele>
        <time>2013-12-01T09:37:39Z</time>
      </trkpt>
      <trkpt lat="43.77069" lon="7.34879">
        <ele>249.4</ele>
        <time>2013-12-01T09:37:47Z</time>
      </trkpt>
      <trkpt lat="43.77078" lon="7.34882">
        <ele>251.7</ele>
        <time>2013-12-01T09:37:56Z</time>
      </trkpt>
      <trkpt lat="43.77086" lon="7.34886">
        <ele>253.6</ele>
        <time>2013-12-01T09:38:05Z</time>
      </trkpt>
      <trkpt lat="43.77095" lon="7.34893">
        <ele>255</ele>
        <time>2013-12-01T09:38:14Z</time>
      </trkpt>
      <trkpt lat="43.77093" lon="7.34906">
        <ele>256.6</ele>
        <time>2013-12-01T09:38:26Z</time>
      </trkpt>
      <trkpt lat="43.77089" lon="7.34931">
        <ele>259.2</ele>
        <time>2013-12-01T09:38:42Z</time>
      </trkpt>
      <trkpt lat="43.77091" lon="7.34945">
        <ele>259.6</ele>
        <time>2013-12-01T09:38:51Z</time>
      </trkpt>
      <trkpt lat="43.77094" lon="7.34957">
        <ele>259.7</ele>
        <time>2013-12-01T09:39:00Z</time>
      </trkpt>
      <trkpt lat="43.77097" lon="7.34971">
        <ele>260.7</ele>
        <time>2013-12-01T09:39:08Z</time>
      </trkpt>
      <trkpt lat="43.77101" lon="7.34984">
        <ele>260.6</ele>
        <time>2013-12-01T09:39:14Z</time>
      </trkpt>
      <trkpt lat="43.77106" lon="7.34996">
        <ele>259.9</ele>
        <time>2013-12-01T09:39:20Z</time>
      </trkpt>
      <trkpt lat="43.77112" lon="7.35008">
        <ele>259.8</ele>
        <time>2013-12-01T09:39:27Z</time>
      </trkpt>
      <trkpt lat="43.77125" lon="7.3503">
        <ele>261.4</ele>
        <time>2013-12-01T09:39:41Z</time>
      </trkpt>
      <trkpt lat="43.77132" lon="7.3504">
        <ele>261.7</ele>
        <time>2013-12-01T09:39:48Z</time>
      </trkpt>
      <trkpt lat="43.77139" lon="7.35049">
        <ele>261.1</ele>
        <time>2013-12-01T09:39:54Z</time>
      </trkpt>
      <trkpt lat="43.77147" lon="7.35056">
        <ele>261.9</ele>
        <time>2013-12-01T09:40:00Z</time>
      </trkpt>
      <trkpt lat="43.77155" lon="7.35066">
        <ele>262.3</ele>
        <time>2013-12-01T09:40:06Z</time>
      </trkpt>
      <trkpt lat="43.77161" lon="7.35078">
        <ele>262</ele>
        <time>2013-12-01T09:40:12Z</time>
      </trkpt>
      <trkpt lat="43.77167" lon="7.35087">
        <ele>262.3</ele>
        <time>2013-12-01T09:40:18Z</time>
      </trkpt>
      <trkpt lat="43.77176" lon="7.35094">
        <ele>261.5</ele>
        <time>2013-12-01T09:40:24Z</time>
      </trkpt>
      <trkpt lat="43.77184" lon="7.351">
        <ele>264.2</ele>
        <time>2013-12-01T09:40:30Z</time>
      </trkpt>
      <trkpt lat="43.77203" lon="7.35104">
        <ele>265</ele>
        <time>2013-12-01T09:40:42Z</time>
      </trkpt>
      <trkpt lat="43.77212" lon="7.35104">
        <ele>266.6</ele>
        <time>2013-12-01T09:40:49Z</time>
      </trkpt>
      <trkpt lat="43.77222" lon="7.35106">
        <ele>267</ele>
        <time>2013-12-01T09:40:56Z</time>
      </trkpt>
      <trkpt lat="43.77231" lon="7.35109">
        <ele>268</ele>
        <time>2013-12-01T09:41:02Z</time>
      </trkpt>
      <trkpt lat="43.7724" lon="7.35114">
        <ele>268</ele>
        <time>2013-12-01T09:41:08Z</time>
      </trkpt>
      <trkpt lat="43.7725" lon="7.35115">
        <ele>267.8</ele>
        <time>2013-12-01T09:41:14Z</time>
      </trkpt>
      <trkpt lat="43.77259" lon="7.35117">
        <ele>268.3</ele>
        <time>2013-12-01T09:41:20Z</time>
      </trkpt>
      <trkpt lat="43.77266" lon="7.35126">
        <ele>268.6</ele>
        <time>2013-12-01T09:41:26Z</time>
      </trkpt>
      <trkpt lat="43.77266" lon="7.35139">
        <ele>268.7</ele>
        <time>2013-12-01T09:41:33Z</time>
      </trkpt>
      <trkpt lat="43.77254" lon="7.35159">
        <ele>271</ele>
        <time>2013-12-01T09:41:48Z</time>
      </trkpt>
      <trkpt lat="43.77246" lon="7.35169">
        <ele>273.3</ele>
        <time>2013-12-01T09:41:56Z</time>
      </trkpt>
      <trkpt lat="43.7724" lon="7.35179">
        <ele>275.1</ele>
        <time>2013-12-01T09:42:04Z</time>
      </trkpt>
      <trkpt lat="43.77237" lon="7.35191">
        <ele>275.5</ele>
        <time>2013-12-01T09:42:11Z</time>
      </trkpt>
      <trkpt lat="43.77238" lon="7.35204">
        <ele>277.2</ele>
        <time>2013-12-01T09:42:20Z</time>
      </trkpt>
      <trkpt lat="43.77243" lon="7.35214">
        <ele>277.5</ele>
        <time>2013-12-01T09:42:28Z</time>
      </trkpt>
      <trkpt lat="43.77251" lon="7.35222">
        <ele>279.4</ele>
        <time>2013-12-01T09:42:37Z</time>
      </trkpt>
      <trkpt lat="43.77268" lon="7.35235">
        <ele>280.3</ele>
        <time>2013-12-01T09:42:53Z</time>
      </trkpt>
      <trkpt lat="43.77275" lon="7.35245">
        <ele>283.5</ele>
        <time>2013-12-01T09:43:01Z</time>
      </trkpt>
      <trkpt lat="43.77281" lon="7.35254">
        <ele>284.8</ele>
        <time>2013-12-01T09:43:09Z</time>
      </trkpt>
      <trkpt lat="43.77288" lon="7.35263">
        <ele>286.8</ele>
        <time>2013-12-01T09:43:17Z</time>
      </trkpt>
      <trkpt lat="43.77294" lon="7.35272">
        <ele>289.1</ele>
        <time>2013-12-01T09:43:26Z</time>
      </trkpt>
      <trkpt lat="43.77302" lon="7.3528">
        <ele>289.2</ele>
        <time>2013-12-01T09:43:34Z</time>
      </trkpt>
      <trkpt lat="43.7731" lon="7.35288">
        <ele>290.7</ele>
        <time>2013-12-01T09:43:42Z</time>
      </trkpt>
      <trkpt lat="43.77325" lon="7.35305">
        <ele>291.5</ele>
        <time>2013-12-01T09:43:58Z</time>
      </trkpt>
      <trkpt lat="43.77332" lon="7.35313">
        <ele>292.6</ele>
        <time>2013-12-01T09:44:05Z</time>
      </trkpt>
      <trkpt lat="43.7734" lon="7.35322">
        <ele>294.2</ele>
        <time>2013-12-01T09:44:12Z</time>
      </trkpt>
      <trkpt lat="43.77348" lon="7.3533">
        <ele>294.5</ele>
        <time>2013-12-01T09:44:19Z</time>
      </trkpt>
      <trkpt lat="43.77357" lon="7.35337">
        <ele>295.8</ele>
        <time>2013-12-01T09:44:27Z</time>
      </trkpt>
      <trkpt lat="43.77365" lon="7.35345">
        <ele>294.9</ele>
        <time>2013-12-01T09:44:34Z</time>
      </trkpt>
      <trkpt lat="43.77374" lon="7.35354">
        <ele>294</ele>
        <time>2013-12-01T09:44:40Z</time>
      </trkpt>
      <trkpt lat="43.77377" lon="7.35366">
        <ele>294.5</ele>
        <time>2013-12-01T09:44:44Z</time>
      </trkpt>
      <trkpt lat="43.77376" lon="7.35392">
        <ele>296.5</ele>
        <time>2013-12-01T09:44:58Z</time>
      </trkpt>
      <trkpt lat="43.77376" lon="7.35404">
        <ele>298.5</ele>
        <time>2013-12-01T09:45:06Z</time>
      </trkpt>
      <trkpt lat="43.7738" lon="7.35417">
        <ele>302.7</ele>
        <time>2013-12-01T09:45:17Z</time>
      </trkpt>
      <trkpt lat="43.77387" lon="7.35424">
        <ele>305.7</ele>
        <time>2013-12-01T09:45:25Z</time>
      </trkpt>
      <trkpt lat="43.77396" lon="7.35429">
        <ele>307.7</ele>
        <time>2013-12-01T09:45:33Z</time>
      </trkpt>
      <trkpt lat="43.77404" lon="7.35435">
        <ele>309.5</ele>
        <time>2013-12-01T09:45:42Z</time>
      </trkpt>
      <trkpt lat="43.77413" lon="7.35441">
        <ele>311.2</ele>
        <time>2013-12-01T09:45:52Z</time>
      </trkpt>
      <trkpt lat="43.77432" lon="7.35449">
        <ele>314.6</ele>
        <time>2013-12-01T09:46:14Z</time>
      </trkpt>
      <trkpt lat="43.77441" lon="7.35444">
        <ele>314.2</ele>
        <time>2013-12-01T09:46:23Z</time>
      </trkpt>
      <trkpt lat="43.7745" lon="7.35442">
        <ele>318.5</ele>
        <time>2013-12-01T09:46:38Z</time>
      </trkpt>
      <trkpt lat="43.77458" lon="7.35447">
        <ele>321.5</ele>
        <time>2013-12-01T09:47:17Z</time>
      </trkpt>
      <trkpt lat="43.77476" lon="7.35454">
        <ele>324.4</ele>
        <time>2013-12-01T09:47:54Z</time>
      </trkpt>
      <trkpt lat="43.77485" lon="7.35456">
        <ele>326</ele>
        <time>2013-12-01T09:48:02Z</time>
      </trkpt>
      <trkpt lat="43.77494" lon="7.35461">
        <ele>327.4</ele>
        <time>2013-12-01T09:48:10Z</time>
      </trkpt>
      <trkpt lat="43.77501" lon="7.35471">
        <ele>331.8</ele>
        <time>2013-12-01T09:48:20Z</time>
      </trkpt>
      <trkpt lat="43.77519" lon="7.35476">
        <ele>335.6</ele>
        <time>2013-12-01T09:48:39Z</time>
      </trkpt>
      <trkpt lat="43.77528" lon="7.35474">
        <ele>337.4</ele>
        <time>2013-12-01T09:48:49Z</time>
      </trkpt>
      <trkpt lat="43.77539" lon="7.35473">
        <ele>338.2</ele>
        <time>2013-12-01T09:48:57Z</time>
      </trkpt>
      <trkpt lat="43.77548" lon="7.35477">
        <ele>338.1</ele>
        <time>2013-12-01T09:49:04Z</time>
      </trkpt>
      <trkpt lat="43.77556" lon="7.35485">
        <ele>338.7</ele>
        <time>2013-12-01T09:49:10Z</time>
      </trkpt>
      <trkpt lat="43.77565" lon="7.35493">
        <ele>341.3</ele>
        <time>2013-12-01T09:49:16Z</time>
      </trkpt>
      <trkpt lat="43.77572" lon="7.35502">
        <ele>342.5</ele>
        <time>2013-12-01T09:49:22Z</time>
      </trkpt>
      <trkpt lat="43.77586" lon="7.35517">
        <ele>343.6</ele>
        <time>2013-12-01T09:51:25Z</time>
      </trkpt>
      <trkpt lat="43.77608" lon="7.35517">
        <ele>344.6</ele>
        <time>2013-12-01T09:57:00Z</time>
      </trkpt>
      <trkpt lat="43.77619" lon="7.35516">
        <ele>342.6</ele>
        <time>2013-12-01T09:57:03Z</time>
      </trkpt>
      <trkpt lat="43.77629" lon="7.35523">
        <ele>342</ele>
        <time>2013-12-01T09:57:05Z</time>
      </trkpt>
      <trkpt lat="43.77638" lon="7.35535">
        <ele>340.9</ele>
        <time>2013-12-01T09:57:07Z</time>
      </trkpt>
      <trkpt lat="43.7765" lon="7.35538">
        <ele>339.4</ele>
        <time>2013-12-01T09:57:10Z</time>
      </trkpt>
      <trkpt lat="43.77658" lon="7.35547">
        <ele>337.1</ele>
        <time>2013-12-01T09:57:13Z</time>
      </trkpt>
      <trkpt lat="43.7767" lon="7.35547">
        <ele>335.2</ele>
        <time>2013-12-01T09:57:16Z</time>
      </trkpt>
      <trkpt lat="43.77676" lon="7.35532">
        <ele>332.3</ele>
        <time>2013-12-01T09:57:19Z</time>
      </trkpt>
      <trkpt lat="43.77684" lon="7.35522">
        <ele>331.3</ele>
        <time>2013-12-01T09:57:21Z</time>
      </trkpt>
      <trkpt lat="43.77694" lon="7.35513">
        <ele>330</ele>
        <time>2013-12-01T09:57:23Z</time>
      </trkpt>
      <trkpt lat="43.77707" lon="7.35515">
        <ele>328.3</ele>
        <time>2013-12-01T09:57:26Z</time>
      </trkpt>
      <trkpt lat="43.77713" lon="7.35524">
        <ele>324.9</ele>
        <time>2013-12-01T09:57:29Z</time>
      </trkpt>
      <trkpt lat="43.77717" lon="7.35512">
        <ele>318.8</ele>
        <time>2013-12-01T09:58:23Z</time>
      </trkpt>
      <trkpt lat="43.77706" lon="7.35489">
        <ele>316.4</ele>
        <time>2013-12-01T09:58:29Z</time>
      </trkpt>
      <trkpt lat="43.77697" lon="7.35489">
        <ele>315.6</ele>
        <time>2013-12-01T09:58:32Z</time>
      </trkpt>
      <trkpt lat="43.77688" lon="7.35494">
        <ele>314.4</ele>
        <time>2013-12-01T09:58:35Z</time>
      </trkpt>
      <trkpt lat="43.77679" lon="7.35498">
        <ele>312.8</ele>
        <time>2013-12-01T09:58:40Z</time>
      </trkpt>
      <trkpt lat="43.77674" lon="7.35484">
        <ele>311.8</ele>
        <time>2013-12-01T09:58:44Z</time>
      </trkpt>
      <trkpt lat="43.77673" lon="7.35471">
        <ele>310</ele>
        <time>2013-12-01T09:58:52Z</time>
      </trkpt>
      <trkpt lat="43.77679" lon="7.35459">
        <ele>310.2</ele>
        <time>2013-12-01T09:58:56Z</time>
      </trkpt>
      <trkpt lat="43.77688" lon="7.35453">
        <ele>309.8</ele>
        <time>2013-12-01T09:59:00Z</time>
      </trkpt>
      <trkpt lat="43.77694" lon="7.35442">
        <ele>308.5</ele>
        <time>2013-12-01T09:59:05Z</time>
      </trkpt>
      <trkpt lat="43.77687" lon="7.35432">
        <ele>307.8</ele>
        <time>2013-12-01T09:59:13Z</time>
      </trkpt>
      <trkpt lat="43.77693" lon="7.35423">
        <ele>308</ele>
        <time>2013-12-01T09:59:18Z</time>
      </trkpt>
      <trkpt lat="43.77702" lon="7.35422">
        <ele>308.2</ele>
        <time>2013-12-01T09:59:21Z</time>
      </trkpt>
      <trkpt lat="43.77712" lon="7.35422">
        <ele>308.4</ele>
        <time>2013-12-01T09:59:23Z</time>
      </trkpt>
      <trkpt lat="43.77721" lon="7.35418">
        <ele>307.4</ele>
        <time>2013-12-01T09:59:25Z</time>
      </trkpt>
      <trkpt lat="43.77743" lon="7.35421">
        <ele>304.9</ele>
        <time>2013-12-01T09:59:30Z</time>
      </trkpt>
      <trkpt lat="43.77746" lon="7.35409">
        <ele>301</ele>
        <time>2013-12-01T09:59:37Z</time>
      </trkpt>
      <trkpt lat="43.77754" lon="7.35396">
        <ele>301.5</ele>
        <time>2013-12-01T09:59:41Z</time>
      </trkpt>
      <trkpt lat="43.77762" lon="7.35406">
        <ele>300.5</ele>
        <time>2013-12-01T09:59:46Z</time>
      </trkpt>
      <trkpt lat="43.77772" lon="7.35404">
        <ele>299.8</ele>
        <time>2013-12-01T09:59:50Z</time>
      </trkpt>
      <trkpt lat="43.77775" lon="7.35389">
        <ele>298.1</ele>
        <time>2013-12-01T09:59:53Z</time>
      </trkpt>
      <trkpt lat="43.77785" lon="7.35384">
        <ele>297.3</ele>
        <time>2013-12-01T10:00:00Z</time>
      </trkpt>
      <trkpt lat="43.77794" lon="7.35388">
        <ele>297.8</ele>
        <time>2013-12-01T10:00:13Z</time>
      </trkpt>
      <trkpt lat="43.778" lon="7.35402">
        <ele>297.9</ele>
        <time>2013-12-01T10:00:17Z</time>
      </trkpt>
      <trkpt lat="43.77808" lon="7.35407">
        <ele>297</ele>
        <time>2013-12-01T10:00:24Z</time>
      </trkpt>
      <trkpt lat="43.77815" lon="7.35399">
        <ele>296.8</ele>
        <time>2013-12-01T10:00:57Z</time>
      </trkpt>
      <trkpt lat="43.77817" lon="7.35426">
        <ele>295.2</ele>
        <time>2013-12-01T10:01:10Z</time>
      </trkpt>
      <trkpt lat="43.77828" lon="7.35433">
        <ele>293.2</ele>
        <time>2013-12-01T10:01:14Z</time>
      </trkpt>
      <trkpt lat="43.77839" lon="7.35434">
        <ele>292.7</ele>
        <time>2013-12-01T10:01:17Z</time>
      </trkpt>
      <trkpt lat="43.77846" lon="7.35427">
        <ele>292.3</ele>
        <time>2013-12-01T10:01:20Z</time>
      </trkpt>
      <trkpt lat="43.77855" lon="7.35425">
        <ele>291.5</ele>
        <time>2013-12-01T10:01:23Z</time>
      </trkpt>
      <trkpt lat="43.77864" lon="7.35415">
        <ele>290.9</ele>
        <time>2013-12-01T10:01:27Z</time>
      </trkpt>
      <trkpt lat="43.77874" lon="7.35413">
        <ele>290.5</ele>
        <time>2013-12-01T10:01:31Z</time>
      </trkpt>
      <trkpt lat="43.77885" lon="7.35409">
        <ele>290.6</ele>
        <time>2013-12-01T10:01:35Z</time>
      </trkpt>
      <trkpt lat="43.77894" lon="7.35417">
        <ele>290.2</ele>
        <time>2013-12-01T10:01:38Z</time>
      </trkpt>
      <trkpt lat="43.77899" lon="7.35431">
        <ele>288.8</ele>
        <time>2013-12-01T10:01:41Z</time>
      </trkpt>
      <trkpt lat="43.77904" lon="7.35443">
        <ele>287.8</ele>
        <time>2013-12-01T10:01:44Z</time>
      </trkpt>
      <trkpt lat="43.77907" lon="7.35458">
        <ele>287.4</ele>
        <time>2013-12-01T10:01:47Z</time>
      </trkpt>
      <trkpt lat="43.77906" lon="7.35474">
        <ele>286.2</ele>
        <time>2013-12-01T10:01:51Z</time>
      </trkpt>
      <trkpt lat="43.77908" lon="7.35486">
        <ele>285.7</ele>
        <time>2013-12-01T10:01:54Z</time>
      </trkpt>
      <trkpt lat="43.77919" lon="7.35487">
        <ele>283</ele>
        <time>2013-12-01T10:01:59Z</time>
      </trkpt>
      <trkpt lat="43.77939" lon="7.35501">
        <ele>281.2</ele>
        <time>2013-12-01T10:02:05Z</time>
      </trkpt>
      <trkpt lat="43.77948" lon="7.355">
        <ele>280.5</ele>
        <time>2013-12-01T10:02:07Z</time>
      </trkpt>
      <trkpt lat="43.77957" lon="7.355">
        <ele>280.1</ele>
        <time>2013-12-01T10:02:10Z</time>
      </trkpt>
      <trkpt lat="43.77965" lon="7.35494">
        <ele>280</ele>
        <time>2013-12-01T10:02:13Z</time>
      </trkpt>
      <trkpt lat="43.77976" lon="7.35499">
        <ele>279.8</ele>
        <time>2013-12-01T10:02:17Z</time>
      </trkpt>
      <trkpt lat="43.7798" lon="7.35483">
        <ele>278.5</ele>
        <time>2013-12-01T10:02:21Z</time>
      </trkpt>
      <trkpt lat="43.77988" lon="7.35491">
        <ele>277.9</ele>
        <time>2013-12-01T10:02:25Z</time>
      </trkpt>
      <trkpt lat="43.77999" lon="7.35492">
        <ele>277.5</ele>
        <time>2013-12-01T10:02:28Z</time>
      </trkpt>
      <trkpt lat="43.78008" lon="7.3549">
        <ele>277.4</ele>
        <time>2013-12-01T10:02:30Z</time>
      </trkpt>
      <trkpt lat="43.78017" lon="7.35478">
        <ele>276.8</ele>
        <time>2013-12-01T10:02:33Z</time>
      </trkpt>
      <trkpt lat="43.7802" lon="7.35466">
        <ele>275.4</ele>
        <time>2013-12-01T10:02:38Z</time>
      </trkpt>
      <trkpt lat="43.78029" lon="7.35458">
        <ele>274.7</ele>
        <time>2013-12-01T10:02:41Z</time>
      </trkpt>
      <trkpt lat="43.78034" lon="7.35447">
        <ele>274.5</ele>
        <time>2013-12-01T10:02:43Z</time>
      </trkpt>
      <trkpt lat="43.78038" lon="7.35434">
        <ele>273.8</ele>
        <time>2013-12-01T10:02:46Z</time>
      </trkpt>
      <trkpt lat="43.78034" lon="7.3542">
        <ele>273</ele>
        <time>2013-12-01T10:02:51Z</time>
      </trkpt>
      <trkpt lat="43.78043" lon="7.35411">
        <ele>271.6</ele>
        <time>2013-12-01T10:02:55Z</time>
      </trkpt>
      <trkpt lat="43.78045" lon="7.35395">
        <ele>270.8</ele>
        <time>2013-12-01T10:02:58Z</time>
      </trkpt>
      <trkpt lat="43.7804" lon="7.35384">
        <ele>270</ele>
        <time>2013-12-01T10:03:01Z</time>
      </trkpt>
      <trkpt lat="43.78042" lon="7.35357">
        <ele>269.9</ele>
        <time>2013-12-01T10:03:08Z</time>
      </trkpt>
      <trkpt lat="43.78041" lon="7.35345">
        <ele>269.3</ele>
        <time>2013-12-01T10:03:11Z</time>
      </trkpt>
      <trkpt lat="43.78042" lon="7.3533">
        <ele>267.9</ele>
        <time>2013-12-01T10:03:16Z</time>
      </trkpt>
      <trkpt lat="43.78048" lon="7.35318">
        <ele>267.2</ele>
        <time>2013-12-01T10:03:20Z</time>
      </trkpt>
      <trkpt lat="43.78048" lon="7.35302">
        <ele>265.7</ele>
        <time>2013-12-01T10:03:23Z</time>
      </trkpt>
      <trkpt lat="43.78057" lon="7.35301">
        <ele>262.1</ele>
        <time>2013-12-01T10:08:53Z</time>
      </trkpt>
      <trkpt lat="43.78062" lon="7.35325">
        <ele>261</ele>
        <time>2013-12-01T10:09:00Z</time>
      </trkpt>
      <trkpt lat="43.78064" lon="7.35338">
        <ele>260.6</ele>
        <time>2013-12-01T10:09:02Z</time>
      </trkpt>
      <trkpt lat="43.78066" lon="7.35355">
        <ele>260.1</ele>
        <time>2013-12-01T10:09:04Z</time>
      </trkpt>
      <trkpt lat="43.78074" lon="7.35372">
        <ele>259.4</ele>
        <time>2013-12-01T10:09:06Z</time>
      </trkpt>
      <trkpt lat="43.78085" lon="7.3539">
        <ele>258.7</ele>
        <time>2013-12-01T10:09:08Z</time>
      </trkpt>
      <trkpt lat="43.78093" lon="7.35409">
        <ele>257.6</ele>
        <time>2013-12-01T10:09:10Z</time>
      </trkpt>
      <trkpt lat="43.78093" lon="7.35426">
        <ele>255.4</ele>
        <time>2013-12-01T10:09:12Z</time>
      </trkpt>
      <trkpt lat="43.78087" lon="7.35445">
        <ele>253</ele>
        <time>2013-12-01T10:09:14Z</time>
      </trkpt>
      <trkpt lat="43.78083" lon="7.35468">
        <ele>250.6</ele>
        <time>2013-12-01T10:09:16Z</time>
      </trkpt>
      <trkpt lat="43.78082" lon="7.35481">
        <ele>249.9</ele>
        <time>2013-12-01T10:09:17Z</time>
      </trkpt>
      <trkpt lat="43.78083" lon="7.35495">
        <ele>248.9</ele>
        <time>2013-12-01T10:09:18Z</time>
      </trkpt>
      <trkpt lat="43.78085" lon="7.35508">
        <ele>248.1</ele>
        <time>2013-12-01T10:09:19Z</time>
      </trkpt>
      <trkpt lat="43.78089" lon="7.35521">
        <ele>247.6</ele>
        <time>2013-12-01T10:09:20Z</time>
      </trkpt>
      <trkpt lat="43.78092" lon="7.35543">
        <ele>245.1</ele>
        <time>2013-12-01T10:09:22Z</time>
      </trkpt>
      <trkpt lat="43.78088" lon="7.35566">
        <ele>242.4</ele>
        <time>2013-12-01T10:09:24Z</time>
      </trkpt>
      <trkpt lat="43.78079" lon="7.35585">
        <ele>240.3</ele>
        <time>2013-12-01T10:09:26Z</time>
      </trkpt>
      <trkpt lat="43.78067" lon="7.35601">
        <ele>238</ele>
        <time>2013-12-01T10:09:28Z</time>
      </trkpt>
      <trkpt lat="43.78065" lon="7.35615">
        <ele>235.9</ele>
        <time>2013-12-01T10:09:30Z</time>
      </trkpt>
      <trkpt lat="43.7807" lon="7.35628">
        <ele>233.3</ele>
        <time>2013-12-01T10:09:32Z</time>
      </trkpt>
      <trkpt lat="43.78079" lon="7.35638">
        <ele>231.7</ele>
        <time>2013-12-01T10:09:34Z</time>
      </trkpt>
      <trkpt lat="43.78087" lon="7.35645">
        <ele>230.3</ele>
        <time>2013-12-01T10:09:38Z</time>
      </trkpt>
      <trkpt lat="43.78097" lon="7.35643">
        <ele>229.6</ele>
        <time>2013-12-01T10:09:44Z</time>
      </trkpt>
      <trkpt lat="43.78107" lon="7.35648">
        <ele>230.5</ele>
        <time>2013-12-01T10:09:50Z</time>
      </trkpt>
      <trkpt lat="43.78112" lon="7.35659">
        <ele>232.1</ele>
        <time>2013-12-01T10:09:56Z</time>
      </trkpt>
      <trkpt lat="43.78112" lon="7.35686">
        <ele>231.8</ele>
        <time>2013-12-01T10:10:07Z</time>
      </trkpt>
      <trkpt lat="43.78111" lon="7.35699">
        <ele>231.3</ele>
        <time>2013-12-01T10:10:12Z</time>
      </trkpt>
      <trkpt lat="43.78113" lon="7.35713">
        <ele>231.8</ele>
        <time>2013-12-01T10:10:17Z</time>
      </trkpt>
      <trkpt lat="43.78117" lon="7.35726">
        <ele>232.7</ele>
        <time>2013-12-01T10:10:22Z</time>
      </trkpt>
      <trkpt lat="43.78121" lon="7.35739">
        <ele>233.7</ele>
        <time>2013-12-01T10:10:27Z</time>
      </trkpt>
      <trkpt lat="43.78126" lon="7.3575">
        <ele>235.6</ele>
        <time>2013-12-01T10:10:33Z</time>
      </trkpt>
      <trkpt lat="43.7813" lon="7.35761">
        <ele>235</ele>
        <time>2013-12-01T10:10:39Z</time>
      </trkpt>
      <trkpt lat="43.78137" lon="7.35772">
        <ele>235.3</ele>
        <time>2013-12-01T10:11:09Z</time>
      </trkpt>
      <trkpt lat="43.78148" lon="7.35805">
        <ele>236.1</ele>
        <time>2013-12-01T10:15:35Z</time>
      </trkpt>
      <trkpt lat="43.78161" lon="7.35824">
        <ele>238.3</ele>
        <time>2013-12-01T10:15:48Z</time>
      </trkpt>
      <trkpt lat="43.78169" lon="7.35831">
        <ele>237.9</ele>
        <time>2013-12-01T10:15:56Z</time>
      </trkpt>
      <trkpt lat="43.78176" lon="7.35822">
        <ele>239</ele>
        <time>2013-12-01T10:16:04Z</time>
      </trkpt>
      <trkpt lat="43.78175" lon="7.3581">
        <ele>239.5</ele>
        <time>2013-12-01T10:16:11Z</time>
      </trkpt>
      <trkpt lat="43.78175" lon="7.35797">
        <ele>240.6</ele>
        <time>2013-12-01T10:16:19Z</time>
      </trkpt>
      <trkpt lat="43.78174" lon="7.35784">
        <ele>242.8</ele>
        <time>2013-12-01T10:16:27Z</time>
      </trkpt>
      <trkpt lat="43.78172" lon="7.3577">
        <ele>243.4</ele>
        <time>2013-12-01T10:16:35Z</time>
      </trkpt>
      <trkpt lat="43.78169" lon="7.35758">
        <ele>244.9</ele>
        <time>2013-12-01T10:16:42Z</time>
      </trkpt>
      <trkpt lat="43.78173" lon="7.35755">
        <ele>248.8</ele>
        <time>2013-12-01T10:17:11Z</time>
      </trkpt>
      <trkpt lat="43.78177" lon="7.35768">
        <ele>250.7</ele>
        <time>2013-12-01T10:17:20Z</time>
      </trkpt>
      <trkpt lat="43.78179" lon="7.35781">
        <ele>252.9</ele>
        <time>2013-12-01T10:17:30Z</time>
      </trkpt>
      <trkpt lat="43.78181" lon="7.35794">
        <ele>253.4</ele>
        <time>2013-12-01T10:17:39Z</time>
      </trkpt>
      <trkpt lat="43.78184" lon="7.35807">
        <ele>255.6</ele>
        <time>2013-12-01T10:17:48Z</time>
      </trkpt>
      <trkpt lat="43.78188" lon="7.35832">
        <ele>257.8</ele>
        <time>2013-12-01T10:18:05Z</time>
      </trkpt>
      <trkpt lat="43.78191" lon="7.35845">
        <ele>258.9</ele>
        <time>2013-12-01T10:18:15Z</time>
      </trkpt>
      <trkpt lat="43.78196" lon="7.35856">
        <ele>260.1</ele>
        <time>2013-12-01T10:18:24Z</time>
      </trkpt>
      <trkpt lat="43.78201" lon="7.35867">
        <ele>261.7</ele>
        <time>2013-12-01T10:18:33Z</time>
      </trkpt>
      <trkpt lat="43.78204" lon="7.3588">
        <ele>263.2</ele>
        <time>2013-12-01T10:18:42Z</time>
      </trkpt>
      <trkpt lat="43.78206" lon="7.35892">
        <ele>264.8</ele>
        <time>2013-12-01T10:18:50Z</time>
      </trkpt>
      <trkpt lat="43.78215" lon="7.35915">
        <ele>266.9</ele>
        <time>2013-12-01T10:19:06Z</time>
      </trkpt>
      <trkpt lat="43.7822" lon="7.35927">
        <ele>268.6</ele>
        <time>2013-12-01T10:19:15Z</time>
      </trkpt>
      <trkpt lat="43.78228" lon="7.35936">
        <ele>269.4</ele>
        <time>2013-12-01T10:19:23Z</time>
      </trkpt>
      <trkpt lat="43.78234" lon="7.35945">
        <ele>270.7</ele>
        <time>2013-12-01T10:19:31Z</time>
      </trkpt>
      <trkpt lat="43.78239" lon="7.35956">
        <ele>272.4</ele>
        <time>2013-12-01T10:19:39Z</time>
      </trkpt>
      <trkpt lat="43.78244" lon="7.35967">
        <ele>273.9</ele>
        <time>2013-12-01T10:19:47Z</time>
      </trkpt>
      <trkpt lat="43.78249" lon="7.35977">
        <ele>274.8</ele>
        <time>2013-12-01T10:19:55Z</time>
      </trkpt>
      <trkpt lat="43.78265" lon="7.35991">
        <ele>276.2</ele>
        <time>2013-12-01T10:20:11Z</time>
      </trkpt>
      <trkpt lat="43.78274" lon="7.35995">
        <ele>278.1</ele>
        <time>2013-12-01T10:20:19Z</time>
      </trkpt>
      <trkpt lat="43.78283" lon="7.35998">
        <ele>278.6</ele>
        <time>2013-12-01T10:20:27Z</time>
      </trkpt>
      <trkpt lat="43.78293" lon="7.36">
        <ele>280.2</ele>
        <time>2013-12-01T10:20:35Z</time>
      </trkpt>
      <trkpt lat="43.78302" lon="7.36001">
        <ele>281.2</ele>
        <time>2013-12-01T10:20:42Z</time>
      </trkpt>
      <trkpt lat="43.78311" lon="7.36004">
        <ele>282.2</ele>
        <time>2013-12-01T10:20:50Z</time>
      </trkpt>
      <trkpt lat="43.78321" lon="7.36005">
        <ele>283.5</ele>
        <time>2013-12-01T10:20:58Z</time>
      </trkpt>
      <trkpt lat="43.7834" lon="7.36008">
        <ele>286.3</ele>
        <time>2013-12-01T10:21:14Z</time>
      </trkpt>
      <trkpt lat="43.78348" lon="7.36015">
        <ele>286.7</ele>
        <time>2013-12-01T10:21:22Z</time>
      </trkpt>
      <trkpt lat="43.78354" lon="7.36024">
        <ele>288.2</ele>
        <time>2013-12-01T10:21:29Z</time>
      </trkpt>
      <trkpt lat="43.78359" lon="7.36037">
        <ele>289.2</ele>
        <time>2013-12-01T10:21:37Z</time>
      </trkpt>
      <trkpt lat="43.78364" lon="7.36048">
        <ele>290.1</ele>
        <time>2013-12-01T10:21:44Z</time>
      </trkpt>
      <trkpt lat="43.78368" lon="7.36059">
        <ele>290.4</ele>
        <time>2013-12-01T10:21:51Z</time>
      </trkpt>
      <trkpt lat="43.78374" lon="7.36071">
        <ele>290.8</ele>
        <time>2013-12-01T10:21:59Z</time>
      </trkpt>
      <trkpt lat="43.78377" lon="7.36049">
        <ele>295.2</ele>
        <time>2013-12-01T10:22:21Z</time>
      </trkpt>
      <trkpt lat="43.78375" lon="7.36037">
        <ele>295.8</ele>
        <time>2013-12-01T10:22:28Z</time>
      </trkpt>
      <trkpt lat="43.78373" lon="7.36023">
        <ele>296.8</ele>
        <time>2013-12-01T10:22:36Z</time>
      </trkpt>
      <trkpt lat="43.78373" lon="7.3601">
        <ele>298</ele>
        <time>2013-12-01T10:22:43Z</time>
      </trkpt>
      <trkpt lat="43.78373" lon="7.35997">
        <ele>299.3</ele>
        <time>2013-12-01T10:22:50Z</time>
      </trkpt>
      <trkpt lat="43.78372" lon="7.35985">
        <ele>301.9</ele>
        <time>2013-12-01T10:25:38Z</time>
      </trkpt>
      <trkpt lat="43.78389" lon="7.36022">
        <ele>303</ele>
        <time>2013-12-01T10:27:04Z</time>
      </trkpt>
      <trkpt lat="43.78398" lon="7.36034">
        <ele>304</ele>
        <time>2013-12-01T10:27:12Z</time>
      </trkpt>
      <trkpt lat="43.78405" lon="7.36044">
        <ele>305.2</ele>
        <time>2013-12-01T10:27:18Z</time>
      </trkpt>
      <trkpt lat="43.78411" lon="7.36053">
        <ele>304.5</ele>
        <time>2013-12-01T10:27:23Z</time>
      </trkpt>
      <trkpt lat="43.78418" lon="7.36062">
        <ele>305.2</ele>
        <time>2013-12-01T10:27:28Z</time>
      </trkpt>
      <trkpt lat="43.78426" lon="7.3607">
        <ele>305.8</ele>
        <time>2013-12-01T10:27:33Z</time>
      </trkpt>
      <trkpt lat="43.78433" lon="7.36079">
        <ele>305.8</ele>
        <time>2013-12-01T10:27:37Z</time>
      </trkpt>
      <trkpt lat="43.78441" lon="7.36088">
        <ele>305.7</ele>
        <time>2013-12-01T10:27:41Z</time>
      </trkpt>
      <trkpt lat="43.78448" lon="7.36098">
        <ele>305</ele>
        <time>2013-12-01T10:27:45Z</time>
      </trkpt>
      <trkpt lat="43.78456" lon="7.36109">
        <ele>304.4</ele>
        <time>2013-12-01T10:27:49Z</time>
      </trkpt>
      <trkpt lat="43.78468" lon="7.36132">
        <ele>304.4</ele>
        <time>2013-12-01T10:27:57Z</time>
      </trkpt>
      <trkpt lat="43.78472" lon="7.36144">
        <ele>304.9</ele>
        <time>2013-12-01T10:28:01Z</time>
      </trkpt>
      <trkpt lat="43.78475" lon="7.36159">
        <ele>305.6</ele>
        <time>2013-12-01T10:28:06Z</time>
      </trkpt>
      <trkpt lat="43.78476" lon="7.36174">
        <ele>306.8</ele>
        <time>2013-12-01T10:28:11Z</time>
      </trkpt>
      <trkpt lat="43.78477" lon="7.36188">
        <ele>306.3</ele>
        <time>2013-12-01T10:28:15Z</time>
      </trkpt>
      <trkpt lat="43.78477" lon="7.36201">
        <ele>306</ele>
        <time>2013-12-01T10:28:19Z</time>
      </trkpt>
      <trkpt lat="43.78477" lon="7.36216">
        <ele>307.3</ele>
        <time>2013-12-01T10:28:24Z</time>
      </trkpt>
      <trkpt lat="43.78477" lon="7.36229">
        <ele>307.9</ele>
        <time>2013-12-01T10:28:28Z</time>
      </trkpt>
      <trkpt lat="43.78476" lon="7.36242">
        <ele>308.4</ele>
        <time>2013-12-01T10:28:32Z</time>
      </trkpt>
      <trkpt lat="43.78475" lon="7.36255">
        <ele>308.8</ele>
        <time>2013-12-01T10:28:36Z</time>
      </trkpt>
      <trkpt lat="43.78474" lon="7.3627">
        <ele>309</ele>
        <time>2013-12-01T10:28:40Z</time>
      </trkpt>
      <trkpt lat="43.78474" lon="7.36285">
        <ele>309.2</ele>
        <time>2013-12-01T10:28:44Z</time>
      </trkpt>
      <trkpt lat="43.78475" lon="7.36299">
        <ele>308.8</ele>
        <time>2013-12-01T10:28:49Z</time>
      </trkpt>
      <trkpt lat="43.78476" lon="7.36312">
        <ele>309.8</ele>
        <time>2013-12-01T10:28:54Z</time>
      </trkpt>
      <trkpt lat="43.78479" lon="7.36338">
        <ele>310.5</ele>
        <time>2013-12-01T10:29:06Z</time>
      </trkpt>
      <trkpt lat="43.78478" lon="7.36351">
        <ele>311</ele>
        <time>2013-12-01T10:29:12Z</time>
      </trkpt>
      <trkpt lat="43.78479" lon="7.36364">
        <ele>312</ele>
        <time>2013-12-01T10:29:19Z</time>
      </trkpt>
      <trkpt lat="43.78478" lon="7.36379">
        <ele>311.9</ele>
        <time>2013-12-01T10:29:24Z</time>
      </trkpt>
      <trkpt lat="43.7848" lon="7.36394">
        <ele>313.1</ele>
        <time>2013-12-01T10:29:29Z</time>
      </trkpt>
      <trkpt lat="43.78479" lon="7.36407">
        <ele>312.8</ele>
        <time>2013-12-01T10:29:32Z</time>
      </trkpt>
      <trkpt lat="43.7848" lon="7.36421">
        <ele>313.2</ele>
        <time>2013-12-01T10:29:36Z</time>
      </trkpt>
      <trkpt lat="43.78481" lon="7.36435">
        <ele>315.6</ele>
        <time>2013-12-01T10:29:41Z</time>
      </trkpt>
      <trkpt lat="43.78484" lon="7.36449">
        <ele>315.9</ele>
        <time>2013-12-01T10:29:45Z</time>
      </trkpt>
      <trkpt lat="43.78485" lon="7.36462">
        <ele>316.2</ele>
        <time>2013-12-01T10:29:49Z</time>
      </trkpt>
      <trkpt lat="43.78486" lon="7.36474">
        <ele>315.9</ele>
        <time>2013-12-01T10:29:53Z</time>
      </trkpt>
      <trkpt lat="43.78489" lon="7.36488">
        <ele>317</ele>
        <time>2013-12-01T10:29:58Z</time>
      </trkpt>
      <trkpt lat="43.78498" lon="7.3651">
        <ele>319.7</ele>
        <time>2013-12-01T10:30:06Z</time>
      </trkpt>
      <trkpt lat="43.78505" lon="7.36521">
        <ele>319.5</ele>
        <time>2013-12-01T10:30:11Z</time>
      </trkpt>
      <trkpt lat="43.78511" lon="7.36532">
        <ele>320.1</ele>
        <time>2013-12-01T10:30:16Z</time>
      </trkpt>
      <trkpt lat="43.78517" lon="7.36543">
        <ele>320.9</ele>
        <time>2013-12-01T10:30:21Z</time>
      </trkpt>
      <trkpt lat="43.78523" lon="7.36553">
        <ele>322.9</ele>
        <time>2013-12-01T10:30:26Z</time>
      </trkpt>
      <trkpt lat="43.7853" lon="7.36562">
        <ele>323.1</ele>
        <time>2013-12-01T10:30:31Z</time>
      </trkpt>
      <trkpt lat="43.78537" lon="7.36571">
        <ele>324.5</ele>
        <time>2013-12-01T10:30:36Z</time>
      </trkpt>
      <trkpt lat="43.78544" lon="7.36581">
        <ele>326.3</ele>
        <time>2013-12-01T10:30:42Z</time>
      </trkpt>
      <trkpt lat="43.78551" lon="7.36591">
        <ele>328.3</ele>
        <time>2013-12-01T10:30:48Z</time>
      </trkpt>
      <trkpt lat="43.78558" lon="7.36599">
        <ele>327.9</ele>
        <time>2013-12-01T10:30:53Z</time>
      </trkpt>
      <trkpt lat="43.78565" lon="7.36607">
        <ele>328.4</ele>
        <time>2013-12-01T10:30:58Z</time>
      </trkpt>
      <trkpt lat="43.78573" lon="7.36618">
        <ele>329.2</ele>
        <time>2013-12-01T10:31:03Z</time>
      </trkpt>
      <trkpt lat="43.78583" lon="7.36643">
        <ele>330.9</ele>
        <time>2013-12-01T10:31:13Z</time>
      </trkpt>
      <trkpt lat="43.78589" lon="7.36655">
        <ele>330.4</ele>
        <time>2013-12-01T10:31:18Z</time>
      </trkpt>
      <trkpt lat="43.78593" lon="7.36668">
        <ele>330.9</ele>
        <time>2013-12-01T10:31:23Z</time>
      </trkpt>
      <trkpt lat="43.78598" lon="7.36681">
        <ele>331.6</ele>
        <time>2013-12-01T10:31:28Z</time>
      </trkpt>
      <trkpt lat="43.78605" lon="7.36692">
        <ele>332.8</ele>
        <time>2013-12-01T10:31:33Z</time>
      </trkpt>
      <trkpt lat="43.78613" lon="7.36697">
        <ele>333</ele>
        <time>2013-12-01T10:31:38Z</time>
      </trkpt>
      <trkpt lat="43.78623" lon="7.367">
        <ele>333.2</ele>
        <time>2013-12-01T10:31:42Z</time>
      </trkpt>
      <trkpt lat="43.78632" lon="7.367">
        <ele>333.9</ele>
        <time>2013-12-01T10:31:45Z</time>
      </trkpt>
      <trkpt lat="43.78641" lon="7.367">
        <ele>332.6</ele>
        <time>2013-12-01T10:31:48Z</time>
      </trkpt>
      <trkpt lat="43.7865" lon="7.36699">
        <ele>332.1</ele>
        <time>2013-12-01T10:31:51Z</time>
      </trkpt>
      <trkpt lat="43.7866" lon="7.36698">
        <ele>331.8</ele>
        <time>2013-12-01T10:31:54Z</time>
      </trkpt>
      <trkpt lat="43.78672" lon="7.36697">
        <ele>332.3</ele>
        <time>2013-12-01T10:31:58Z</time>
      </trkpt>
      <trkpt lat="43.78681" lon="7.36699">
        <ele>331.7</ele>
        <time>2013-12-01T10:32:01Z</time>
      </trkpt>
      <trkpt lat="43.78693" lon="7.36702">
        <ele>331.9</ele>
        <time>2013-12-01T10:32:04Z</time>
      </trkpt>
      <trkpt lat="43.78717" lon="7.36713">
        <ele>329.9</ele>
        <time>2013-12-01T10:32:10Z</time>
      </trkpt>
      <trkpt lat="43.78726" lon="7.36715">
        <ele>329.9</ele>
        <time>2013-12-01T10:32:12Z</time>
      </trkpt>
      <trkpt lat="43.78736" lon="7.36717">
        <ele>329.5</ele>
        <time>2013-12-01T10:32:14Z</time>
      </trkpt>
      <trkpt lat="43.78746" lon="7.36718">
        <ele>329.1</ele>
        <time>2013-12-01T10:32:16Z</time>
      </trkpt>
      <trkpt lat="43.78756" lon="7.36717">
        <ele>329.1</ele>
        <time>2013-12-01T10:32:18Z</time>
      </trkpt>
      <trkpt lat="43.78766" lon="7.36715">
        <ele>329</ele>
        <time>2013-12-01T10:32:20Z</time>
      </trkpt>
      <trkpt lat="43.78775" lon="7.36712">
        <ele>328.2</ele>
        <time>2013-12-01T10:32:22Z</time>
      </trkpt>
      <trkpt lat="43.78785" lon="7.3671">
        <ele>327.7</ele>
        <time>2013-12-01T10:32:24Z</time>
      </trkpt>
      <trkpt lat="43.78794" lon="7.36708">
        <ele>327.4</ele>
        <time>2013-12-01T10:32:26Z</time>
      </trkpt>
      <trkpt lat="43.78804" lon="7.36704">
        <ele>327.2</ele>
        <time>2013-12-01T10:32:28Z</time>
      </trkpt>
      <trkpt lat="43.78813" lon="7.36702">
        <ele>327.1</ele>
        <time>2013-12-01T10:32:30Z</time>
      </trkpt>
      <trkpt lat="43.78823" lon="7.36699">
        <ele>327</ele>
        <time>2013-12-01T10:32:32Z</time>
      </trkpt>
      <trkpt lat="43.78831" lon="7.36696">
        <ele>326.4</ele>
        <time>2013-12-01T10:32:34Z</time>
      </trkpt>
      <trkpt lat="43.7884" lon="7.36695">
        <ele>326.1</ele>
        <time>2013-12-01T10:32:36Z</time>
      </trkpt>
      <trkpt lat="43.78849" lon="7.36692">
        <ele>326.6</ele>
        <time>2013-12-01T10:32:38Z</time>
      </trkpt>
      <trkpt lat="43.78858" lon="7.36687">
        <ele>326.4</ele>
        <time>2013-12-01T10:32:40Z</time>
      </trkpt>
      <trkpt lat="43.78868" lon="7.36674">
        <ele>326.1</ele>
        <time>2013-12-01T10:32:43Z</time>
      </trkpt>
      <trkpt lat="43.78877" lon="7.36662">
        <ele>326</ele>
        <time>2013-12-01T10:32:46Z</time>
      </trkpt>
      <trkpt lat="43.78888" lon="7.36657">
        <ele>325.8</ele>
        <time>2013-12-01T10:32:49Z</time>
      </trkpt>
      <trkpt lat="43.78898" lon="7.36657">
        <ele>325.8</ele>
        <time>2013-12-01T10:32:51Z</time>
      </trkpt>
      <trkpt lat="43.78909" lon="7.36662">
        <ele>325.6</ele>
        <time>2013-12-01T10:32:53Z</time>
      </trkpt>
      <trkpt lat="43.7892" lon="7.36663">
        <ele>325.3</ele>
        <time>2013-12-01T10:32:55Z</time>
      </trkpt>
      <trkpt lat="43.7893" lon="7.36662">
        <ele>325.1</ele>
        <time>2013-12-01T10:32:57Z</time>
      </trkpt>
      <trkpt lat="43.78943" lon="7.36661">
        <ele>323.5</ele>
        <time>2013-12-01T10:33:00Z</time>
      </trkpt>
      <trkpt lat="43.78952" lon="7.36662">
        <ele>323.1</ele>
        <time>2013-12-01T10:33:02Z</time>
      </trkpt>
      <trkpt lat="43.78962" lon="7.36664">
        <ele>323.1</ele>
        <time>2013-12-01T10:33:04Z</time>
      </trkpt>
      <trkpt lat="43.78973" lon="7.36659">
        <ele>322.9</ele>
        <time>2013-12-01T10:33:07Z</time>
      </trkpt>
      <trkpt lat="43.78994" lon="7.36653">
        <ele>322.7</ele>
        <time>2013-12-01T10:33:11Z</time>
      </trkpt>
      <trkpt lat="43.79007" lon="7.36655">
        <ele>322.7</ele>
        <time>2013-12-01T10:33:14Z</time>
      </trkpt>
      <trkpt lat="43.79015" lon="7.36663">
        <ele>321.8</ele>
        <time>2013-12-01T10:33:16Z</time>
      </trkpt>
      <trkpt lat="43.79023" lon="7.3667">
        <ele>321.3</ele>
        <time>2013-12-01T10:33:20Z</time>
      </trkpt>
      <trkpt lat="43.79033" lon="7.36678">
        <ele>319.2</ele>
        <time>2013-12-01T10:33:24Z</time>
      </trkpt>
      <trkpt lat="43.79041" lon="7.36685">
        <ele>319.5</ele>
        <time>2013-12-01T10:33:26Z</time>
      </trkpt>
      <trkpt lat="43.79052" lon="7.36687">
        <ele>320.1</ele>
        <time>2013-12-01T10:33:30Z</time>
      </trkpt>
      <trkpt lat="43.79063" lon="7.36695">
        <ele>319.5</ele>
        <time>2013-12-01T10:33:34Z</time>
      </trkpt>
      <trkpt lat="43.79073" lon="7.36701">
        <ele>319.4</ele>
        <time>2013-12-01T10:33:37Z</time>
      </trkpt>
      <trkpt lat="43.79084" lon="7.36706">
        <ele>319.5</ele>
        <time>2013-12-01T10:33:40Z</time>
      </trkpt>
      <trkpt lat="43.79098" lon="7.36708">
        <ele>319.1</ele>
        <time>2013-12-01T10:33:43Z</time>
      </trkpt>
      <trkpt lat="43.79107" lon="7.36709">
        <ele>318.6</ele>
        <time>2013-12-01T10:33:45Z</time>
      </trkpt>
      <trkpt lat="43.79119" lon="7.36713">
        <ele>318.4</ele>
        <time>2013-12-01T10:33:47Z</time>
      </trkpt>
      <trkpt lat="43.79129" lon="7.36715">
        <ele>318.3</ele>
        <time>2013-12-01T10:33:49Z</time>
      </trkpt>
      <trkpt lat="43.79138" lon="7.3671">
        <ele>318.8</ele>
        <time>2013-12-01T10:33:52Z</time>
      </trkpt>
      <trkpt lat="43.79149" lon="7.36705">
        <ele>318.8</ele>
        <time>2013-12-01T10:33:55Z</time>
      </trkpt>
      <trkpt lat="43.79161" lon="7.36704">
        <ele>318.3</ele>
        <time>2013-12-01T10:33:58Z</time>
      </trkpt>
      <trkpt lat="43.79169" lon="7.367">
        <ele>318.1</ele>
        <time>2013-12-01T10:34:00Z</time>
      </trkpt>
      <trkpt lat="43.79182" lon="7.36706">
        <ele>318</ele>
        <time>2013-12-01T10:34:03Z</time>
      </trkpt>
      <trkpt lat="43.79188" lon="7.36717">
        <ele>318</ele>
        <time>2013-12-01T10:34:06Z</time>
      </trkpt>
      <trkpt lat="43.79189" lon="7.36733">
        <ele>317.5</ele>
        <time>2013-12-01T10:34:09Z</time>
      </trkpt>
      <trkpt lat="43.79188" lon="7.3676">
        <ele>317.1</ele>
        <time>2013-12-01T10:34:13Z</time>
      </trkpt>
      <trkpt lat="43.79188" lon="7.36773">
        <ele>317.5</ele>
        <time>2013-12-01T10:34:18Z</time>
      </trkpt>
      <trkpt lat="43.79191" lon="7.36788">
        <ele>317</ele>
        <time>2013-12-01T10:34:22Z</time>
      </trkpt>
      <trkpt lat="43.79191" lon="7.36802">
        <ele>316.6</ele>
        <time>2013-12-01T10:34:24Z</time>
      </trkpt>
      <trkpt lat="43.79195" lon="7.36816">
        <ele>317.2</ele>
        <time>2013-12-01T10:34:26Z</time>
      </trkpt>
      <trkpt lat="43.79192" lon="7.36832">
        <ele>316.6</ele>
        <time>2013-12-01T10:34:29Z</time>
      </trkpt>
      <trkpt lat="43.79191" lon="7.36845">
        <ele>316.1</ele>
        <time>2013-12-01T10:34:31Z</time>
      </trkpt>
      <trkpt lat="43.79196" lon="7.36856">
        <ele>316.4</ele>
        <time>2013-12-01T10:34:33Z</time>
      </trkpt>
      <trkpt lat="43.79204" lon="7.36869">
        <ele>316.3</ele>
        <time>2013-12-01T10:34:36Z</time>
      </trkpt>
      <trkpt lat="43.79212" lon="7.3688">
        <ele>316.1</ele>
        <time>2013-12-01T10:34:39Z</time>
      </trkpt>
      <trkpt lat="43.79219" lon="7.36889">
        <ele>316</ele>
        <time>2013-12-01T10:34:42Z</time>
      </trkpt>
      <trkpt lat="43.79227" lon="7.36899">
        <ele>315.9</ele>
        <time>2013-12-01T10:34:46Z</time>
      </trkpt>
      <trkpt lat="43.79236" lon="7.36907">
        <ele>316.1</ele>
        <time>2013-12-01T10:34:52Z</time>
      </trkpt>
      <trkpt lat="43.79245" lon="7.36913">
        <ele>316.3</ele>
        <time>2013-12-01T10:34:57Z</time>
      </trkpt>
      <trkpt lat="43.79255" lon="7.36918">
        <ele>316.3</ele>
        <time>2013-12-01T10:35:02Z</time>
      </trkpt>
      <trkpt lat="43.79263" lon="7.36923">
        <ele>316.2</ele>
        <time>2013-12-01T10:35:06Z</time>
      </trkpt>
      <trkpt lat="43.79273" lon="7.3693">
        <ele>316.4</ele>
        <time>2013-12-01T10:35:11Z</time>
      </trkpt>
      <trkpt lat="43.7929" lon="7.3694">
        <ele>317.9</ele>
        <time>2013-12-01T10:35:19Z</time>
      </trkpt>
      <trkpt lat="43.79299" lon="7.36947">
        <ele>318.2</ele>
        <time>2013-12-01T10:35:23Z</time>
      </trkpt>
      <trkpt lat="43.79309" lon="7.36952">
        <ele>317.7</ele>
        <time>2013-12-01T10:35:27Z</time>
      </trkpt>
      <trkpt lat="43.79317" lon="7.3696">
        <ele>318.5</ele>
        <time>2013-12-01T10:35:31Z</time>
      </trkpt>
      <trkpt lat="43.79324" lon="7.36968">
        <ele>319.3</ele>
        <time>2013-12-01T10:35:36Z</time>
      </trkpt>
      <trkpt lat="43.79333" lon="7.36973">
        <ele>320.2</ele>
        <time>2013-12-01T10:35:41Z</time>
      </trkpt>
      <trkpt lat="43.79341" lon="7.3698">
        <ele>321.3</ele>
        <time>2013-12-01T10:35:47Z</time>
      </trkpt>
      <trkpt lat="43.7935" lon="7.36989">
        <ele>322.3</ele>
        <time>2013-12-01T10:35:53Z</time>
      </trkpt>
      <trkpt lat="43.79358" lon="7.36996">
        <ele>323.8</ele>
        <time>2013-12-01T10:35:58Z</time>
      </trkpt>
      <trkpt lat="43.79366" lon="7.37005">
        <ele>323.9</ele>
        <time>2013-12-01T10:36:03Z</time>
      </trkpt>
      <trkpt lat="43.79375" lon="7.37013">
        <ele>324.7</ele>
        <time>2013-12-01T10:36:08Z</time>
      </trkpt>
      <trkpt lat="43.79383" lon="7.3702">
        <ele>324.4</ele>
        <time>2013-12-01T10:36:13Z</time>
      </trkpt>
      <trkpt lat="43.794" lon="7.37035">
        <ele>323.9</ele>
        <time>2013-12-01T10:36:22Z</time>
      </trkpt>
      <trkpt lat="43.79409" lon="7.37042">
        <ele>325.5</ele>
        <time>2013-12-01T10:36:26Z</time>
      </trkpt>
      <trkpt lat="43.79418" lon="7.37047">
        <ele>324.2</ele>
        <time>2013-12-01T10:36:30Z</time>
      </trkpt>
      <trkpt lat="43.79427" lon="7.37051">
        <ele>324</ele>
        <time>2013-12-01T10:36:34Z</time>
      </trkpt>
      <trkpt lat="43.79437" lon="7.37055">
        <ele>325</ele>
        <time>2013-12-01T10:36:38Z</time>
      </trkpt>
      <trkpt lat="43.79446" lon="7.37059">
        <ele>325.3</ele>
        <time>2013-12-01T10:36:42Z</time>
      </trkpt>
      <trkpt lat="43.79455" lon="7.37063">
        <ele>325.6</ele>
        <time>2013-12-01T10:36:46Z</time>
      </trkpt>
      <trkpt lat="43.79465" lon="7.37067">
        <ele>326.4</ele>
        <time>2013-12-01T10:36:50Z</time>
      </trkpt>
      <trkpt lat="43.79474" lon="7.37069">
        <ele>326.9</ele>
        <time>2013-12-01T10:36:54Z</time>
      </trkpt>
      <trkpt lat="43.79483" lon="7.37073">
        <ele>326.2</ele>
        <time>2013-12-01T10:36:58Z</time>
      </trkpt>
      <trkpt lat="43.79493" lon="7.37074">
        <ele>325.6</ele>
        <time>2013-12-01T10:37:02Z</time>
      </trkpt>
      <trkpt lat="43.79502" lon="7.37075">
        <ele>326.6</ele>
        <time>2013-12-01T10:37:06Z</time>
      </trkpt>
      <trkpt lat="43.79511" lon="7.37077">
        <ele>327.4</ele>
        <time>2013-12-01T10:37:10Z</time>
      </trkpt>
      <trkpt lat="43.7952" lon="7.37078">
        <ele>327.2</ele>
        <time>2013-12-01T10:37:14Z</time>
      </trkpt>
      <trkpt lat="43.7954" lon="7.37079">
        <ele>327.6</ele>
        <time>2013-12-01T10:37:23Z</time>
      </trkpt>
      <trkpt lat="43.79551" lon="7.37081">
        <ele>327.9</ele>
        <time>2013-12-01T10:37:28Z</time>
      </trkpt>
      <trkpt lat="43.79561" lon="7.37081">
        <ele>328.9</ele>
        <time>2013-12-01T10:37:33Z</time>
      </trkpt>
      <trkpt lat="43.79571" lon="7.3708">
        <ele>328.6</ele>
        <time>2013-12-01T10:37:38Z</time>
      </trkpt>
      <trkpt lat="43.79581" lon="7.3708">
        <ele>328.7</ele>
        <time>2013-12-01T10:37:43Z</time>
      </trkpt>
      <trkpt lat="43.79591" lon="7.37081">
        <ele>330.1</ele>
        <time>2013-12-01T10:37:48Z</time>
      </trkpt>
      <trkpt lat="43.79601" lon="7.37079">
        <ele>330.5</ele>
        <time>2013-12-01T10:37:53Z</time>
      </trkpt>
      <trkpt lat="43.79612" lon="7.37079">
        <ele>329.9</ele>
        <time>2013-12-01T10:37:58Z</time>
      </trkpt>
      <trkpt lat="43.79624" lon="7.37079">
        <ele>331.3</ele>
        <time>2013-12-01T10:38:03Z</time>
      </trkpt>
      <trkpt lat="43.79634" lon="7.37078">
        <ele>331.5</ele>
        <time>2013-12-01T10:38:08Z</time>
      </trkpt>
      <trkpt lat="43.79644" lon="7.37076">
        <ele>332.2</ele>
        <time>2013-12-01T10:38:13Z</time>
      </trkpt>
      <trkpt lat="43.79653" lon="7.37075">
        <ele>333.2</ele>
        <time>2013-12-01T10:38:18Z</time>
      </trkpt>
      <trkpt lat="43.79673" lon="7.37071">
        <ele>333.8</ele>
        <time>2013-12-01T10:38:28Z</time>
      </trkpt>
      <trkpt lat="43.79683" lon="7.37069">
        <ele>333.9</ele>
        <time>2013-12-01T10:38:33Z</time>
      </trkpt>
      <trkpt lat="43.79693" lon="7.37067">
        <ele>335.1</ele>
        <time>2013-12-01T10:38:38Z</time>
      </trkpt>
      <trkpt lat="43.79702" lon="7.37068">
        <ele>335.3</ele>
        <time>2013-12-01T10:38:44Z</time>
      </trkpt>
      <trkpt lat="43.79708" lon="7.37078">
        <ele>336.7</ele>
        <time>2013-12-01T10:38:51Z</time>
      </trkpt>
      <trkpt lat="43.79703" lon="7.3709">
        <ele>338.2</ele>
        <time>2013-12-01T10:38:58Z</time>
      </trkpt>
      <trkpt lat="43.79696" lon="7.37098">
        <ele>337.9</ele>
        <time>2013-12-01T10:39:05Z</time>
      </trkpt>
      <trkpt lat="43.79687" lon="7.37104">
        <ele>339.7</ele>
        <time>2013-12-01T10:39:12Z</time>
      </trkpt>
      <trkpt lat="43.79679" lon="7.3711">
        <ele>341</ele>
        <time>2013-12-01T10:39:18Z</time>
      </trkpt>
      <trkpt lat="43.7967" lon="7.37116">
        <ele>341.8</ele>
        <time>2013-12-01T10:39:25Z</time>
      </trkpt>
      <trkpt lat="43.79655" lon="7.37133">
        <ele>344.4</ele>
        <time>2013-12-01T10:39:39Z</time>
      </trkpt>
      <trkpt lat="43.79651" lon="7.37146">
        <ele>345.4</ele>
        <time>2013-12-01T10:39:46Z</time>
      </trkpt>
      <trkpt lat="43.79647" lon="7.37159">
        <ele>345.8</ele>
        <time>2013-12-01T10:39:53Z</time>
      </trkpt>
      <trkpt lat="43.79644" lon="7.37172">
        <ele>346.3</ele>
        <time>2013-12-01T10:39:59Z</time>
      </trkpt>
      <trkpt lat="43.79644" lon="7.37184">
        <ele>346.7</ele>
        <time>2013-12-01T10:40:05Z</time>
      </trkpt>
      <trkpt lat="43.79649" lon="7.37195">
        <ele>348.6</ele>
        <time>2013-12-01T10:40:11Z</time>
      </trkpt>
      <trkpt lat="43.79655" lon="7.37205">
        <ele>348.9</ele>
        <time>2013-12-01T10:40:17Z</time>
      </trkpt>
      <trkpt lat="43.79662" lon="7.37214">
        <ele>350.3</ele>
        <time>2013-12-01T10:40:23Z</time>
      </trkpt>
      <trkpt lat="43.7967" lon="7.3722">
        <ele>352.3</ele>
        <time>2013-12-01T10:40:30Z</time>
      </trkpt>
      <trkpt lat="43.79687" lon="7.37233">
        <ele>355.2</ele>
        <time>2013-12-01T10:40:44Z</time>
      </trkpt>
      <trkpt lat="43.79697" lon="7.37234">
        <ele>356.7</ele>
        <time>2013-12-01T10:40:51Z</time>
      </trkpt>
      <trkpt lat="43.79707" lon="7.37233">
        <ele>356.4</ele>
        <time>2013-12-01T10:40:58Z</time>
      </trkpt>
      <trkpt lat="43.79716" lon="7.37232">
        <ele>360.1</ele>
        <time>2013-12-01T10:41:05Z</time>
      </trkpt>
      <trkpt lat="43.79725" lon="7.3723">
        <ele>362</ele>
        <time>2013-12-01T10:41:12Z</time>
      </trkpt>
      <trkpt lat="43.79735" lon="7.37227">
        <ele>363.9</ele>
        <time>2013-12-01T10:41:19Z</time>
      </trkpt>
      <trkpt lat="43.79744" lon="7.37225">
        <ele>365.3</ele>
        <time>2013-12-01T10:41:26Z</time>
      </trkpt>
      <trkpt lat="43.79753" lon="7.37223">
        <ele>366.6</ele>
        <time>2013-12-01T10:41:34Z</time>
      </trkpt>
      <trkpt lat="43.79773" lon="7.37216">
        <ele>369</ele>
        <time>2013-12-01T10:41:51Z</time>
      </trkpt>
      <trkpt lat="43.79782" lon="7.37213">
        <ele>371.2</ele>
        <time>2013-12-01T10:41:59Z</time>
      </trkpt>
      <trkpt lat="43.79791" lon="7.37211">
        <ele>372.7</ele>
        <time>2013-12-01T10:42:07Z</time>
      </trkpt>
      <trkpt lat="43.79801" lon="7.3721">
        <ele>374.4</ele>
        <time>2013-12-01T10:42:14Z</time>
      </trkpt>
      <trkpt lat="43.7981" lon="7.37208">
        <ele>375.8</ele>
        <time>2013-12-01T10:42:20Z</time>
      </trkpt>
      <trkpt lat="43.7982" lon="7.37207">
        <ele>376</ele>
        <time>2013-12-01T10:42:27Z</time>
      </trkpt>
      <trkpt lat="43.7983" lon="7.37206">
        <ele>376.2</ele>
        <time>2013-12-01T10:42:33Z</time>
      </trkpt>
      <trkpt lat="43.7984" lon="7.37203">
        <ele>378.5</ele>
        <time>2013-12-01T10:42:52Z</time>
      </trkpt>
      <trkpt lat="43.79859" lon="7.37201">
        <ele>380.7</ele>
        <time>2013-12-01T10:43:05Z</time>
      </trkpt>
      <trkpt lat="43.79868" lon="7.372">
        <ele>381.8</ele>
        <time>2013-12-01T10:43:12Z</time>
      </trkpt>
      <trkpt lat="43.79879" lon="7.37199">
        <ele>383.1</ele>
        <time>2013-12-01T10:43:19Z</time>
      </trkpt>
      <trkpt lat="43.79888" lon="7.37195">
        <ele>384.4</ele>
        <time>2013-12-01T10:43:25Z</time>
      </trkpt>
      <trkpt lat="43.79898" lon="7.37192">
        <ele>385.3</ele>
        <time>2013-12-01T10:43:31Z</time>
      </trkpt>
      <trkpt lat="43.79907" lon="7.37187">
        <ele>387.3</ele>
        <time>2013-12-01T10:43:37Z</time>
      </trkpt>
      <trkpt lat="43.79916" lon="7.37183">
        <ele>388.3</ele>
        <time>2013-12-01T10:43:43Z</time>
      </trkpt>
      <trkpt lat="43.79925" lon="7.37177">
        <ele>389.7</ele>
        <time>2013-12-01T10:43:50Z</time>
      </trkpt>
      <trkpt lat="43.79935" lon="7.37171">
        <ele>391.1</ele>
        <time>2013-12-01T10:43:57Z</time>
      </trkpt>
      <trkpt lat="43.79952" lon="7.37164">
        <ele>392.8</ele>
        <time>2013-12-01T10:44:09Z</time>
      </trkpt>
      <trkpt lat="43.79958" lon="7.37174">
        <ele>393.8</ele>
        <time>2013-12-01T10:44:15Z</time>
      </trkpt>
      <trkpt lat="43.79951" lon="7.37184">
        <ele>393.6</ele>
        <time>2013-12-01T10:44:21Z</time>
      </trkpt>
      <trkpt lat="43.79943" lon="7.37191">
        <ele>394.8</ele>
        <time>2013-12-01T10:44:27Z</time>
      </trkpt>
      <trkpt lat="43.79935" lon="7.37199">
        <ele>395.4</ele>
        <time>2013-12-01T10:44:34Z</time>
      </trkpt>
      <trkpt lat="43.79928" lon="7.37207">
        <ele>395.7</ele>
        <time>2013-12-01T10:44:40Z</time>
      </trkpt>
      <trkpt lat="43.7992" lon="7.37215">
        <ele>398.1</ele>
        <time>2013-12-01T10:44:47Z</time>
      </trkpt>
      <trkpt lat="43.79913" lon="7.37224">
        <ele>398.9</ele>
        <time>2013-12-01T10:44:54Z</time>
      </trkpt>
      <trkpt lat="43.79906" lon="7.37233">
        <ele>399.5</ele>
        <time>2013-12-01T10:45:01Z</time>
      </trkpt>
      <trkpt lat="43.79896" lon="7.37255">
        <ele>402</ele>
        <time>2013-12-01T10:45:17Z</time>
      </trkpt>
      <trkpt lat="43.79903" lon="7.37264">
        <ele>403.8</ele>
        <time>2013-12-01T10:45:27Z</time>
      </trkpt>
      <trkpt lat="43.79912" lon="7.37262">
        <ele>404.4</ele>
        <time>2013-12-01T10:45:35Z</time>
      </trkpt>
      <trkpt lat="43.79921" lon="7.37256">
        <ele>405.7</ele>
        <time>2013-12-01T10:45:43Z</time>
      </trkpt>
      <trkpt lat="43.7993" lon="7.37249">
        <ele>406.7</ele>
        <time>2013-12-01T10:45:51Z</time>
      </trkpt>
      <trkpt lat="43.79938" lon="7.37242">
        <ele>406.7</ele>
        <time>2013-12-01T10:45:58Z</time>
      </trkpt>
      <trkpt lat="43.79947" lon="7.37236">
        <ele>408.8</ele>
        <time>2013-12-01T10:46:06Z</time>
      </trkpt>
      <trkpt lat="43.79964" lon="7.37222">
        <ele>411.1</ele>
        <time>2013-12-01T10:46:22Z</time>
      </trkpt>
      <trkpt lat="43.79972" lon="7.37218">
        <ele>412.6</ele>
        <time>2013-12-01T10:46:30Z</time>
      </trkpt>
      <trkpt lat="43.79981" lon="7.37213">
        <ele>413</ele>
        <time>2013-12-01T10:46:38Z</time>
      </trkpt>
      <trkpt lat="43.79991" lon="7.3721">
        <ele>415.2</ele>
        <time>2013-12-01T10:46:46Z</time>
      </trkpt>
      <trkpt lat="43.8" lon="7.37207">
        <ele>416.2</ele>
        <time>2013-12-01T10:46:53Z</time>
      </trkpt>
      <trkpt lat="43.80009" lon="7.37204">
        <ele>417</ele>
        <time>2013-12-01T10:47:00Z</time>
      </trkpt>
      <trkpt lat="43.80019" lon="7.37202">
        <ele>417.1</ele>
        <time>2013-12-01T10:47:07Z</time>
      </trkpt>
      <trkpt lat="43.80024" lon="7.37222">
        <ele>419</ele>
        <time>2013-12-01T10:47:21Z</time>
      </trkpt>
      <trkpt lat="43.80015" lon="7.37227">
        <ele>421.4</ele>
        <time>2013-12-01T10:47:29Z</time>
      </trkpt>
      <trkpt lat="43.80006" lon="7.3723">
        <ele>421.1</ele>
        <time>2013-12-01T10:47:36Z</time>
      </trkpt>
      <trkpt lat="43.79998" lon="7.37235">
        <ele>422.5</ele>
        <time>2013-12-01T10:47:43Z</time>
      </trkpt>
      <trkpt lat="43.7999" lon="7.37244">
        <ele>424.7</ele>
        <time>2013-12-01T10:47:51Z</time>
      </trkpt>
      <trkpt lat="43.79984" lon="7.37254">
        <ele>425.1</ele>
        <time>2013-12-01T10:47:59Z</time>
      </trkpt>
      <trkpt lat="43.79978" lon="7.37265">
        <ele>427.2</ele>
        <time>2013-12-01T10:48:07Z</time>
      </trkpt>
      <trkpt lat="43.79972" lon="7.37274">
        <ele>428.7</ele>
        <time>2013-12-01T10:48:15Z</time>
      </trkpt>
      <trkpt lat="43.79959" lon="7.37294">
        <ele>431.5</ele>
        <time>2013-12-01T10:48:33Z</time>
      </trkpt>
      <trkpt lat="43.79953" lon="7.37304">
        <ele>432.8</ele>
        <time>2013-12-01T10:48:41Z</time>
      </trkpt>
      <trkpt lat="43.79949" lon="7.37315">
        <ele>433.3</ele>
        <time>2013-12-01T10:48:49Z</time>
      </trkpt>
      <trkpt lat="43.79951" lon="7.37329">
        <ele>435</ele>
        <time>2013-12-01T10:48:58Z</time>
      </trkpt>
      <trkpt lat="43.79958" lon="7.37336">
        <ele>437</ele>
        <time>2013-12-01T10:49:07Z</time>
      </trkpt>
      <trkpt lat="43.79967" lon="7.37337">
        <ele>438.1</ele>
        <time>2013-12-01T10:49:16Z</time>
      </trkpt>
      <trkpt lat="43.79985" lon="7.37328">
        <ele>441.6</ele>
        <time>2013-12-01T10:49:36Z</time>
      </trkpt>
      <trkpt lat="43.79995" lon="7.37323">
        <ele>443.4</ele>
        <time>2013-12-01T10:49:44Z</time>
      </trkpt>
      <trkpt lat="43.80004" lon="7.37319">
        <ele>446.2</ele>
        <time>2013-12-01T10:49:51Z</time>
      </trkpt>
      <trkpt lat="43.80013" lon="7.37315">
        <ele>447.1</ele>
        <time>2013-12-01T10:49:59Z</time>
      </trkpt>
      <trkpt lat="43.80023" lon="7.37311">
        <ele>449.3</ele>
        <time>2013-12-01T10:50:08Z</time>
      </trkpt>
      <trkpt lat="43.80032" lon="7.37308">
        <ele>451.2</ele>
        <time>2013-12-01T10:50:16Z</time>
      </trkpt>
      <trkpt lat="43.80042" lon="7.37306">
        <ele>452.7</ele>
        <time>2013-12-01T10:50:24Z</time>
      </trkpt>
      <trkpt lat="43.80061" lon="7.37301">
        <ele>456.6</ele>
        <time>2013-12-01T10:50:41Z</time>
      </trkpt>
      <trkpt lat="43.80071" lon="7.37301">
        <ele>457.8</ele>
        <time>2013-12-01T10:50:49Z</time>
      </trkpt>
      <trkpt lat="43.80079" lon="7.37307">
        <ele>459.3</ele>
        <time>2013-12-01T10:50:57Z</time>
      </trkpt>
      <trkpt lat="43.80087" lon="7.37313">
        <ele>461.6</ele>
        <time>2013-12-01T10:51:05Z</time>
      </trkpt>
      <trkpt lat="43.80095" lon="7.3732">
        <ele>463.8</ele>
        <time>2013-12-01T10:51:14Z</time>
      </trkpt>
      <trkpt lat="43.80104" lon="7.37326">
        <ele>465.1</ele>
        <time>2013-12-01T10:51:23Z</time>
      </trkpt>
      <trkpt lat="43.80112" lon="7.37332">
        <ele>467.1</ele>
        <time>2013-12-01T10:51:32Z</time>
      </trkpt>
      <trkpt lat="43.8013" lon="7.37341">
        <ele>471.5</ele>
        <time>2013-12-01T10:51:49Z</time>
      </trkpt>
      <trkpt lat="43.80139" lon="7.37347">
        <ele>474.1</ele>
        <time>2013-12-01T10:51:58Z</time>
      </trkpt>
      <trkpt lat="43.80148" lon="7.37353">
        <ele>475.2</ele>
        <time>2013-12-01T10:52:07Z</time>
      </trkpt>
      <trkpt lat="43.80155" lon="7.37361">
        <ele>477.2</ele>
        <time>2013-12-01T10:52:16Z</time>
      </trkpt>
      <trkpt lat="43.80163" lon="7.37369">
        <ele>479.6</ele>
        <time>2013-12-01T10:52:26Z</time>
      </trkpt>
      <trkpt lat="43.80169" lon="7.37378">
        <ele>481.7</ele>
        <time>2013-12-01T10:52:35Z</time>
      </trkpt>
      <trkpt lat="43.80178" lon="7.374">
        <ele>486.1</ele>
        <time>2013-12-01T10:52:51Z</time>
      </trkpt>
      <trkpt lat="43.80181" lon="7.37414">
        <ele>486.3</ele>
        <time>2013-12-01T10:52:59Z</time>
      </trkpt>
      <trkpt lat="43.80183" lon="7.37428">
        <ele>487.5</ele>
        <time>2013-12-01T10:53:07Z</time>
      </trkpt>
      <trkpt lat="43.80185" lon="7.3744">
        <ele>489.5</ele>
        <time>2013-12-01T10:53:14Z</time>
      </trkpt>
      <trkpt lat="43.80186" lon="7.37454">
        <ele>489.8</ele>
        <time>2013-12-01T10:53:21Z</time>
      </trkpt>
      <trkpt lat="43.80185" lon="7.37467">
        <ele>491.2</ele>
        <time>2013-12-01T10:53:27Z</time>
      </trkpt>
      <trkpt lat="43.80185" lon="7.37481">
        <ele>493</ele>
        <time>2013-12-01T10:53:33Z</time>
      </trkpt>
      <trkpt lat="43.80188" lon="7.37495">
        <ele>494.1</ele>
        <time>2013-12-01T10:53:39Z</time>
      </trkpt>
      <trkpt lat="43.80194" lon="7.37519">
        <ele>496.6</ele>
        <time>2013-12-01T10:53:49Z</time>
      </trkpt>
      <trkpt lat="43.80199" lon="7.37531">
        <ele>498.7</ele>
        <time>2013-12-01T10:53:55Z</time>
      </trkpt>
      <trkpt lat="43.80206" lon="7.37539">
        <ele>500.3</ele>
        <time>2013-12-01T10:54:01Z</time>
      </trkpt>
      <trkpt lat="43.80215" lon="7.37546">
        <ele>499.2</ele>
        <time>2013-12-01T10:54:07Z</time>
      </trkpt>
      <trkpt lat="43.80223" lon="7.37549">
        <ele>499.2</ele>
        <time>2013-12-01T10:54:29Z</time>
      </trkpt>
      <trkpt lat="43.80233" lon="7.37543">
        <ele>501.9</ele>
        <time>2013-12-01T11:02:45Z</time>
      </trkpt>
      <trkpt lat="43.80248" lon="7.37528">
        <ele>502</ele>
        <time>2013-12-01T11:02:55Z</time>
      </trkpt>
      <trkpt lat="43.80255" lon="7.3752">
        <ele>503.8</ele>
        <time>2013-12-01T11:03:05Z</time>
      </trkpt>
      <trkpt lat="43.80263" lon="7.37513">
        <ele>506.6</ele>
        <time>2013-12-01T11:03:18Z</time>
      </trkpt>
      <trkpt lat="43.80271" lon="7.37505">
        <ele>510.3</ele>
        <time>2013-12-01T11:03:31Z</time>
      </trkpt>
      <trkpt lat="43.80278" lon="7.37497">
        <ele>513.2</ele>
        <time>2013-12-01T11:03:45Z</time>
      </trkpt>
      <trkpt lat="43.80285" lon="7.37489">
        <ele>515.7</ele>
        <time>2013-12-01T11:03:57Z</time>
      </trkpt>
      <trkpt lat="43.80301" lon="7.37474">
        <ele>519.1</ele>
        <time>2013-12-01T11:04:28Z</time>
      </trkpt>
      <trkpt lat="43.80308" lon="7.37467">
        <ele>519.2</ele>
        <time>2013-12-01T11:04:36Z</time>
      </trkpt>
      <trkpt lat="43.80317" lon="7.37461">
        <ele>521</ele>
        <time>2013-12-01T11:04:45Z</time>
      </trkpt>
      <trkpt lat="43.80326" lon="7.37454">
        <ele>521.4</ele>
        <time>2013-12-01T11:04:55Z</time>
      </trkpt>
      <trkpt lat="43.80335" lon="7.37448">
        <ele>523.4</ele>
        <time>2013-12-01T11:05:03Z</time>
      </trkpt>
      <trkpt lat="43.80353" lon="7.37436">
        <ele>524.9</ele>
        <time>2013-12-01T11:05:17Z</time>
      </trkpt>
      <trkpt lat="43.80361" lon="7.37429">
        <ele>526.5</ele>
        <time>2013-12-01T11:05:24Z</time>
      </trkpt>
      <trkpt lat="43.80369" lon="7.37423">
        <ele>526.1</ele>
        <time>2013-12-01T11:05:34Z</time>
      </trkpt>
      <trkpt lat="43.80378" lon="7.37417">
        <ele>526.4</ele>
        <time>2013-12-01T11:05:41Z</time>
      </trkpt>
      <trkpt lat="43.80388" lon="7.37412">
        <ele>526.8</ele>
        <time>2013-12-01T11:05:47Z</time>
      </trkpt>
      <trkpt lat="43.80397" lon="7.37407">
        <ele>526.8</ele>
        <time>2013-12-01T11:05:52Z</time>
      </trkpt>
      <trkpt lat="43.80406" lon="7.37403">
        <ele>527.5</ele>
        <time>2013-12-01T11:05:57Z</time>
      </trkpt>
      <trkpt lat="43.80415" lon="7.37398">
        <ele>526.7</ele>
        <time>2013-12-01T11:06:02Z</time>
      </trkpt>
      <trkpt lat="43.80424" lon="7.37391">
        <ele>526.7</ele>
        <time>2013-12-01T11:06:08Z</time>
      </trkpt>
      <trkpt lat="43.80443" lon="7.37383">
        <ele>527.3</ele>
        <time>2013-12-01T11:06:19Z</time>
      </trkpt>
      <trkpt lat="43.80453" lon="7.37377">
        <ele>527.2</ele>
        <time>2013-12-01T11:06:24Z</time>
      </trkpt>
      <trkpt lat="43.80462" lon="7.37369">
        <ele>527.4</ele>
        <time>2013-12-01T11:06:29Z</time>
      </trkpt>
      <trkpt lat="43.80471" lon="7.37362">
        <ele>527</ele>
        <time>2013-12-01T11:06:34Z</time>
      </trkpt>
      <trkpt lat="43.80479" lon="7.37353">
        <ele>527.4</ele>
        <time>2013-12-01T11:06:39Z</time>
      </trkpt>
      <trkpt lat="43.80486" lon="7.37347">
        <ele>527.9</ele>
        <time>2013-12-01T11:06:43Z</time>
      </trkpt>
      <trkpt lat="43.80494" lon="7.37336">
        <ele>529.1</ele>
        <time>2013-12-01T11:06:48Z</time>
      </trkpt>
      <trkpt lat="43.80502" lon="7.37328">
        <ele>528.4</ele>
        <time>2013-12-01T11:06:53Z</time>
      </trkpt>
      <trkpt lat="43.80512" lon="7.37323">
        <ele>527.5</ele>
        <time>2013-12-01T11:06:58Z</time>
      </trkpt>
      <trkpt lat="43.80522" lon="7.37317">
        <ele>528.2</ele>
        <time>2013-12-01T11:07:03Z</time>
      </trkpt>
      <trkpt lat="43.80531" lon="7.37311">
        <ele>528.5</ele>
        <time>2013-12-01T11:07:07Z</time>
      </trkpt>
      <trkpt lat="43.80541" lon="7.37306">
        <ele>528.5</ele>
        <time>2013-12-01T11:07:11Z</time>
      </trkpt>
      <trkpt lat="43.80557" lon="7.37288">
        <ele>527.4</ele>
        <time>2013-12-01T11:07:19Z</time>
      </trkpt>
      <trkpt lat="43.80565" lon="7.37275">
        <ele>527.7</ele>
        <time>2013-12-01T11:07:23Z</time>
      </trkpt>
      <trkpt lat="43.8057" lon="7.37263">
        <ele>528.3</ele>
        <time>2013-12-01T11:07:27Z</time>
      </trkpt>
      <trkpt lat="43.80576" lon="7.37252">
        <ele>527.6</ele>
        <time>2013-12-01T11:07:31Z</time>
      </trkpt>
      <trkpt lat="43.80581" lon="7.37241">
        <ele>528.7</ele>
        <time>2013-12-01T11:07:35Z</time>
      </trkpt>
      <trkpt lat="43.80587" lon="7.37232">
        <ele>529.8</ele>
        <time>2013-12-01T11:07:39Z</time>
      </trkpt>
      <trkpt lat="43.80595" lon="7.37222">
        <ele>529.2</ele>
        <time>2013-12-01T11:07:44Z</time>
      </trkpt>
      <trkpt lat="43.80602" lon="7.37213">
        <ele>528.9</ele>
        <time>2013-12-01T11:07:48Z</time>
      </trkpt>
      <trkpt lat="43.80609" lon="7.37205">
        <ele>529.1</ele>
        <time>2013-12-01T11:07:52Z</time>
      </trkpt>
      <trkpt lat="43.80617" lon="7.37197">
        <ele>529.1</ele>
        <time>2013-12-01T11:07:56Z</time>
      </trkpt>
      <trkpt lat="43.80625" lon="7.37187">
        <ele>528.6</ele>
        <time>2013-12-01T11:08:00Z</time>
      </trkpt>
      <trkpt lat="43.80632" lon="7.37178">
        <ele>527.6</ele>
        <time>2013-12-01T11:08:03Z</time>
      </trkpt>
      <trkpt lat="43.80639" lon="7.37167">
        <ele>527.5</ele>
        <time>2013-12-01T11:08:06Z</time>
      </trkpt>
      <trkpt lat="43.80646" lon="7.37159">
        <ele>527.4</ele>
        <time>2013-12-01T11:08:09Z</time>
      </trkpt>
      <trkpt lat="43.80654" lon="7.37149">
        <ele>526.9</ele>
        <time>2013-12-01T11:08:13Z</time>
      </trkpt>
      <trkpt lat="43.8067" lon="7.37134">
        <ele>528.7</ele>
        <time>2013-12-01T11:08:23Z</time>
      </trkpt>
      <trkpt lat="43.80679" lon="7.37128">
        <ele>529.5</ele>
        <time>2013-12-01T11:08:29Z</time>
      </trkpt>
      <trkpt lat="43.80686" lon="7.37121">
        <ele>531.1</ele>
        <time>2013-12-01T11:08:35Z</time>
      </trkpt>
      <trkpt lat="43.80695" lon="7.37115">
        <ele>532.8</ele>
        <time>2013-12-01T11:08:42Z</time>
      </trkpt>
      <trkpt lat="43.80704" lon="7.3711">
        <ele>535.2</ele>
        <time>2013-12-01T11:08:49Z</time>
      </trkpt>
      <trkpt lat="43.80713" lon="7.37106">
        <ele>536.8</ele>
        <time>2013-12-01T11:08:56Z</time>
      </trkpt>
      <trkpt lat="43.80722" lon="7.37099">
        <ele>538.3</ele>
        <time>2013-12-01T11:09:03Z</time>
      </trkpt>
      <trkpt lat="43.80731" lon="7.37093">
        <ele>540.4</ele>
        <time>2013-12-01T11:09:10Z</time>
      </trkpt>
      <trkpt lat="43.80739" lon="7.37088">
        <ele>539.7</ele>
        <time>2013-12-01T11:09:17Z</time>
      </trkpt>
      <trkpt lat="43.80758" lon="7.3708">
        <ele>542.5</ele>
        <time>2013-12-01T11:09:31Z</time>
      </trkpt>
      <trkpt lat="43.80768" lon="7.37079">
        <ele>544.4</ele>
        <time>2013-12-01T11:09:38Z</time>
      </trkpt>
      <trkpt lat="43.80777" lon="7.37078">
        <ele>544.7</ele>
        <time>2013-12-01T11:09:44Z</time>
      </trkpt>
      <trkpt lat="43.80786" lon="7.37077">
        <ele>545.3</ele>
        <time>2013-12-01T11:09:50Z</time>
      </trkpt>
      <trkpt lat="43.80795" lon="7.37076">
        <ele>546.4</ele>
        <time>2013-12-01T11:09:56Z</time>
      </trkpt>
      <trkpt lat="43.80805" lon="7.37074">
        <ele>546</ele>
        <time>2013-12-01T11:10:03Z</time>
      </trkpt>
      <trkpt lat="43.80814" lon="7.37071">
        <ele>547.6</ele>
        <time>2013-12-01T11:10:10Z</time>
      </trkpt>
      <trkpt lat="43.80823" lon="7.37069">
        <ele>548.1</ele>
        <time>2013-12-01T11:10:15Z</time>
      </trkpt>
      <trkpt lat="43.80833" lon="7.37067">
        <ele>547.8</ele>
        <time>2013-12-01T11:10:20Z</time>
      </trkpt>
      <trkpt lat="43.80854" lon="7.37063">
        <ele>547.8</ele>
        <time>2013-12-01T11:10:30Z</time>
      </trkpt>
      <trkpt lat="43.80863" lon="7.37062">
        <ele>547.7</ele>
        <time>2013-12-01T11:10:34Z</time>
      </trkpt>
      <trkpt lat="43.80874" lon="7.3706">
        <ele>548.8</ele>
        <time>2013-12-01T11:10:39Z</time>
      </trkpt>
      <trkpt lat="43.80884" lon="7.37059">
        <ele>548.5</ele>
        <time>2013-12-01T11:10:44Z</time>
      </trkpt>
      <trkpt lat="43.80894" lon="7.37058">
        <ele>548.5</ele>
        <time>2013-12-01T11:10:49Z</time>
      </trkpt>
      <trkpt lat="43.80904" lon="7.37056">
        <ele>548.5</ele>
        <time>2013-12-01T11:10:54Z</time>
      </trkpt>
      <trkpt lat="43.80914" lon="7.37054">
        <ele>549.9</ele>
        <time>2013-12-01T11:10:59Z</time>
      </trkpt>
      <trkpt lat="43.80925" lon="7.37051">
        <ele>549.6</ele>
        <time>2013-12-01T11:11:04Z</time>
      </trkpt>
      <trkpt lat="43.80935" lon="7.37048">
        <ele>549.8</ele>
        <time>2013-12-01T11:11:08Z</time>
      </trkpt>
      <trkpt lat="43.80946" lon="7.37046">
        <ele>549.6</ele>
        <time>2013-12-01T11:11:12Z</time>
      </trkpt>
      <trkpt lat="43.80957" lon="7.37042">
        <ele>548.4</ele>
        <time>2013-12-01T11:11:16Z</time>
      </trkpt>
      <trkpt lat="43.80968" lon="7.3704">
        <ele>548.8</ele>
        <time>2013-12-01T11:11:20Z</time>
      </trkpt>
      <trkpt lat="43.8098" lon="7.37037">
        <ele>548.7</ele>
        <time>2013-12-01T11:11:24Z</time>
      </trkpt>
      <trkpt lat="43.81001" lon="7.37038">
        <ele>548.5</ele>
        <time>2013-12-01T11:11:32Z</time>
      </trkpt>
      <trkpt lat="43.8101" lon="7.37039">
        <ele>548.5</ele>
        <time>2013-12-01T11:11:36Z</time>
      </trkpt>
      <trkpt lat="43.81021" lon="7.37038">
        <ele>548.9</ele>
        <time>2013-12-01T11:11:41Z</time>
      </trkpt>
      <trkpt lat="43.81031" lon="7.37036">
        <ele>548.6</ele>
        <time>2013-12-01T11:11:46Z</time>
      </trkpt>
      <trkpt lat="43.81041" lon="7.37032">
        <ele>549.8</ele>
        <time>2013-12-01T11:11:51Z</time>
      </trkpt>
      <trkpt lat="43.81049" lon="7.37028">
        <ele>550.9</ele>
        <time>2013-12-01T11:11:56Z</time>
      </trkpt>
      <trkpt lat="43.81059" lon="7.37023">
        <ele>552.7</ele>
        <time>2013-12-01T11:12:02Z</time>
      </trkpt>
      <trkpt lat="43.81068" lon="7.37017">
        <ele>552.8</ele>
        <time>2013-12-01T11:12:08Z</time>
      </trkpt>
      <trkpt lat="43.81078" lon="7.37012">
        <ele>554</ele>
        <time>2013-12-01T11:12:14Z</time>
      </trkpt>
      <trkpt lat="43.81088" lon="7.37009">
        <ele>554.8</ele>
        <time>2013-12-01T11:12:20Z</time>
      </trkpt>
      <trkpt lat="43.81098" lon="7.37006">
        <ele>556.4</ele>
        <time>2013-12-01T11:12:26Z</time>
      </trkpt>
      <trkpt lat="43.81118" lon="7.37003">
        <ele>558.6</ele>
        <time>2013-12-01T11:12:39Z</time>
      </trkpt>
      <trkpt lat="43.81128" lon="7.37001">
        <ele>561.7</ele>
        <time>2013-12-01T11:12:46Z</time>
      </trkpt>
      <trkpt lat="43.81138" lon="7.37">
        <ele>563.7</ele>
        <time>2013-12-01T11:12:53Z</time>
      </trkpt>
      <trkpt lat="43.81148" lon="7.36998">
        <ele>564.8</ele>
        <time>2013-12-01T11:13:00Z</time>
      </trkpt>
      <trkpt lat="43.81158" lon="7.36996">
        <ele>566.7</ele>
        <time>2013-12-01T11:13:07Z</time>
      </trkpt>
      <trkpt lat="43.81168" lon="7.36993">
        <ele>567.7</ele>
        <time>2013-12-01T11:13:14Z</time>
      </trkpt>
      <trkpt lat="43.81177" lon="7.36989">
        <ele>570.1</ele>
        <time>2013-12-01T11:13:22Z</time>
      </trkpt>
      <trkpt lat="43.81186" lon="7.36983">
        <ele>570.7</ele>
        <time>2013-12-01T11:13:31Z</time>
      </trkpt>
      <trkpt lat="43.81204" lon="7.36972">
        <ele>574.4</ele>
        <time>2013-12-01T11:13:49Z</time>
      </trkpt>
      <trkpt lat="43.81212" lon="7.36967">
        <ele>575.7</ele>
        <time>2013-12-01T11:13:58Z</time>
      </trkpt>
      <trkpt lat="43.81221" lon="7.36962">
        <ele>576.6</ele>
        <time>2013-12-01T11:14:07Z</time>
      </trkpt>
      <trkpt lat="43.81229" lon="7.36957">
        <ele>577.5</ele>
        <time>2013-12-01T11:14:15Z</time>
      </trkpt>
      <trkpt lat="43.81238" lon="7.36951">
        <ele>577.3</ele>
        <time>2013-12-01T11:14:23Z</time>
      </trkpt>
      <trkpt lat="43.81247" lon="7.36948">
        <ele>578.8</ele>
        <time>2013-12-01T11:14:31Z</time>
      </trkpt>
      <trkpt lat="43.81257" lon="7.36946">
        <ele>580</ele>
        <time>2013-12-01T11:14:39Z</time>
      </trkpt>
      <trkpt lat="43.81276" lon="7.36944">
        <ele>582.8</ele>
        <time>2013-12-01T11:14:55Z</time>
      </trkpt>
      <trkpt lat="43.81285" lon="7.36943">
        <ele>585.1</ele>
        <time>2013-12-01T11:15:03Z</time>
      </trkpt>
      <trkpt lat="43.81295" lon="7.36941">
        <ele>586</ele>
        <time>2013-12-01T11:15:11Z</time>
      </trkpt>
      <trkpt lat="43.81304" lon="7.36938">
        <ele>587.2</ele>
        <time>2013-12-01T11:15:18Z</time>
      </trkpt>
      <trkpt lat="43.81313" lon="7.36935">
        <ele>589.8</ele>
        <time>2013-12-01T11:15:26Z</time>
      </trkpt>
      <trkpt lat="43.81323" lon="7.36931">
        <ele>590.6</ele>
        <time>2013-12-01T11:15:34Z</time>
      </trkpt>
      <trkpt lat="43.81332" lon="7.36925">
        <ele>592.4</ele>
        <time>2013-12-01T11:15:41Z</time>
      </trkpt>
      <trkpt lat="43.81347" lon="7.36909">
        <ele>595.4</ele>
        <time>2013-12-01T11:15:55Z</time>
      </trkpt>
      <trkpt lat="43.81352" lon="7.36899">
        <ele>597.5</ele>
        <time>2013-12-01T11:16:02Z</time>
      </trkpt>
      <trkpt lat="43.81359" lon="7.3689">
        <ele>598.8</ele>
        <time>2013-12-01T11:16:09Z</time>
      </trkpt>
      <trkpt lat="43.81367" lon="7.36882">
        <ele>599.9</ele>
        <time>2013-12-01T11:16:16Z</time>
      </trkpt>
      <trkpt lat="43.81374" lon="7.36874">
        <ele>601.3</ele>
        <time>2013-12-01T11:16:23Z</time>
      </trkpt>
      <trkpt lat="43.81382" lon="7.36866">
        <ele>603</ele>
        <time>2013-12-01T11:16:29Z</time>
      </trkpt>
      <trkpt lat="43.81389" lon="7.36859">
        <ele>603.4</ele>
        <time>2013-12-01T11:16:35Z</time>
      </trkpt>
      <trkpt lat="43.81397" lon="7.3685">
        <ele>604.1</ele>
        <time>2013-12-01T11:16:42Z</time>
      </trkpt>
      <trkpt lat="43.81413" lon="7.36835">
        <ele>605.5</ele>
        <time>2013-12-01T11:16:55Z</time>
      </trkpt>
      <trkpt lat="43.81422" lon="7.36831">
        <ele>608</ele>
        <time>2013-12-01T11:17:02Z</time>
      </trkpt>
      <trkpt lat="43.81431" lon="7.36827">
        <ele>609.6</ele>
        <time>2013-12-01T11:17:09Z</time>
      </trkpt>
      <trkpt lat="43.8144" lon="7.36823">
        <ele>611.7</ele>
        <time>2013-12-01T11:17:16Z</time>
      </trkpt>
      <trkpt lat="43.81449" lon="7.3682">
        <ele>613.4</ele>
        <time>2013-12-01T11:17:23Z</time>
      </trkpt>
      <trkpt lat="43.81459" lon="7.36816">
        <ele>613</ele>
        <time>2013-12-01T11:17:29Z</time>
      </trkpt>
      <trkpt lat="43.81468" lon="7.36812">
        <ele>613.8</ele>
        <time>2013-12-01T11:17:34Z</time>
      </trkpt>
      <trkpt lat="43.81478" lon="7.36808">
        <ele>614.8</ele>
        <time>2013-12-01T11:17:39Z</time>
      </trkpt>
      <trkpt lat="43.81488" lon="7.36808">
        <ele>616.3</ele>
        <time>2013-12-01T11:17:44Z</time>
      </trkpt>
      <trkpt lat="43.81507" lon="7.36811">
        <ele>618.5</ele>
        <time>2013-12-01T11:17:54Z</time>
      </trkpt>
      <trkpt lat="43.81516" lon="7.36807">
        <ele>620.2</ele>
        <time>2013-12-01T11:17:59Z</time>
      </trkpt>
      <trkpt lat="43.81524" lon="7.36797">
        <ele>620.6</ele>
        <time>2013-12-01T11:18:04Z</time>
      </trkpt>
      <trkpt lat="43.81533" lon="7.3679">
        <ele>620.8</ele>
        <time>2013-12-01T11:18:08Z</time>
      </trkpt>
      <trkpt lat="43.81541" lon="7.36783">
        <ele>621.8</ele>
        <time>2013-12-01T11:18:12Z</time>
      </trkpt>
      <trkpt lat="43.81551" lon="7.36774">
        <ele>622.7</ele>
        <time>2013-12-01T11:18:16Z</time>
      </trkpt>
      <trkpt lat="43.8156" lon="7.36765">
        <ele>623.1</ele>
        <time>2013-12-01T11:18:19Z</time>
      </trkpt>
      <trkpt lat="43.81569" lon="7.36754">
        <ele>623</ele>
        <time>2013-12-01T11:18:22Z</time>
      </trkpt>
      <trkpt lat="43.81579" lon="7.36743">
        <ele>623.3</ele>
        <time>2013-12-01T11:18:25Z</time>
      </trkpt>
      <trkpt lat="43.81589" lon="7.36732">
        <ele>622</ele>
        <time>2013-12-01T11:18:28Z</time>
      </trkpt>
      <trkpt lat="43.816" lon="7.36722">
        <ele>621.2</ele>
        <time>2013-12-01T11:18:31Z</time>
      </trkpt>
      <trkpt lat="43.81608" lon="7.36716">
        <ele>621.8</ele>
        <time>2013-12-01T11:18:33Z</time>
      </trkpt>
      <trkpt lat="43.81616" lon="7.36709">
        <ele>621.4</ele>
        <time>2013-12-01T11:18:35Z</time>
      </trkpt>
      <trkpt lat="43.81625" lon="7.36702">
        <ele>620.6</ele>
        <time>2013-12-01T11:18:37Z</time>
      </trkpt>
      <trkpt lat="43.81634" lon="7.36697">
        <ele>620.1</ele>
        <time>2013-12-01T11:18:39Z</time>
      </trkpt>
      <trkpt lat="43.81645" lon="7.36688">
        <ele>619.9</ele>
        <time>2013-12-01T11:18:42Z</time>
      </trkpt>
      <trkpt lat="43.81653" lon="7.36681">
        <ele>619.9</ele>
        <time>2013-12-01T11:18:44Z</time>
      </trkpt>
      <trkpt lat="43.81662" lon="7.36673">
        <ele>619.6</ele>
        <time>2013-12-01T11:18:46Z</time>
      </trkpt>
      <trkpt lat="43.81681" lon="7.36657">
        <ele>619.9</ele>
        <time>2013-12-01T11:18:50Z</time>
      </trkpt>
      <trkpt lat="43.81693" lon="7.36649">
        <ele>618.8</ele>
        <time>2013-12-01T11:18:52Z</time>
      </trkpt>
      <trkpt lat="43.81704" lon="7.36642">
        <ele>618.2</ele>
        <time>2013-12-01T11:18:54Z</time>
      </trkpt>
      <trkpt lat="43.81715" lon="7.36636">
        <ele>617.8</ele>
        <time>2013-12-01T11:18:56Z</time>
      </trkpt>
      <trkpt lat="43.81725" lon="7.36629">
        <ele>617.7</ele>
        <time>2013-12-01T11:18:58Z</time>
      </trkpt>
      <trkpt lat="43.81734" lon="7.36622">
        <ele>617.8</ele>
        <time>2013-12-01T11:19:00Z</time>
      </trkpt>
      <trkpt lat="43.81742" lon="7.36615">
        <ele>617.5</ele>
        <time>2013-12-01T11:19:02Z</time>
      </trkpt>
      <trkpt lat="43.8175" lon="7.36609">
        <ele>617.6</ele>
        <time>2013-12-01T11:19:04Z</time>
      </trkpt>
      <trkpt lat="43.81761" lon="7.366">
        <ele>617.9</ele>
        <time>2013-12-01T11:19:07Z</time>
      </trkpt>
      <trkpt lat="43.81768" lon="7.36588">
        <ele>618.2</ele>
        <time>2013-12-01T11:19:10Z</time>
      </trkpt>
      <trkpt lat="43.81776" lon="7.36577">
        <ele>618.8</ele>
        <time>2013-12-01T11:19:13Z</time>
      </trkpt>
      <trkpt lat="43.81783" lon="7.36567">
        <ele>619.5</ele>
        <time>2013-12-01T11:19:16Z</time>
      </trkpt>
      <trkpt lat="43.81789" lon="7.36556">
        <ele>620.1</ele>
        <time>2013-12-01T11:19:19Z</time>
      </trkpt>
      <trkpt lat="43.81797" lon="7.36546">
        <ele>619.8</ele>
        <time>2013-12-01T11:19:22Z</time>
      </trkpt>
      <trkpt lat="43.81807" lon="7.36543">
        <ele>620.8</ele>
        <time>2013-12-01T11:19:26Z</time>
      </trkpt>
      <trkpt lat="43.81809" lon="7.36555">
        <ele>621.4</ele>
        <time>2013-12-01T11:19:30Z</time>
      </trkpt>
      <trkpt lat="43.81805" lon="7.36567">
        <ele>621.1</ele>
        <time>2013-12-01T11:19:35Z</time>
      </trkpt>
      <trkpt lat="43.81802" lon="7.36579">
        <ele>623.3</ele>
        <time>2013-12-01T11:19:42Z</time>
      </trkpt>
      <trkpt lat="43.81799" lon="7.36592">
        <ele>625.2</ele>
        <time>2013-12-01T11:19:51Z</time>
      </trkpt>
      <trkpt lat="43.81787" lon="7.36571">
        <ele>626.1</ele>
        <time>2013-12-01T11:20:06Z</time>
      </trkpt>
      <trkpt lat="43.81788" lon="7.36557">
        <ele>622.6</ele>
        <time>2013-12-01T11:20:11Z</time>
      </trkpt>
      <trkpt lat="43.81795" lon="7.36546">
        <ele>620.8</ele>
        <time>2013-12-01T11:20:17Z</time>
      </trkpt>
      <trkpt lat="43.81803" lon="7.3654">
        <ele>620.7</ele>
        <time>2013-12-01T11:20:22Z</time>
      </trkpt>
      <trkpt lat="43.8181" lon="7.3655">
        <ele>622</ele>
        <time>2013-12-01T11:20:28Z</time>
      </trkpt>
      <trkpt lat="43.81807" lon="7.36562">
        <ele>622.5</ele>
        <time>2013-12-01T11:20:33Z</time>
      </trkpt>
      <trkpt lat="43.81806" lon="7.36575">
        <ele>622.1</ele>
        <time>2013-12-01T11:20:39Z</time>
      </trkpt>
      <trkpt lat="43.81801" lon="7.36585">
        <ele>625.1</ele>
        <time>2013-12-01T11:20:47Z</time>
      </trkpt>
      <trkpt lat="43.81797" lon="7.36597">
        <ele>627.3</ele>
        <time>2013-12-01T11:20:56Z</time>
      </trkpt>
      <trkpt lat="43.81788" lon="7.36566">
        <ele>624.8</ele>
        <time>2013-12-01T11:21:18Z</time>
      </trkpt>
      <trkpt lat="43.81792" lon="7.36553">
        <ele>622</ele>
        <time>2013-12-01T11:21:22Z</time>
      </trkpt>
      <trkpt lat="43.81799" lon="7.36543">
        <ele>621.1</ele>
        <time>2013-12-01T11:21:27Z</time>
      </trkpt>
      <trkpt lat="43.81807" lon="7.36536">
        <ele>621.5</ele>
        <time>2013-12-01T11:21:32Z</time>
      </trkpt>
      <trkpt lat="43.81812" lon="7.36548">
        <ele>622.2</ele>
        <time>2013-12-01T11:21:38Z</time>
      </trkpt>
      <trkpt lat="43.81805" lon="7.36558">
        <ele>622.6</ele>
        <time>2013-12-01T11:21:45Z</time>
      </trkpt>
      <trkpt lat="43.81794" lon="7.36559">
        <ele>622.4</ele>
        <time>2013-12-01T11:21:52Z</time>
      </trkpt>
      <trkpt lat="43.81786" lon="7.36566">
        <ele>622.5</ele>
        <time>2013-12-01T11:27:03Z</time>
      </trkpt>
      <trkpt lat="43.81802" lon="7.36578">
        <ele>594.5</ele>
        <time>2013-12-01T11:59:55Z</time>
      </trkpt>
      <trkpt lat="43.81795" lon="7.36589">
        <ele>595.8</ele>
        <time>2013-12-01T12:00:01Z</time>
      </trkpt>
      <trkpt lat="43.81792" lon="7.366">
        <ele>598.2</ele>
        <time>2013-12-01T12:00:07Z</time>
      </trkpt>
      <trkpt lat="43.81786" lon="7.36611">
        <ele>599.9</ele>
        <time>2013-12-01T12:00:13Z</time>
      </trkpt>
      <trkpt lat="43.81792" lon="7.36598">
        <ele>601.2</ele>
        <time>2013-12-01T12:00:30Z</time>
      </trkpt>
      <trkpt lat="43.81786" lon="7.36582">
        <ele>600.4</ele>
        <time>2013-12-01T12:00:33Z</time>
      </trkpt>
      <trkpt lat="43.81786" lon="7.36569">
        <ele>595.6</ele>
        <time>2013-12-01T12:00:37Z</time>
      </trkpt>
      <trkpt lat="43.81795" lon="7.3657">
        <ele>592.4</ele>
        <time>2013-12-01T12:01:12Z</time>
      </trkpt>
      <trkpt lat="43.81807" lon="7.36535">
        <ele>592.8</ele>
        <time>2013-12-01T12:08:53Z</time>
      </trkpt>
      <trkpt lat="43.81813" lon="7.36523">
        <ele>592.4</ele>
        <time>2013-12-01T12:08:59Z</time>
      </trkpt>
      <trkpt lat="43.81818" lon="7.36513">
        <ele>592.7</ele>
        <time>2013-12-01T12:09:04Z</time>
      </trkpt>
      <trkpt lat="43.81825" lon="7.36502">
        <ele>592.7</ele>
        <time>2013-12-01T12:09:08Z</time>
      </trkpt>
      <trkpt lat="43.81831" lon="7.36491">
        <ele>592.1</ele>
        <time>2013-12-01T12:09:11Z</time>
      </trkpt>
      <trkpt lat="43.81839" lon="7.36479">
        <ele>591.9</ele>
        <time>2013-12-01T12:09:14Z</time>
      </trkpt>
      <trkpt lat="43.81846" lon="7.36469">
        <ele>590.3</ele>
        <time>2013-12-01T12:09:17Z</time>
      </trkpt>
      <trkpt lat="43.81855" lon="7.36459">
        <ele>590</ele>
        <time>2013-12-01T12:09:21Z</time>
      </trkpt>
      <trkpt lat="43.81864" lon="7.36453">
        <ele>590.3</ele>
        <time>2013-12-01T12:09:24Z</time>
      </trkpt>
      <trkpt lat="43.81874" lon="7.36445">
        <ele>590.3</ele>
        <time>2013-12-01T12:09:28Z</time>
      </trkpt>
      <trkpt lat="43.81885" lon="7.36438">
        <ele>590.2</ele>
        <time>2013-12-01T12:09:31Z</time>
      </trkpt>
      <trkpt lat="43.81893" lon="7.36432">
        <ele>590.1</ele>
        <time>2013-12-01T12:09:33Z</time>
      </trkpt>
      <trkpt lat="43.819" lon="7.36423">
        <ele>588.7</ele>
        <time>2013-12-01T12:09:35Z</time>
      </trkpt>
      <trkpt lat="43.81909" lon="7.36415">
        <ele>588.1</ele>
        <time>2013-12-01T12:09:37Z</time>
      </trkpt>
      <trkpt lat="43.81919" lon="7.36408">
        <ele>587.8</ele>
        <time>2013-12-01T12:09:39Z</time>
      </trkpt>
      <trkpt lat="43.81927" lon="7.36406">
        <ele>587.4</ele>
        <time>2013-12-01T12:09:41Z</time>
      </trkpt>
      <trkpt lat="43.81938" lon="7.36404">
        <ele>587.2</ele>
        <time>2013-12-01T12:09:45Z</time>
      </trkpt>
      <trkpt lat="43.81957" lon="7.36405">
        <ele>590</ele>
        <time>2013-12-01T12:09:58Z</time>
      </trkpt>
      <trkpt lat="43.81966" lon="7.36404">
        <ele>590.9</ele>
        <time>2013-12-01T12:10:05Z</time>
      </trkpt>
      <trkpt lat="43.81975" lon="7.36398">
        <ele>592.7</ele>
        <time>2013-12-01T12:10:12Z</time>
      </trkpt>
      <trkpt lat="43.81982" lon="7.36391">
        <ele>592.7</ele>
        <time>2013-12-01T12:10:19Z</time>
      </trkpt>
      <trkpt lat="43.8199" lon="7.36384">
        <ele>594.8</ele>
        <time>2013-12-01T12:10:26Z</time>
      </trkpt>
      <trkpt lat="43.81999" lon="7.36377">
        <ele>595.3</ele>
        <time>2013-12-01T12:10:35Z</time>
      </trkpt>
      <trkpt lat="43.82007" lon="7.36373">
        <ele>596.9</ele>
        <time>2013-12-01T12:10:43Z</time>
      </trkpt>
      <trkpt lat="43.82016" lon="7.36369">
        <ele>598.6</ele>
        <time>2013-12-01T12:10:51Z</time>
      </trkpt>
      <trkpt lat="43.82035" lon="7.36364">
        <ele>599.5</ele>
        <time>2013-12-01T12:11:07Z</time>
      </trkpt>
      <trkpt lat="43.82044" lon="7.36364">
        <ele>601.3</ele>
        <time>2013-12-01T12:11:14Z</time>
      </trkpt>
      <trkpt lat="43.82055" lon="7.36364">
        <ele>602.2</ele>
        <time>2013-12-01T12:11:22Z</time>
      </trkpt>
      <trkpt lat="43.82064" lon="7.36366">
        <ele>603.4</ele>
        <time>2013-12-01T12:11:30Z</time>
      </trkpt>
      <trkpt lat="43.82074" lon="7.36369">
        <ele>604.5</ele>
        <time>2013-12-01T12:11:38Z</time>
      </trkpt>
      <trkpt lat="43.82083" lon="7.36372">
        <ele>605.2</ele>
        <time>2013-12-01T12:11:45Z</time>
      </trkpt>
      <trkpt lat="43.82093" lon="7.36375">
        <ele>606.6</ele>
        <time>2013-12-01T12:11:52Z</time>
      </trkpt>
      <trkpt lat="43.82112" lon="7.36373">
        <ele>608.1</ele>
        <time>2013-12-01T12:12:06Z</time>
      </trkpt>
      <trkpt lat="43.82121" lon="7.36367">
        <ele>609.9</ele>
        <time>2013-12-01T12:12:13Z</time>
      </trkpt>
      <trkpt lat="43.8213" lon="7.36359">
        <ele>610.5</ele>
        <time>2013-12-01T12:12:20Z</time>
      </trkpt>
      <trkpt lat="43.82138" lon="7.36351">
        <ele>611.8</ele>
        <time>2013-12-01T12:12:27Z</time>
      </trkpt>
      <trkpt lat="43.82147" lon="7.36344">
        <ele>612.5</ele>
        <time>2013-12-01T12:12:34Z</time>
      </trkpt>
      <trkpt lat="43.82154" lon="7.36336">
        <ele>614.9</ele>
        <time>2013-12-01T12:12:41Z</time>
      </trkpt>
      <trkpt lat="43.82145" lon="7.36332">
        <ele>615.5</ele>
        <time>2013-12-01T12:12:51Z</time>
      </trkpt>
      <trkpt lat="43.82136" lon="7.36337">
        <ele>616.1</ele>
        <time>2013-12-01T12:12:59Z</time>
      </trkpt>
      <trkpt lat="43.82117" lon="7.36345">
        <ele>617</ele>
        <time>2013-12-01T12:13:13Z</time>
      </trkpt>
      <trkpt lat="43.82107" lon="7.36347">
        <ele>617.3</ele>
        <time>2013-12-01T12:13:20Z</time>
      </trkpt>
      <trkpt lat="43.82109" lon="7.36334">
        <ele>619.4</ele>
        <time>2013-12-01T12:13:33Z</time>
      </trkpt>
      <trkpt lat="43.82117" lon="7.36327">
        <ele>620.4</ele>
        <time>2013-12-01T12:13:41Z</time>
      </trkpt>
      <trkpt lat="43.82124" lon="7.36317">
        <ele>622.3</ele>
        <time>2013-12-01T12:13:48Z</time>
      </trkpt>
      <trkpt lat="43.82131" lon="7.36306">
        <ele>622.5</ele>
        <time>2013-12-01T12:13:55Z</time>
      </trkpt>
      <trkpt lat="43.82139" lon="7.36297">
        <ele>623.5</ele>
        <time>2013-12-01T12:14:02Z</time>
      </trkpt>
      <trkpt lat="43.82158" lon="7.36286">
        <ele>625.7</ele>
        <time>2013-12-01T12:14:16Z</time>
      </trkpt>
      <trkpt lat="43.82168" lon="7.36283">
        <ele>626.7</ele>
        <time>2013-12-01T12:14:24Z</time>
      </trkpt>
      <trkpt lat="43.82178" lon="7.36283">
        <ele>629.5</ele>
        <time>2013-12-01T12:14:32Z</time>
      </trkpt>
      <trkpt lat="43.82187" lon="7.36283">
        <ele>630.4</ele>
        <time>2013-12-01T12:14:39Z</time>
      </trkpt>
      <trkpt lat="43.82198" lon="7.36281">
        <ele>631</ele>
        <time>2013-12-01T12:14:46Z</time>
      </trkpt>
      <trkpt lat="43.82207" lon="7.36277">
        <ele>632.4</ele>
        <time>2013-12-01T12:14:53Z</time>
      </trkpt>
      <trkpt lat="43.82216" lon="7.36272">
        <ele>634.4</ele>
        <time>2013-12-01T12:15:01Z</time>
      </trkpt>
      <trkpt lat="43.82226" lon="7.36266">
        <ele>634.6</ele>
        <time>2013-12-01T12:15:08Z</time>
      </trkpt>
      <trkpt lat="43.82242" lon="7.36256">
        <ele>636.4</ele>
        <time>2013-12-01T12:15:20Z</time>
      </trkpt>
      <trkpt lat="43.82251" lon="7.36249">
        <ele>637.8</ele>
        <time>2013-12-01T12:15:26Z</time>
      </trkpt>
      <trkpt lat="43.8226" lon="7.36242">
        <ele>637.2</ele>
        <time>2013-12-01T12:15:32Z</time>
      </trkpt>
      <trkpt lat="43.82269" lon="7.36236">
        <ele>637.2</ele>
        <time>2013-12-01T12:15:38Z</time>
      </trkpt>
      <trkpt lat="43.82279" lon="7.36231">
        <ele>638</ele>
        <time>2013-12-01T12:15:43Z</time>
      </trkpt>
      <trkpt lat="43.82289" lon="7.36226">
        <ele>637.4</ele>
        <time>2013-12-01T12:15:47Z</time>
      </trkpt>
      <trkpt lat="43.82299" lon="7.36222">
        <ele>637</ele>
        <time>2013-12-01T12:15:51Z</time>
      </trkpt>
      <trkpt lat="43.82307" lon="7.36216">
        <ele>636.6</ele>
        <time>2013-12-01T12:15:54Z</time>
      </trkpt>
      <trkpt lat="43.82316" lon="7.3621">
        <ele>636.7</ele>
        <time>2013-12-01T12:15:57Z</time>
      </trkpt>
      <trkpt lat="43.82325" lon="7.36203">
        <ele>636.3</ele>
        <time>2013-12-01T12:16:00Z</time>
      </trkpt>
      <trkpt lat="43.82333" lon="7.36195">
        <ele>635</ele>
        <time>2013-12-01T12:16:03Z</time>
      </trkpt>
      <trkpt lat="43.82341" lon="7.36183">
        <ele>634.5</ele>
        <time>2013-12-01T12:16:06Z</time>
      </trkpt>
      <trkpt lat="43.82348" lon="7.3617">
        <ele>634.7</ele>
        <time>2013-12-01T12:16:09Z</time>
      </trkpt>
      <trkpt lat="43.82361" lon="7.3614">
        <ele>633</ele>
        <time>2013-12-01T12:16:15Z</time>
      </trkpt>
      <trkpt lat="43.82367" lon="7.3613">
        <ele>632.5</ele>
        <time>2013-12-01T12:16:20Z</time>
      </trkpt>
      <trkpt lat="43.82375" lon="7.36123">
        <ele>631.3</ele>
        <time>2013-12-01T12:16:26Z</time>
      </trkpt>
      <trkpt lat="43.82383" lon="7.36116">
        <ele>629.4</ele>
        <time>2013-12-01T12:16:31Z</time>
      </trkpt>
      <trkpt lat="43.82393" lon="7.36111">
        <ele>628.1</ele>
        <time>2013-12-01T12:16:36Z</time>
      </trkpt>
      <trkpt lat="43.82401" lon="7.36104">
        <ele>626.1</ele>
        <time>2013-12-01T12:16:40Z</time>
      </trkpt>
      <trkpt lat="43.82412" lon="7.36095">
        <ele>626.2</ele>
        <time>2013-12-01T12:16:44Z</time>
      </trkpt>
      <trkpt lat="43.82422" lon="7.36085">
        <ele>626.3</ele>
        <time>2013-12-01T12:16:47Z</time>
      </trkpt>
      <trkpt lat="43.8243" lon="7.36078">
        <ele>625.6</ele>
        <time>2013-12-01T12:16:49Z</time>
      </trkpt>
      <trkpt lat="43.82439" lon="7.36067">
        <ele>624.8</ele>
        <time>2013-12-01T12:16:52Z</time>
      </trkpt>
      <trkpt lat="43.82448" lon="7.36062">
        <ele>624.3</ele>
        <time>2013-12-01T12:16:55Z</time>
      </trkpt>
      <trkpt lat="43.82457" lon="7.36061">
        <ele>621.5</ele>
        <time>2013-12-01T12:17:18Z</time>
      </trkpt>
      <trkpt lat="43.82487" lon="7.36063">
        <ele>625.3</ele>
        <time>2013-12-01T12:23:40Z</time>
      </trkpt>
      <trkpt lat="43.82498" lon="7.36066">
        <ele>624.7</ele>
        <time>2013-12-01T12:23:45Z</time>
      </trkpt>
      <trkpt lat="43.82508" lon="7.36073">
        <ele>624</ele>
        <time>2013-12-01T12:23:51Z</time>
      </trkpt>
      <trkpt lat="43.82518" lon="7.36075">
        <ele>624.5</ele>
        <time>2013-12-01T12:23:55Z</time>
      </trkpt>
      <trkpt lat="43.82527" lon="7.36082">
        <ele>623.9</ele>
        <time>2013-12-01T12:23:58Z</time>
      </trkpt>
      <trkpt lat="43.82535" lon="7.36088">
        <ele>623.3</ele>
        <time>2013-12-01T12:24:00Z</time>
      </trkpt>
      <trkpt lat="43.82542" lon="7.36097">
        <ele>622.6</ele>
        <time>2013-12-01T12:24:02Z</time>
      </trkpt>
      <trkpt lat="43.8255" lon="7.36103">
        <ele>621.9</ele>
        <time>2013-12-01T12:24:04Z</time>
      </trkpt>
      <trkpt lat="43.82558" lon="7.36108">
        <ele>620.5</ele>
        <time>2013-12-01T12:24:06Z</time>
      </trkpt>
      <trkpt lat="43.82568" lon="7.3611">
        <ele>619.7</ele>
        <time>2013-12-01T12:24:08Z</time>
      </trkpt>
      <trkpt lat="43.82579" lon="7.36112">
        <ele>617.6</ele>
        <time>2013-12-01T12:24:11Z</time>
      </trkpt>
      <trkpt lat="43.82592" lon="7.36111">
        <ele>615.4</ele>
        <time>2013-12-01T12:24:14Z</time>
      </trkpt>
      <trkpt lat="43.82601" lon="7.36111">
        <ele>614.2</ele>
        <time>2013-12-01T12:24:16Z</time>
      </trkpt>
      <trkpt lat="43.82614" lon="7.3611">
        <ele>612.1</ele>
        <time>2013-12-01T12:24:19Z</time>
      </trkpt>
      <trkpt lat="43.82626" lon="7.36111">
        <ele>609.7</ele>
        <time>2013-12-01T12:24:22Z</time>
      </trkpt>
      <trkpt lat="43.82637" lon="7.36111">
        <ele>607.8</ele>
        <time>2013-12-01T12:24:25Z</time>
      </trkpt>
      <trkpt lat="43.82646" lon="7.36109">
        <ele>606.1</ele>
        <time>2013-12-01T12:24:28Z</time>
      </trkpt>
      <trkpt lat="43.82657" lon="7.36107">
        <ele>603.8</ele>
        <time>2013-12-01T12:24:31Z</time>
      </trkpt>
      <trkpt lat="43.82666" lon="7.36103">
        <ele>602.2</ele>
        <time>2013-12-01T12:24:34Z</time>
      </trkpt>
      <trkpt lat="43.8268" lon="7.36083">
        <ele>597.8</ele>
        <time>2013-12-01T12:25:08Z</time>
      </trkpt>
      <trkpt lat="43.82684" lon="7.36072">
        <ele>597.4</ele>
        <time>2013-12-01T12:25:10Z</time>
      </trkpt>
      <trkpt lat="43.8269" lon="7.36058">
        <ele>596</ele>
        <time>2013-12-01T12:25:13Z</time>
      </trkpt>
      <trkpt lat="43.82697" lon="7.36048">
        <ele>594.3</ele>
        <time>2013-12-01T12:25:16Z</time>
      </trkpt>
      <trkpt lat="43.82707" lon="7.36042">
        <ele>592.5</ele>
        <time>2013-12-01T12:25:19Z</time>
      </trkpt>
      <trkpt lat="43.82718" lon="7.36039">
        <ele>590.6</ele>
        <time>2013-12-01T12:25:23Z</time>
      </trkpt>
      <trkpt lat="43.82725" lon="7.36028">
        <ele>589.2</ele>
        <time>2013-12-01T12:25:27Z</time>
      </trkpt>
      <trkpt lat="43.82735" lon="7.36022">
        <ele>588</ele>
        <time>2013-12-01T12:25:30Z</time>
      </trkpt>
      <trkpt lat="43.82747" lon="7.36017">
        <ele>586.8</ele>
        <time>2013-12-01T12:25:33Z</time>
      </trkpt>
      <trkpt lat="43.82759" lon="7.36018">
        <ele>584.3</ele>
        <time>2013-12-01T12:25:36Z</time>
      </trkpt>
      <trkpt lat="43.82781" lon="7.36011">
        <ele>582</ele>
        <time>2013-12-01T12:25:40Z</time>
      </trkpt>
      <trkpt lat="43.8279" lon="7.3601">
        <ele>580.6</ele>
        <time>2013-12-01T12:25:42Z</time>
      </trkpt>
      <trkpt lat="43.828" lon="7.3601">
        <ele>579.2</ele>
        <time>2013-12-01T12:25:44Z</time>
      </trkpt>
      <trkpt lat="43.82811" lon="7.3601">
        <ele>578</ele>
        <time>2013-12-01T12:25:46Z</time>
      </trkpt>
      <trkpt lat="43.8282" lon="7.36011">
        <ele>575.5</ele>
        <time>2013-12-01T12:25:48Z</time>
      </trkpt>
      <trkpt lat="43.8283" lon="7.36011">
        <ele>574.1</ele>
        <time>2013-12-01T12:25:50Z</time>
      </trkpt>
      <trkpt lat="43.82841" lon="7.36012">
        <ele>572.6</ele>
        <time>2013-12-01T12:25:52Z</time>
      </trkpt>
      <trkpt lat="43.82852" lon="7.36012">
        <ele>570.7</ele>
        <time>2013-12-01T12:25:54Z</time>
      </trkpt>
      <trkpt lat="43.82863" lon="7.36013">
        <ele>568.8</ele>
        <time>2013-12-01T12:25:56Z</time>
      </trkpt>
      <trkpt lat="43.82874" lon="7.36015">
        <ele>567.7</ele>
        <time>2013-12-01T12:25:59Z</time>
      </trkpt>
      <trkpt lat="43.82884" lon="7.36017">
        <ele>566.4</ele>
        <time>2013-12-01T12:26:01Z</time>
      </trkpt>
      <trkpt lat="43.82895" lon="7.36017">
        <ele>564.1</ele>
        <time>2013-12-01T12:26:04Z</time>
      </trkpt>
      <trkpt lat="43.82905" lon="7.36016">
        <ele>563.1</ele>
        <time>2013-12-01T12:26:06Z</time>
      </trkpt>
      <trkpt lat="43.82914" lon="7.36006">
        <ele>561.6</ele>
        <time>2013-12-01T12:26:09Z</time>
      </trkpt>
      <trkpt lat="43.82917" lon="7.35994">
        <ele>560.4</ele>
        <time>2013-12-01T12:26:11Z</time>
      </trkpt>
      <trkpt lat="43.82919" lon="7.35978">
        <ele>558.5</ele>
        <time>2013-12-01T12:26:14Z</time>
      </trkpt>
      <trkpt lat="43.8292" lon="7.35959">
        <ele>556.2</ele>
        <time>2013-12-01T12:26:17Z</time>
      </trkpt>
      <trkpt lat="43.8292" lon="7.35943">
        <ele>554.9</ele>
        <time>2013-12-01T12:26:19Z</time>
      </trkpt>
      <trkpt lat="43.82921" lon="7.35927">
        <ele>554</ele>
        <time>2013-12-01T12:26:21Z</time>
      </trkpt>
      <trkpt lat="43.82922" lon="7.35911">
        <ele>552.4</ele>
        <time>2013-12-01T12:26:23Z</time>
      </trkpt>
      <trkpt lat="43.82924" lon="7.35895">
        <ele>550.6</ele>
        <time>2013-12-01T12:26:25Z</time>
      </trkpt>
      <trkpt lat="43.82927" lon="7.35879">
        <ele>548.4</ele>
        <time>2013-12-01T12:26:27Z</time>
      </trkpt>
      <trkpt lat="43.82929" lon="7.35864">
        <ele>546.1</ele>
        <time>2013-12-01T12:26:29Z</time>
      </trkpt>
      <trkpt lat="43.82931" lon="7.35849">
        <ele>544</ele>
        <time>2013-12-01T12:26:31Z</time>
      </trkpt>
      <trkpt lat="43.82934" lon="7.35836">
        <ele>542.2</ele>
        <time>2013-12-01T12:26:33Z</time>
      </trkpt>
      <trkpt lat="43.82939" lon="7.35819">
        <ele>540.8</ele>
        <time>2013-12-01T12:26:36Z</time>
      </trkpt>
      <trkpt lat="43.82942" lon="7.35805">
        <ele>540.3</ele>
        <time>2013-12-01T12:26:38Z</time>
      </trkpt>
      <trkpt lat="43.8295" lon="7.358">
        <ele>532.3</ele>
        <time>2013-12-01T12:26:52Z</time>
      </trkpt>
      <trkpt lat="43.82952" lon="7.35814">
        <ele>532</ele>
        <time>2013-12-01T12:26:54Z</time>
      </trkpt>
      <trkpt lat="43.82953" lon="7.3583">
        <ele>531</ele>
        <time>2013-12-01T12:26:56Z</time>
      </trkpt>
      <trkpt lat="43.82955" lon="7.35848">
        <ele>529.7</ele>
        <time>2013-12-01T12:26:58Z</time>
      </trkpt>
      <trkpt lat="43.82957" lon="7.35865">
        <ele>528.3</ele>
        <time>2013-12-01T12:27:00Z</time>
      </trkpt>
      <trkpt lat="43.82959" lon="7.35882">
        <ele>526.2</ele>
        <time>2013-12-01T12:27:02Z</time>
      </trkpt>
      <trkpt lat="43.82961" lon="7.35898">
        <ele>524.4</ele>
        <time>2013-12-01T12:27:04Z</time>
      </trkpt>
      <trkpt lat="43.82965" lon="7.3591">
        <ele>522.8</ele>
        <time>2013-12-01T12:27:06Z</time>
      </trkpt>
      <trkpt lat="43.82971" lon="7.35924">
        <ele>518.9</ele>
        <time>2013-12-01T12:27:09Z</time>
      </trkpt>
      <trkpt lat="43.82978" lon="7.35938">
        <ele>515.6</ele>
        <time>2013-12-01T12:27:12Z</time>
      </trkpt>
      <trkpt lat="43.82982" lon="7.3595">
        <ele>513.4</ele>
        <time>2013-12-01T12:27:14Z</time>
      </trkpt>
      <trkpt lat="43.82985" lon="7.35963">
        <ele>509.7</ele>
        <time>2013-12-01T12:27:18Z</time>
      </trkpt>
      <trkpt lat="43.8299" lon="7.35953">
        <ele>505.1</ele>
        <time>2013-12-01T12:27:26Z</time>
      </trkpt>
      <trkpt lat="43.82996" lon="7.35964">
        <ele>501.8</ele>
        <time>2013-12-01T12:27:32Z</time>
      </trkpt>
      <trkpt lat="43.83" lon="7.35949">
        <ele>499.2</ele>
        <time>2013-12-01T12:27:37Z</time>
      </trkpt>
      <trkpt lat="43.83008" lon="7.35956">
        <ele>493.7</ele>
        <time>2013-12-01T12:27:46Z</time>
      </trkpt>
      <trkpt lat="43.83015" lon="7.35957">
        <ele>486</ele>
        <time>2013-12-01T12:27:56Z</time>
      </trkpt>
      <trkpt lat="43.83023" lon="7.3597">
        <ele>483</ele>
        <time>2013-12-01T12:28:05Z</time>
      </trkpt>
      <trkpt lat="43.83027" lon="7.35984">
        <ele>481.2</ele>
        <time>2013-12-01T12:28:08Z</time>
      </trkpt>
      <trkpt lat="43.83032" lon="7.35969">
        <ele>477.6</ele>
        <time>2013-12-01T12:28:13Z</time>
      </trkpt>
      <trkpt lat="43.83035" lon="7.35957">
        <ele>475.6</ele>
        <time>2013-12-01T12:28:15Z</time>
      </trkpt>
      <trkpt lat="43.83038" lon="7.35944">
        <ele>474.5</ele>
        <time>2013-12-01T12:28:17Z</time>
      </trkpt>
      <trkpt lat="43.83042" lon="7.35925">
        <ele>470.2</ele>
        <time>2013-12-01T12:28:20Z</time>
      </trkpt>
      <trkpt lat="43.83044" lon="7.3591">
        <ele>467.3</ele>
        <time>2013-12-01T12:28:22Z</time>
      </trkpt>
      <trkpt lat="43.83045" lon="7.35895">
        <ele>462.8</ele>
        <time>2013-12-01T12:28:25Z</time>
      </trkpt>
      <trkpt lat="43.83049" lon="7.35882">
        <ele>459.7</ele>
        <time>2013-12-01T12:28:28Z</time>
      </trkpt>
      <trkpt lat="43.83055" lon="7.3587">
        <ele>457.8</ele>
        <time>2013-12-01T12:28:30Z</time>
      </trkpt>
      <trkpt lat="43.83059" lon="7.35854">
        <ele>456.3</ele>
        <time>2013-12-01T12:28:32Z</time>
      </trkpt>
      <trkpt lat="43.83061" lon="7.35837">
        <ele>454.5</ele>
        <time>2013-12-01T12:28:34Z</time>
      </trkpt>
      <trkpt lat="43.83062" lon="7.35822">
        <ele>452.9</ele>
        <time>2013-12-01T12:28:36Z</time>
      </trkpt>
      <trkpt lat="43.83062" lon="7.35807">
        <ele>451.5</ele>
        <time>2013-12-01T12:28:38Z</time>
      </trkpt>
      <trkpt lat="43.83063" lon="7.35792">
        <ele>450.5</ele>
        <time>2013-12-01T12:28:40Z</time>
      </trkpt>
      <trkpt lat="43.83063" lon="7.35774">
        <ele>449.8</ele>
        <time>2013-12-01T12:28:42Z</time>
      </trkpt>
      <trkpt lat="43.83063" lon="7.35756">
        <ele>448.7</ele>
        <time>2013-12-01T12:28:44Z</time>
      </trkpt>
      <trkpt lat="43.83061" lon="7.35741">
        <ele>447.3</ele>
        <time>2013-12-01T12:28:46Z</time>
      </trkpt>
      <trkpt lat="43.83058" lon="7.35729">
        <ele>445.8</ele>
        <time>2013-12-01T12:28:48Z</time>
      </trkpt>
      <trkpt lat="43.83062" lon="7.35706">
        <ele>440.5</ele>
        <time>2013-12-01T12:28:53Z</time>
      </trkpt>
      <trkpt lat="43.83076" lon="7.35704">
        <ele>437.6</ele>
        <time>2013-12-01T12:28:56Z</time>
      </trkpt>
      <trkpt lat="43.83091" lon="7.35703">
        <ele>436.9</ele>
        <time>2013-12-01T12:28:58Z</time>
      </trkpt>
      <trkpt lat="43.83105" lon="7.35701">
        <ele>435</ele>
        <time>2013-12-01T12:29:00Z</time>
      </trkpt>
      <trkpt lat="43.83118" lon="7.35696">
        <ele>433.2</ele>
        <time>2013-12-01T12:29:02Z</time>
      </trkpt>
      <trkpt lat="43.83129" lon="7.35687">
        <ele>431.6</ele>
        <time>2013-12-01T12:29:04Z</time>
      </trkpt>
      <trkpt lat="43.83137" lon="7.35674">
        <ele>429.2</ele>
        <time>2013-12-01T12:29:06Z</time>
      </trkpt>
      <trkpt lat="43.83143" lon="7.35663">
        <ele>427.9</ele>
        <time>2013-12-01T12:29:08Z</time>
      </trkpt>
      <trkpt lat="43.83144" lon="7.35648">
        <ele>424.2</ele>
        <time>2013-12-01T12:29:11Z</time>
      </trkpt>
      <trkpt lat="43.83155" lon="7.35648">
        <ele>419.5</ele>
        <time>2013-12-01T12:29:15Z</time>
      </trkpt>
      <trkpt lat="43.83166" lon="7.35638">
        <ele>417.8</ele>
        <time>2013-12-01T12:29:18Z</time>
      </trkpt>
      <trkpt lat="43.83172" lon="7.35627">
        <ele>416.9</ele>
        <time>2013-12-01T12:29:20Z</time>
      </trkpt>
      <trkpt lat="43.83177" lon="7.35616">
        <ele>416</ele>
        <time>2013-12-01T12:29:22Z</time>
      </trkpt>
      <trkpt lat="43.83182" lon="7.35605">
        <ele>415.6</ele>
        <time>2013-12-01T12:29:24Z</time>
      </trkpt>
      <trkpt lat="43.8319" lon="7.35595">
        <ele>414.3</ele>
        <time>2013-12-01T12:29:26Z</time>
      </trkpt>
      <trkpt lat="43.83198" lon="7.35581">
        <ele>412.6</ele>
        <time>2013-12-01T12:29:28Z</time>
      </trkpt>
      <trkpt lat="43.83205" lon="7.35568">
        <ele>410.8</ele>
        <time>2013-12-01T12:29:30Z</time>
      </trkpt>
      <trkpt lat="43.83213" lon="7.35559">
        <ele>408.7</ele>
        <time>2013-12-01T12:29:32Z</time>
      </trkpt>
      <trkpt lat="43.8322" lon="7.35549">
        <ele>406.8</ele>
        <time>2013-12-01T12:29:34Z</time>
      </trkpt>
      <trkpt lat="43.83228" lon="7.35539">
        <ele>405.3</ele>
        <time>2013-12-01T12:29:36Z</time>
      </trkpt>
      <trkpt lat="43.83237" lon="7.35533">
        <ele>401.5</ele>
        <time>2013-12-01T12:29:39Z</time>
      </trkpt>
      <trkpt lat="43.83247" lon="7.35537">
        <ele>398.8</ele>
        <time>2013-12-01T12:29:43Z</time>
      </trkpt>
      <trkpt lat="43.83258" lon="7.35531">
        <ele>395.9</ele>
        <time>2013-12-01T12:29:47Z</time>
      </trkpt>
      <trkpt lat="43.83266" lon="7.35524">
        <ele>393.6</ele>
        <time>2013-12-01T12:29:50Z</time>
      </trkpt>
      <trkpt lat="43.83283" lon="7.35505">
        <ele>390.7</ele>
        <time>2013-12-01T12:29:54Z</time>
      </trkpt>
      <trkpt lat="43.83292" lon="7.35496">
        <ele>389.9</ele>
        <time>2013-12-01T12:29:56Z</time>
      </trkpt>
      <trkpt lat="43.83299" lon="7.35488">
        <ele>387.5</ele>
        <time>2013-12-01T12:29:58Z</time>
      </trkpt>
      <trkpt lat="43.83305" lon="7.35477">
        <ele>384</ele>
        <time>2013-12-01T12:30:01Z</time>
      </trkpt>
      <trkpt lat="43.83315" lon="7.35473">
        <ele>377.9</ele>
        <time>2013-12-01T12:30:07Z</time>
      </trkpt>
      <trkpt lat="43.83319" lon="7.35462">
        <ele>373.7</ele>
        <time>2013-12-01T12:30:13Z</time>
      </trkpt>
      <trkpt lat="43.83328" lon="7.35469">
        <ele>371</ele>
        <time>2013-12-01T12:30:17Z</time>
      </trkpt>
      <trkpt lat="43.83332" lon="7.35458">
        <ele>369.4</ele>
        <time>2013-12-01T12:35:05Z</time>
      </trkpt>
      <trkpt lat="43.83329" lon="7.35421">
        <ele>365.4</ele>
        <time>2013-12-01T12:37:15Z</time>
      </trkpt>
      <trkpt lat="43.83321" lon="7.35413">
        <ele>365</ele>
        <time>2013-12-01T12:37:38Z</time>
      </trkpt>
      <trkpt lat="43.83311" lon="7.35406">
        <ele>367</ele>
        <time>2013-12-01T12:37:46Z</time>
      </trkpt>
      <trkpt lat="43.83302" lon="7.35404">
        <ele>368.2</ele>
        <time>2013-12-01T12:37:53Z</time>
      </trkpt>
      <trkpt lat="43.83291" lon="7.35405">
        <ele>369</ele>
        <time>2013-12-01T12:38:00Z</time>
      </trkpt>
      <trkpt lat="43.83281" lon="7.35402">
        <ele>370.4</ele>
        <time>2013-12-01T12:38:07Z</time>
      </trkpt>
      <trkpt lat="43.83268" lon="7.35382">
        <ele>371.4</ele>
        <time>2013-12-01T12:38:20Z</time>
      </trkpt>
      <trkpt lat="43.83262" lon="7.35372">
        <ele>372.2</ele>
        <time>2013-12-01T12:38:26Z</time>
      </trkpt>
      <trkpt lat="43.83259" lon="7.3536">
        <ele>372.3</ele>
        <time>2013-12-01T12:38:32Z</time>
      </trkpt>
      <trkpt lat="43.83256" lon="7.35348">
        <ele>373.8</ele>
        <time>2013-12-01T12:38:38Z</time>
      </trkpt>
      <trkpt lat="43.8325" lon="7.35328">
        <ele>374.8</ele>
        <time>2013-12-01T12:38:49Z</time>
      </trkpt>
      <trkpt lat="43.83247" lon="7.35316">
        <ele>377.5</ele>
        <time>2013-12-01T12:38:55Z</time>
      </trkpt>
      <trkpt lat="43.83243" lon="7.35304">
        <ele>379</ele>
        <time>2013-12-01T12:39:01Z</time>
      </trkpt>
      <trkpt lat="43.83234" lon="7.35309">
        <ele>379.2</ele>
        <time>2013-12-01T12:39:29Z</time>
      </trkpt>
      <trkpt lat="43.83231" lon="7.35285">
        <ele>380.8</ele>
        <time>2013-12-01T12:40:28Z</time>
      </trkpt>
      <trkpt lat="43.83229" lon="7.3527">
        <ele>380.7</ele>
        <time>2013-12-01T12:40:34Z</time>
      </trkpt>
      <trkpt lat="43.83213" lon="7.35251">
        <ele>382.8</ele>
        <time>2013-12-01T12:40:45Z</time>
      </trkpt>
      <trkpt lat="43.83205" lon="7.35241">
        <ele>384</ele>
        <time>2013-12-01T12:40:50Z</time>
      </trkpt>
      <trkpt lat="43.83196" lon="7.35232">
        <ele>384.1</ele>
        <time>2013-12-01T12:40:55Z</time>
      </trkpt>
      <trkpt lat="43.83189" lon="7.35224">
        <ele>384.9</ele>
        <time>2013-12-01T12:40:59Z</time>
      </trkpt>
      <trkpt lat="43.8318" lon="7.35218">
        <ele>386.3</ele>
        <time>2013-12-01T12:41:04Z</time>
      </trkpt>
      <trkpt lat="43.83169" lon="7.3521">
        <ele>387.2</ele>
        <time>2013-12-01T12:41:10Z</time>
      </trkpt>
      <trkpt lat="43.8316" lon="7.35203">
        <ele>387.1</ele>
        <time>2013-12-01T12:41:15Z</time>
      </trkpt>
      <trkpt lat="43.83152" lon="7.35196">
        <ele>388.5</ele>
        <time>2013-12-01T12:41:20Z</time>
      </trkpt>
      <trkpt lat="43.83145" lon="7.35189">
        <ele>389.2</ele>
        <time>2013-12-01T12:41:25Z</time>
      </trkpt>
      <trkpt lat="43.83137" lon="7.35181">
        <ele>389.2</ele>
        <time>2013-12-01T12:41:30Z</time>
      </trkpt>
      <trkpt lat="43.83129" lon="7.35173">
        <ele>390.4</ele>
        <time>2013-12-01T12:41:35Z</time>
      </trkpt>
      <trkpt lat="43.83111" lon="7.35162">
        <ele>391.9</ele>
        <time>2013-12-01T12:41:45Z</time>
      </trkpt>
      <trkpt lat="43.83102" lon="7.35156">
        <ele>392.3</ele>
        <time>2013-12-01T12:41:50Z</time>
      </trkpt>
      <trkpt lat="43.83093" lon="7.3515">
        <ele>393</ele>
        <time>2013-12-01T12:41:55Z</time>
      </trkpt>
      <trkpt lat="43.83084" lon="7.35143">
        <ele>393.9</ele>
        <time>2013-12-01T12:42:00Z</time>
      </trkpt>
      <trkpt lat="43.83074" lon="7.35136">
        <ele>394.5</ele>
        <time>2013-12-01T12:42:05Z</time>
      </trkpt>
      <trkpt lat="43.83065" lon="7.3513">
        <ele>395.3</ele>
        <time>2013-12-01T12:42:10Z</time>
      </trkpt>
      <trkpt lat="43.83056" lon="7.35123">
        <ele>396.3</ele>
        <time>2013-12-01T12:42:15Z</time>
      </trkpt>
      <trkpt lat="43.83047" lon="7.35117">
        <ele>397.3</ele>
        <time>2013-12-01T12:42:19Z</time>
      </trkpt>
      <trkpt lat="43.83036" lon="7.3511">
        <ele>398.4</ele>
        <time>2013-12-01T12:42:23Z</time>
      </trkpt>
      <trkpt lat="43.83026" lon="7.35104">
        <ele>399.3</ele>
        <time>2013-12-01T12:42:27Z</time>
      </trkpt>
      <trkpt lat="43.83016" lon="7.35097">
        <ele>399.8</ele>
        <time>2013-12-01T12:42:31Z</time>
      </trkpt>
      <trkpt lat="43.83008" lon="7.35091">
        <ele>400.3</ele>
        <time>2013-12-01T12:42:34Z</time>
      </trkpt>
      <trkpt lat="43.82997" lon="7.35083">
        <ele>400.8</ele>
        <time>2013-12-01T12:42:38Z</time>
      </trkpt>
      <trkpt lat="43.82981" lon="7.35073">
        <ele>402.5</ele>
        <time>2013-12-01T12:42:44Z</time>
      </trkpt>
      <trkpt lat="43.8297" lon="7.35068">
        <ele>404.2</ele>
        <time>2013-12-01T12:42:48Z</time>
      </trkpt>
      <trkpt lat="43.82961" lon="7.35064">
        <ele>404.2</ele>
        <time>2013-12-01T12:42:51Z</time>
      </trkpt>
      <trkpt lat="43.82951" lon="7.35062">
        <ele>405.1</ele>
        <time>2013-12-01T12:42:54Z</time>
      </trkpt>
      <trkpt lat="43.82942" lon="7.35062">
        <ele>405.7</ele>
        <time>2013-12-01T12:42:57Z</time>
      </trkpt>
      <trkpt lat="43.82932" lon="7.35061">
        <ele>406</ele>
        <time>2013-12-01T12:43:00Z</time>
      </trkpt>
      <trkpt lat="43.82922" lon="7.35062">
        <ele>406.4</ele>
        <time>2013-12-01T12:43:03Z</time>
      </trkpt>
      <trkpt lat="43.82913" lon="7.35063">
        <ele>407.5</ele>
        <time>2013-12-01T12:43:06Z</time>
      </trkpt>
      <trkpt lat="43.82904" lon="7.35063">
        <ele>408</ele>
        <time>2013-12-01T12:43:09Z</time>
      </trkpt>
      <trkpt lat="43.82894" lon="7.35062">
        <ele>408.7</ele>
        <time>2013-12-01T12:43:12Z</time>
      </trkpt>
      <trkpt lat="43.82882" lon="7.35063">
        <ele>410.4</ele>
        <time>2013-12-01T12:43:16Z</time>
      </trkpt>
      <trkpt lat="43.82871" lon="7.35064">
        <ele>411.7</ele>
        <time>2013-12-01T12:43:20Z</time>
      </trkpt>
      <trkpt lat="43.82862" lon="7.35065">
        <ele>412</ele>
        <time>2013-12-01T12:43:23Z</time>
      </trkpt>
      <trkpt lat="43.82853" lon="7.35067">
        <ele>413.1</ele>
        <time>2013-12-01T12:43:26Z</time>
      </trkpt>
      <trkpt lat="43.82841" lon="7.3507">
        <ele>413.9</ele>
        <time>2013-12-01T12:43:30Z</time>
      </trkpt>
      <trkpt lat="43.82832" lon="7.35072">
        <ele>414</ele>
        <time>2013-12-01T12:43:33Z</time>
      </trkpt>
      <trkpt lat="43.82823" lon="7.35074">
        <ele>414.7</ele>
        <time>2013-12-01T12:43:36Z</time>
      </trkpt>
      <trkpt lat="43.82813" lon="7.35075">
        <ele>415.9</ele>
        <time>2013-12-01T12:43:39Z</time>
      </trkpt>
      <trkpt lat="43.8279" lon="7.35076">
        <ele>417.9</ele>
        <time>2013-12-01T12:43:47Z</time>
      </trkpt>
      <trkpt lat="43.82779" lon="7.35075">
        <ele>418.8</ele>
        <time>2013-12-01T12:43:51Z</time>
      </trkpt>
      <trkpt lat="43.82768" lon="7.35075">
        <ele>420.1</ele>
        <time>2013-12-01T12:43:55Z</time>
      </trkpt>
      <trkpt lat="43.82758" lon="7.35074">
        <ele>420.4</ele>
        <time>2013-12-01T12:43:59Z</time>
      </trkpt>
      <trkpt lat="43.82749" lon="7.35074">
        <ele>420.9</ele>
        <time>2013-12-01T12:44:03Z</time>
      </trkpt>
      <trkpt lat="43.82739" lon="7.35072">
        <ele>422</ele>
        <time>2013-12-01T12:44:07Z</time>
      </trkpt>
      <trkpt lat="43.8273" lon="7.35071">
        <ele>422.3</ele>
        <time>2013-12-01T12:44:11Z</time>
      </trkpt>
      <trkpt lat="43.8272" lon="7.35069">
        <ele>423.8</ele>
        <time>2013-12-01T12:44:15Z</time>
      </trkpt>
      <trkpt lat="43.8271" lon="7.35068">
        <ele>425</ele>
        <time>2013-12-01T12:44:19Z</time>
      </trkpt>
      <trkpt lat="43.82699" lon="7.35067">
        <ele>425</ele>
        <time>2013-12-01T12:44:23Z</time>
      </trkpt>
      <trkpt lat="43.82688" lon="7.35065">
        <ele>425.6</ele>
        <time>2013-12-01T12:44:27Z</time>
      </trkpt>
      <trkpt lat="43.82677" lon="7.35061">
        <ele>426.7</ele>
        <time>2013-12-01T12:44:31Z</time>
      </trkpt>
      <trkpt lat="43.82669" lon="7.35056">
        <ele>427.2</ele>
        <time>2013-12-01T12:44:35Z</time>
      </trkpt>
      <trkpt lat="43.82661" lon="7.35047">
        <ele>427.4</ele>
        <time>2013-12-01T12:44:41Z</time>
      </trkpt>
      <trkpt lat="43.82646" lon="7.35034">
        <ele>428.6</ele>
        <time>2013-12-01T12:45:34Z</time>
      </trkpt>
      <trkpt lat="43.82643" lon="7.35021">
        <ele>430.4</ele>
        <time>2013-12-01T12:47:28Z</time>
      </trkpt>
      <trkpt lat="43.82644" lon="7.35003">
        <ele>431.8</ele>
        <time>2013-12-01T12:49:19Z</time>
      </trkpt>
      <trkpt lat="43.82649" lon="7.34977">
        <ele>433</ele>
        <time>2013-12-01T12:49:31Z</time>
      </trkpt>
      <trkpt lat="43.82652" lon="7.34964">
        <ele>433.6</ele>
        <time>2013-12-01T12:49:37Z</time>
      </trkpt>
      <trkpt lat="43.82657" lon="7.34952">
        <ele>434.1</ele>
        <time>2013-12-01T12:49:43Z</time>
      </trkpt>
      <trkpt lat="43.82663" lon="7.34941">
        <ele>435.3</ele>
        <time>2013-12-01T12:49:49Z</time>
      </trkpt>
      <trkpt lat="43.8267" lon="7.34931">
        <ele>436.6</ele>
        <time>2013-12-01T12:49:55Z</time>
      </trkpt>
      <trkpt lat="43.82678" lon="7.34922">
        <ele>436</ele>
        <time>2013-12-01T12:50:01Z</time>
      </trkpt>
      <trkpt lat="43.82685" lon="7.34913">
        <ele>436.9</ele>
        <time>2013-12-01T12:50:06Z</time>
      </trkpt>
      <trkpt lat="43.82694" lon="7.34905">
        <ele>437.8</ele>
        <time>2013-12-01T12:50:11Z</time>
      </trkpt>
      <trkpt lat="43.82702" lon="7.34896">
        <ele>437.9</ele>
        <time>2013-12-01T12:50:16Z</time>
      </trkpt>
      <trkpt lat="43.82713" lon="7.34891">
        <ele>438.7</ele>
        <time>2013-12-01T12:50:21Z</time>
      </trkpt>
      <trkpt lat="43.82731" lon="7.3489">
        <ele>440.9</ele>
        <time>2013-12-01T12:50:29Z</time>
      </trkpt>
      <trkpt lat="43.8274" lon="7.34893">
        <ele>440.4</ele>
        <time>2013-12-01T12:50:33Z</time>
      </trkpt>
      <trkpt lat="43.8275" lon="7.34895">
        <ele>440.3</ele>
        <time>2013-12-01T12:50:37Z</time>
      </trkpt>
      <trkpt lat="43.8276" lon="7.34896">
        <ele>440.5</ele>
        <time>2013-12-01T12:50:41Z</time>
      </trkpt>
      <trkpt lat="43.8277" lon="7.34893">
        <ele>441.9</ele>
        <time>2013-12-01T12:50:45Z</time>
      </trkpt>
      <trkpt lat="43.82779" lon="7.34886">
        <ele>441.8</ele>
        <time>2013-12-01T12:50:49Z</time>
      </trkpt>
      <trkpt lat="43.82787" lon="7.34877">
        <ele>441.5</ele>
        <time>2013-12-01T12:50:53Z</time>
      </trkpt>
      <trkpt lat="43.82796" lon="7.34866">
        <ele>442.2</ele>
        <time>2013-12-01T12:50:57Z</time>
      </trkpt>
      <trkpt lat="43.82801" lon="7.34855">
        <ele>443.2</ele>
        <time>2013-12-01T12:51:00Z</time>
      </trkpt>
      <trkpt lat="43.82806" lon="7.34843">
        <ele>442.8</ele>
        <time>2013-12-01T12:51:03Z</time>
      </trkpt>
      <trkpt lat="43.8281" lon="7.34828">
        <ele>442.8</ele>
        <time>2013-12-01T12:51:07Z</time>
      </trkpt>
      <trkpt lat="43.82812" lon="7.34816">
        <ele>442.7</ele>
        <time>2013-12-01T12:51:10Z</time>
      </trkpt>
      <trkpt lat="43.82813" lon="7.34803">
        <ele>443.2</ele>
        <time>2013-12-01T12:51:13Z</time>
      </trkpt>
      <trkpt lat="43.82814" lon="7.34787">
        <ele>442.7</ele>
        <time>2013-12-01T12:51:17Z</time>
      </trkpt>
      <trkpt lat="43.82814" lon="7.3477">
        <ele>443</ele>
        <time>2013-12-01T12:51:21Z</time>
      </trkpt>
      <trkpt lat="43.82813" lon="7.34758">
        <ele>443</ele>
        <time>2013-12-01T12:51:24Z</time>
      </trkpt>
      <trkpt lat="43.82808" lon="7.34732">
        <ele>443.7</ele>
        <time>2013-12-01T12:51:30Z</time>
      </trkpt>
      <trkpt lat="43.82805" lon="7.34719">
        <ele>443.1</ele>
        <time>2013-12-01T12:51:33Z</time>
      </trkpt>
      <trkpt lat="43.82802" lon="7.34705">
        <ele>443.6</ele>
        <time>2013-12-01T12:51:36Z</time>
      </trkpt>
      <trkpt lat="43.82799" lon="7.34691">
        <ele>444.3</ele>
        <time>2013-12-01T12:51:39Z</time>
      </trkpt>
      <trkpt lat="43.82796" lon="7.34676">
        <ele>444.3</ele>
        <time>2013-12-01T12:51:42Z</time>
      </trkpt>
      <trkpt lat="43.82795" lon="7.3466">
        <ele>443.1</ele>
        <time>2013-12-01T12:51:45Z</time>
      </trkpt>
      <trkpt lat="43.82799" lon="7.34643">
        <ele>443.7</ele>
        <time>2013-12-01T12:51:48Z</time>
      </trkpt>
      <trkpt lat="43.82804" lon="7.34632">
        <ele>443.9</ele>
        <time>2013-12-01T12:51:50Z</time>
      </trkpt>
      <trkpt lat="43.82809" lon="7.34616">
        <ele>443.6</ele>
        <time>2013-12-01T12:51:53Z</time>
      </trkpt>
      <trkpt lat="43.82812" lon="7.34602">
        <ele>443.7</ele>
        <time>2013-12-01T12:51:56Z</time>
      </trkpt>
      <trkpt lat="43.82813" lon="7.34588">
        <ele>444.1</ele>
        <time>2013-12-01T12:51:59Z</time>
      </trkpt>
      <trkpt lat="43.82812" lon="7.34575">
        <ele>444.6</ele>
        <time>2013-12-01T12:52:02Z</time>
      </trkpt>
      <trkpt lat="43.8281" lon="7.34561">
        <ele>445.1</ele>
        <time>2013-12-01T12:52:05Z</time>
      </trkpt>
      <trkpt lat="43.82808" lon="7.34549">
        <ele>445.1</ele>
        <time>2013-12-01T12:52:08Z</time>
      </trkpt>
      <trkpt lat="43.82805" lon="7.34534">
        <ele>445.3</ele>
        <time>2013-12-01T12:52:12Z</time>
      </trkpt>
      <trkpt lat="43.82802" lon="7.34519">
        <ele>445.5</ele>
        <time>2013-12-01T12:52:16Z</time>
      </trkpt>
      <trkpt lat="43.82802" lon="7.34505">
        <ele>445.8</ele>
        <time>2013-12-01T12:52:20Z</time>
      </trkpt>
      <trkpt lat="43.82805" lon="7.34492">
        <ele>446.8</ele>
        <time>2013-12-01T12:52:24Z</time>
      </trkpt>
      <trkpt lat="43.8281" lon="7.3448">
        <ele>447.7</ele>
        <time>2013-12-01T12:52:28Z</time>
      </trkpt>
      <trkpt lat="43.82818" lon="7.34455">
        <ele>448.5</ele>
        <time>2013-12-01T12:52:36Z</time>
      </trkpt>
      <trkpt lat="43.82819" lon="7.34441">
        <ele>449.9</ele>
        <time>2013-12-01T12:52:40Z</time>
      </trkpt>
      <trkpt lat="43.82817" lon="7.34428">
        <ele>450.7</ele>
        <time>2013-12-01T12:52:44Z</time>
      </trkpt>
      <trkpt lat="43.82815" lon="7.34415">
        <ele>452.2</ele>
        <time>2013-12-01T12:52:48Z</time>
      </trkpt>
      <trkpt lat="43.82812" lon="7.34403">
        <ele>453.6</ele>
        <time>2013-12-01T12:52:52Z</time>
      </trkpt>
      <trkpt lat="43.82809" lon="7.3439">
        <ele>453.7</ele>
        <time>2013-12-01T12:52:56Z</time>
      </trkpt>
      <trkpt lat="43.82805" lon="7.34377">
        <ele>454.5</ele>
        <time>2013-12-01T12:53:00Z</time>
      </trkpt>
      <trkpt lat="43.82802" lon="7.34363">
        <ele>455.4</ele>
        <time>2013-12-01T12:53:04Z</time>
      </trkpt>
      <trkpt lat="43.828" lon="7.34348">
        <ele>456.2</ele>
        <time>2013-12-01T12:53:08Z</time>
      </trkpt>
      <trkpt lat="43.82798" lon="7.34335">
        <ele>457.6</ele>
        <time>2013-12-01T12:53:12Z</time>
      </trkpt>
      <trkpt lat="43.82799" lon="7.3432">
        <ele>458.6</ele>
        <time>2013-12-01T12:53:17Z</time>
      </trkpt>
      <trkpt lat="43.82797" lon="7.34307">
        <ele>459.7</ele>
        <time>2013-12-01T12:53:22Z</time>
      </trkpt>
      <trkpt lat="43.82788" lon="7.34307">
        <ele>460.6</ele>
        <time>2013-12-01T12:53:28Z</time>
      </trkpt>
      <trkpt lat="43.82784" lon="7.34321">
        <ele>461.7</ele>
        <time>2013-12-01T12:53:33Z</time>
      </trkpt>
      <trkpt lat="43.82779" lon="7.34346">
        <ele>462.7</ele>
        <time>2013-12-01T12:53:41Z</time>
      </trkpt>
      <trkpt lat="43.82776" lon="7.34361">
        <ele>464.8</ele>
        <time>2013-12-01T12:53:46Z</time>
      </trkpt>
      <trkpt lat="43.82773" lon="7.34373">
        <ele>464.9</ele>
        <time>2013-12-01T12:53:50Z</time>
      </trkpt>
      <trkpt lat="43.82767" lon="7.34384">
        <ele>465.9</ele>
        <time>2013-12-01T12:53:54Z</time>
      </trkpt>
      <trkpt lat="43.82757" lon="7.34384">
        <ele>466.6</ele>
        <time>2013-12-01T12:53:59Z</time>
      </trkpt>
      <trkpt lat="43.82748" lon="7.34387">
        <ele>468.3</ele>
        <time>2013-12-01T12:54:05Z</time>
      </trkpt>
      <trkpt lat="43.82738" lon="7.34386">
        <ele>468.5</ele>
        <time>2013-12-01T12:56:34Z</time>
      </trkpt>
      <trkpt lat="43.82725" lon="7.34421">
        <ele>467.2</ele>
        <time>2013-12-01T12:58:59Z</time>
      </trkpt>
      <trkpt lat="43.82717" lon="7.34429">
        <ele>466.6</ele>
        <time>2013-12-01T12:59:03Z</time>
      </trkpt>
      <trkpt lat="43.82711" lon="7.34439">
        <ele>466.5</ele>
        <time>2013-12-01T12:59:06Z</time>
      </trkpt>
      <trkpt lat="43.82706" lon="7.34453">
        <ele>466.2</ele>
        <time>2013-12-01T12:59:10Z</time>
      </trkpt>
      <trkpt lat="43.82702" lon="7.34469">
        <ele>466.5</ele>
        <time>2013-12-01T12:59:14Z</time>
      </trkpt>
      <trkpt lat="43.82696" lon="7.34482">
        <ele>465.9</ele>
        <time>2013-12-01T12:59:17Z</time>
      </trkpt>
      <trkpt lat="43.82688" lon="7.34489">
        <ele>464.6</ele>
        <time>2013-12-01T12:59:20Z</time>
      </trkpt>
      <trkpt lat="43.82678" lon="7.34485">
        <ele>464.6</ele>
        <time>2013-12-01T12:59:24Z</time>
      </trkpt>
      <trkpt lat="43.82673" lon="7.34496">
        <ele>466.4</ele>
        <time>2013-12-01T12:59:28Z</time>
      </trkpt>
      <trkpt lat="43.82673" lon="7.34513">
        <ele>465</ele>
        <time>2013-12-01T12:59:32Z</time>
      </trkpt>
      <trkpt lat="43.82668" lon="7.34525">
        <ele>463.7</ele>
        <time>2013-12-01T12:59:36Z</time>
      </trkpt>
      <trkpt lat="43.82661" lon="7.34538">
        <ele>462.8</ele>
        <time>2013-12-01T12:59:40Z</time>
      </trkpt>
      <trkpt lat="43.82655" lon="7.34552">
        <ele>462.8</ele>
        <time>2013-12-01T12:59:43Z</time>
      </trkpt>
      <trkpt lat="43.82646" lon="7.34563">
        <ele>461.6</ele>
        <time>2013-12-01T12:59:46Z</time>
      </trkpt>
      <trkpt lat="43.82637" lon="7.34559">
        <ele>460.7</ele>
        <time>2013-12-01T12:59:51Z</time>
      </trkpt>
      <trkpt lat="43.82628" lon="7.34552">
        <ele>460.6</ele>
        <time>2013-12-01T12:59:55Z</time>
      </trkpt>
      <trkpt lat="43.82611" lon="7.34541">
        <ele>460.5</ele>
        <time>2013-12-01T13:00:04Z</time>
      </trkpt>
      <trkpt lat="43.82602" lon="7.34542">
        <ele>459.9</ele>
        <time>2013-12-01T13:00:14Z</time>
      </trkpt>
      <trkpt lat="43.82594" lon="7.34547">
        <ele>459.8</ele>
        <time>2013-12-01T13:00:22Z</time>
      </trkpt>
      <trkpt lat="43.82584" lon="7.34551">
        <ele>459.5</ele>
        <time>2013-12-01T13:00:26Z</time>
      </trkpt>
      <trkpt lat="43.82574" lon="7.34553">
        <ele>458.7</ele>
        <time>2013-12-01T13:00:29Z</time>
      </trkpt>
      <trkpt lat="43.82563" lon="7.34553">
        <ele>457.2</ele>
        <time>2013-12-01T13:00:32Z</time>
      </trkpt>
      <trkpt lat="43.82553" lon="7.34554">
        <ele>456.8</ele>
        <time>2013-12-01T13:00:36Z</time>
      </trkpt>
      <trkpt lat="43.82543" lon="7.34556">
        <ele>456.6</ele>
        <time>2013-12-01T13:00:39Z</time>
      </trkpt>
      <trkpt lat="43.82533" lon="7.34562">
        <ele>455.1</ele>
        <time>2013-12-01T13:00:43Z</time>
      </trkpt>
      <trkpt lat="43.82524" lon="7.34556">
        <ele>453.9</ele>
        <time>2013-12-01T13:00:46Z</time>
      </trkpt>
      <trkpt lat="43.82519" lon="7.34542">
        <ele>453.5</ele>
        <time>2013-12-01T13:00:49Z</time>
      </trkpt>
      <trkpt lat="43.82506" lon="7.3454">
        <ele>453.1</ele>
        <time>2013-12-01T13:00:52Z</time>
      </trkpt>
      <trkpt lat="43.82498" lon="7.34528">
        <ele>451.4</ele>
        <time>2013-12-01T13:00:57Z</time>
      </trkpt>
      <trkpt lat="43.82481" lon="7.34534">
        <ele>449.1</ele>
        <time>2013-12-01T13:01:05Z</time>
      </trkpt>
      <trkpt lat="43.8248" lon="7.34549">
        <ele>448.5</ele>
        <time>2013-12-01T13:01:08Z</time>
      </trkpt>
      <trkpt lat="43.82476" lon="7.34562">
        <ele>447.5</ele>
        <time>2013-12-01T13:01:11Z</time>
      </trkpt>
      <trkpt lat="43.82467" lon="7.34563">
        <ele>444.8</ele>
        <time>2013-12-01T13:01:15Z</time>
      </trkpt>
      <trkpt lat="43.82457" lon="7.34573">
        <ele>444.4</ele>
        <time>2013-12-01T13:01:19Z</time>
      </trkpt>
      <trkpt lat="43.82447" lon="7.34583">
        <ele>443.8</ele>
        <time>2013-12-01T13:01:22Z</time>
      </trkpt>
      <trkpt lat="43.82439" lon="7.34592">
        <ele>442.1</ele>
        <time>2013-12-01T13:01:25Z</time>
      </trkpt>
      <trkpt lat="43.82432" lon="7.34583">
        <ele>440</ele>
        <time>2013-12-01T13:01:29Z</time>
      </trkpt>
      <trkpt lat="43.82429" lon="7.34571">
        <ele>442.7</ele>
        <time>2013-12-01T13:02:20Z</time>
      </trkpt>
      <trkpt lat="43.8242" lon="7.34561">
        <ele>440.8</ele>
        <time>2013-12-01T13:04:16Z</time>
      </trkpt>
      <trkpt lat="43.82418" lon="7.34549">
        <ele>440.9</ele>
        <time>2013-12-01T13:04:50Z</time>
      </trkpt>
      <trkpt lat="43.82409" lon="7.34547">
        <ele>442.3</ele>
        <time>2013-12-01T13:05:38Z</time>
      </trkpt>
      <trkpt lat="43.82412" lon="7.3456">
        <ele>441.4</ele>
        <time>2013-12-01T13:05:41Z</time>
      </trkpt>
      <trkpt lat="43.82411" lon="7.34574">
        <ele>439.2</ele>
        <time>2013-12-01T13:05:45Z</time>
      </trkpt>
      <trkpt lat="43.82404" lon="7.34585">
        <ele>438.7</ele>
        <time>2013-12-01T13:05:49Z</time>
      </trkpt>
      <trkpt lat="43.824" lon="7.34598">
        <ele>437</ele>
        <time>2013-12-01T13:05:54Z</time>
      </trkpt>
      <trkpt lat="43.82397" lon="7.34625">
        <ele>435.8</ele>
        <time>2013-12-01T13:06:01Z</time>
      </trkpt>
      <trkpt lat="43.82394" lon="7.34638">
        <ele>435</ele>
        <time>2013-12-01T13:06:04Z</time>
      </trkpt>
      <trkpt lat="43.82394" lon="7.34651">
        <ele>435</ele>
        <time>2013-12-01T13:06:07Z</time>
      </trkpt>
      <trkpt lat="43.82391" lon="7.34664">
        <ele>434.8</ele>
        <time>2013-12-01T13:06:11Z</time>
      </trkpt>
      <trkpt lat="43.82388" lon="7.34679">
        <ele>435</ele>
        <time>2013-12-01T13:06:15Z</time>
      </trkpt>
      <trkpt lat="43.82386" lon="7.34695">
        <ele>434.3</ele>
        <time>2013-12-01T13:06:18Z</time>
      </trkpt>
      <trkpt lat="43.82379" lon="7.34707">
        <ele>431.9</ele>
        <time>2013-12-01T13:06:22Z</time>
      </trkpt>
      <trkpt lat="43.82371" lon="7.34713">
        <ele>431.5</ele>
        <time>2013-12-01T13:06:25Z</time>
      </trkpt>
      <trkpt lat="43.8236" lon="7.34718">
        <ele>431.5</ele>
        <time>2013-12-01T13:06:28Z</time>
      </trkpt>
      <trkpt lat="43.82352" lon="7.34733">
        <ele>431.6</ele>
        <time>2013-12-01T13:06:32Z</time>
      </trkpt>
      <trkpt lat="43.82343" lon="7.34725">
        <ele>430.3</ele>
        <time>2013-12-01T13:06:38Z</time>
      </trkpt>
      <trkpt lat="43.8234" lon="7.34711">
        <ele>429.2</ele>
        <time>2013-12-01T13:06:43Z</time>
      </trkpt>
      <trkpt lat="43.82334" lon="7.34701">
        <ele>429.6</ele>
        <time>2013-12-01T13:06:46Z</time>
      </trkpt>
      <trkpt lat="43.82322" lon="7.34701">
        <ele>428.9</ele>
        <time>2013-12-01T13:06:50Z</time>
      </trkpt>
      <trkpt lat="43.82312" lon="7.34709">
        <ele>428.2</ele>
        <time>2013-12-01T13:06:54Z</time>
      </trkpt>
      <trkpt lat="43.82303" lon="7.34703">
        <ele>427.4</ele>
        <time>2013-12-01T13:06:58Z</time>
      </trkpt>
      <trkpt lat="43.82289" lon="7.34691">
        <ele>426.7</ele>
        <time>2013-12-01T13:07:08Z</time>
      </trkpt>
      <trkpt lat="43.82281" lon="7.34699">
        <ele>427</ele>
        <time>2013-12-01T13:07:12Z</time>
      </trkpt>
      <trkpt lat="43.82273" lon="7.34692">
        <ele>426.9</ele>
        <time>2013-12-01T13:07:21Z</time>
      </trkpt>
      <trkpt lat="43.82267" lon="7.34683">
        <ele>426.5</ele>
        <time>2013-12-01T13:07:28Z</time>
      </trkpt>
      <trkpt lat="43.82261" lon="7.34672">
        <ele>426.2</ele>
        <time>2013-12-01T13:07:35Z</time>
      </trkpt>
      <trkpt lat="43.82256" lon="7.34661">
        <ele>426.2</ele>
        <time>2013-12-01T13:07:49Z</time>
      </trkpt>
      <trkpt lat="43.82252" lon="7.34649">
        <ele>426.1</ele>
        <time>2013-12-01T13:07:54Z</time>
      </trkpt>
      <trkpt lat="43.82243" lon="7.34641">
        <ele>425.5</ele>
        <time>2013-12-01T13:07:59Z</time>
      </trkpt>
      <trkpt lat="43.82229" lon="7.34643">
        <ele>425.2</ele>
        <time>2013-12-01T13:08:09Z</time>
      </trkpt>
      <trkpt lat="43.82237" lon="7.34649">
        <ele>423</ele>
        <time>2013-12-01T13:09:18Z</time>
      </trkpt>
      <trkpt lat="43.82224" lon="7.34671">
        <ele>424.1</ele>
        <time>2013-12-01T13:10:01Z</time>
      </trkpt>
      <trkpt lat="43.82214" lon="7.34675">
        <ele>424.6</ele>
        <time>2013-12-01T13:10:05Z</time>
      </trkpt>
      <trkpt lat="43.82209" lon="7.34686">
        <ele>424.2</ele>
        <time>2013-12-01T13:10:09Z</time>
      </trkpt>
      <trkpt lat="43.82207" lon="7.347">
        <ele>423.7</ele>
        <time>2013-12-01T13:10:12Z</time>
      </trkpt>
      <trkpt lat="43.82202" lon="7.34712">
        <ele>423.4</ele>
        <time>2013-12-01T13:10:14Z</time>
      </trkpt>
      <trkpt lat="43.82192" lon="7.34715">
        <ele>422.9</ele>
        <time>2013-12-01T13:10:17Z</time>
      </trkpt>
      <trkpt lat="43.82184" lon="7.34708">
        <ele>422</ele>
        <time>2013-12-01T13:10:20Z</time>
      </trkpt>
      <trkpt lat="43.82174" lon="7.34706">
        <ele>421.5</ele>
        <time>2013-12-01T13:10:23Z</time>
      </trkpt>
      <trkpt lat="43.82158" lon="7.34697">
        <ele>421.7</ele>
        <time>2013-12-01T13:10:57Z</time>
      </trkpt>
      <trkpt lat="43.82152" lon="7.34684">
        <ele>421.3</ele>
        <time>2013-12-01T13:11:20Z</time>
      </trkpt>
      <trkpt lat="43.82148" lon="7.34673">
        <ele>421.4</ele>
        <time>2013-12-01T13:11:23Z</time>
      </trkpt>
      <trkpt lat="43.8214" lon="7.34662">
        <ele>420.2</ele>
        <time>2013-12-01T13:11:27Z</time>
      </trkpt>
      <trkpt lat="43.82127" lon="7.34651">
        <ele>420.2</ele>
        <time>2013-12-01T13:11:36Z</time>
      </trkpt>
      <trkpt lat="43.8212" lon="7.34663">
        <ele>419.6</ele>
        <time>2013-12-01T13:11:40Z</time>
      </trkpt>
      <trkpt lat="43.82119" lon="7.34677">
        <ele>419.3</ele>
        <time>2013-12-01T13:11:44Z</time>
      </trkpt>
      <trkpt lat="43.82117" lon="7.34694">
        <ele>419.4</ele>
        <time>2013-12-01T13:11:49Z</time>
      </trkpt>
      <trkpt lat="43.82109" lon="7.34706">
        <ele>419.1</ele>
        <time>2013-12-01T13:11:52Z</time>
      </trkpt>
      <trkpt lat="43.821" lon="7.34696">
        <ele>417.5</ele>
        <time>2013-12-01T13:11:56Z</time>
      </trkpt>
      <trkpt lat="43.82092" lon="7.34689">
        <ele>417.4</ele>
        <time>2013-12-01T13:11:58Z</time>
      </trkpt>
      <trkpt lat="43.82085" lon="7.34699">
        <ele>417</ele>
        <time>2013-12-01T13:12:03Z</time>
      </trkpt>
      <trkpt lat="43.82084" lon="7.34712">
        <ele>416.2</ele>
        <time>2013-12-01T13:12:07Z</time>
      </trkpt>
      <trkpt lat="43.82085" lon="7.34726">
        <ele>415.3</ele>
        <time>2013-12-01T13:12:10Z</time>
      </trkpt>
      <trkpt lat="43.82084" lon="7.34739">
        <ele>415.8</ele>
        <time>2013-12-01T13:12:26Z</time>
      </trkpt>
      <trkpt lat="43.82081" lon="7.34751">
        <ele>416.5</ele>
        <time>2013-12-01T13:12:57Z</time>
      </trkpt>
      <trkpt lat="43.82082" lon="7.34782">
        <ele>415.1</ele>
        <time>2013-12-01T13:13:06Z</time>
      </trkpt>
      <trkpt lat="43.82079" lon="7.34793">
        <ele>412.8</ele>
        <time>2013-12-01T13:13:15Z</time>
      </trkpt>
      <trkpt lat="43.8207" lon="7.348">
        <ele>412.9</ele>
        <time>2013-12-01T13:17:27Z</time>
      </trkpt>
      <trkpt lat="43.82049" lon="7.34807">
        <ele>411.4</ele>
        <time>2013-12-01T13:17:36Z</time>
      </trkpt>
      <trkpt lat="43.8204" lon="7.34801">
        <ele>411.2</ele>
        <time>2013-12-01T13:17:56Z</time>
      </trkpt>
      <trkpt lat="43.82032" lon="7.34805">
        <ele>411.1</ele>
        <time>2013-12-01T13:18:00Z</time>
      </trkpt>
      <trkpt lat="43.82022" lon="7.34807">
        <ele>410.7</ele>
        <time>2013-12-01T13:18:04Z</time>
      </trkpt>
      <trkpt lat="43.8202" lon="7.3482">
        <ele>410.2</ele>
        <time>2013-12-01T13:18:08Z</time>
      </trkpt>
      <trkpt lat="43.82011" lon="7.34815">
        <ele>409.4</ele>
        <time>2013-12-01T13:18:15Z</time>
      </trkpt>
      <trkpt lat="43.82003" lon="7.34822">
        <ele>409.7</ele>
        <time>2013-12-01T13:18:19Z</time>
      </trkpt>
      <trkpt lat="43.82" lon="7.34834">
        <ele>409.6</ele>
        <time>2013-12-01T13:18:23Z</time>
      </trkpt>
      <trkpt lat="43.81993" lon="7.34848">
        <ele>408.7</ele>
        <time>2013-12-01T13:18:28Z</time>
      </trkpt>
      <trkpt lat="43.81979" lon="7.34863">
        <ele>407.6</ele>
        <time>2013-12-01T13:18:36Z</time>
      </trkpt>
      <trkpt lat="43.81978" lon="7.3485">
        <ele>406.8</ele>
        <time>2013-12-01T13:18:42Z</time>
      </trkpt>
      <trkpt lat="43.81971" lon="7.34841">
        <ele>405.5</ele>
        <time>2013-12-01T13:18:48Z</time>
      </trkpt>
      <trkpt lat="43.81963" lon="7.34835">
        <ele>405.4</ele>
        <time>2013-12-01T13:18:51Z</time>
      </trkpt>
      <trkpt lat="43.81954" lon="7.34827">
        <ele>405.3</ele>
        <time>2013-12-01T13:18:55Z</time>
      </trkpt>
      <trkpt lat="43.81951" lon="7.34812">
        <ele>404.3</ele>
        <time>2013-12-01T13:18:59Z</time>
      </trkpt>
      <trkpt lat="43.81947" lon="7.34799">
        <ele>403.5</ele>
        <time>2013-12-01T13:19:03Z</time>
      </trkpt>
      <trkpt lat="43.81944" lon="7.34785">
        <ele>403.5</ele>
        <time>2013-12-01T13:19:07Z</time>
      </trkpt>
      <trkpt lat="43.81936" lon="7.34777">
        <ele>402.8</ele>
        <time>2013-12-01T13:19:11Z</time>
      </trkpt>
      <trkpt lat="43.81926" lon="7.34781">
        <ele>402</ele>
        <time>2013-12-01T13:19:15Z</time>
      </trkpt>
      <trkpt lat="43.81918" lon="7.34777">
        <ele>401.1</ele>
        <time>2013-12-01T13:19:19Z</time>
      </trkpt>
      <trkpt lat="43.81908" lon="7.34778">
        <ele>401.4</ele>
        <time>2013-12-01T13:19:37Z</time>
      </trkpt>
      <trkpt lat="43.81909" lon="7.34805">
        <ele>400.5</ele>
        <time>2013-12-01T13:19:47Z</time>
      </trkpt>
      <trkpt lat="43.81907" lon="7.34821">
        <ele>400.9</ele>
        <time>2013-12-01T13:19:52Z</time>
      </trkpt>
      <trkpt lat="43.81904" lon="7.34833">
        <ele>400.7</ele>
        <time>2013-12-01T13:19:55Z</time>
      </trkpt>
      <trkpt lat="43.81894" lon="7.3483">
        <ele>401.2</ele>
        <time>2013-12-01T13:19:59Z</time>
      </trkpt>
      <trkpt lat="43.81885" lon="7.34836">
        <ele>401.8</ele>
        <time>2013-12-01T13:20:03Z</time>
      </trkpt>
      <trkpt lat="43.81877" lon="7.34845">
        <ele>402.6</ele>
        <time>2013-12-01T13:20:07Z</time>
      </trkpt>
      <trkpt lat="43.81868" lon="7.34845">
        <ele>402.4</ele>
        <time>2013-12-01T13:20:11Z</time>
      </trkpt>
      <trkpt lat="43.81859" lon="7.3485">
        <ele>403.3</ele>
        <time>2013-12-01T13:20:25Z</time>
      </trkpt>
      <trkpt lat="43.8185" lon="7.34857">
        <ele>404.3</ele>
        <time>2013-12-01T13:20:30Z</time>
      </trkpt>
      <trkpt lat="43.81854" lon="7.3487">
        <ele>403.1</ele>
        <time>2013-12-01T13:20:35Z</time>
      </trkpt>
      <trkpt lat="43.81846" lon="7.34877">
        <ele>402.7</ele>
        <time>2013-12-01T13:20:40Z</time>
      </trkpt>
      <trkpt lat="43.81827" lon="7.34888">
        <ele>402.6</ele>
        <time>2013-12-01T13:20:46Z</time>
      </trkpt>
      <trkpt lat="43.81826" lon="7.34901">
        <ele>401.5</ele>
        <time>2013-12-01T13:20:51Z</time>
      </trkpt>
      <trkpt lat="43.81827" lon="7.34915">
        <ele>402.7</ele>
        <time>2013-12-01T13:20:55Z</time>
      </trkpt>
      <trkpt lat="43.81831" lon="7.34929">
        <ele>402.9</ele>
        <time>2013-12-01T13:20:59Z</time>
      </trkpt>
      <trkpt lat="43.8182" lon="7.34934">
        <ele>402</ele>
        <time>2013-12-01T13:21:03Z</time>
      </trkpt>
      <trkpt lat="43.81812" lon="7.34925">
        <ele>401.1</ele>
        <time>2013-12-01T13:21:08Z</time>
      </trkpt>
      <trkpt lat="43.81802" lon="7.34922">
        <ele>400.5</ele>
        <time>2013-12-01T13:21:12Z</time>
      </trkpt>
      <trkpt lat="43.81802" lon="7.34937">
        <ele>400.4</ele>
        <time>2013-12-01T13:21:17Z</time>
      </trkpt>
      <trkpt lat="43.818" lon="7.34951">
        <ele>400.6</ele>
        <time>2013-12-01T13:21:20Z</time>
      </trkpt>
      <trkpt lat="43.81805" lon="7.34966">
        <ele>400.8</ele>
        <time>2013-12-01T13:21:23Z</time>
      </trkpt>
      <trkpt lat="43.81809" lon="7.34983">
        <ele>399.5</ele>
        <time>2013-12-01T13:21:26Z</time>
      </trkpt>
      <trkpt lat="43.81802" lon="7.34996">
        <ele>397.8</ele>
        <time>2013-12-01T13:21:29Z</time>
      </trkpt>
      <trkpt lat="43.81793" lon="7.35005">
        <ele>396.5</ele>
        <time>2013-12-01T13:21:32Z</time>
      </trkpt>
      <trkpt lat="43.81797" lon="7.35017">
        <ele>394.8</ele>
        <time>2013-12-01T13:21:36Z</time>
      </trkpt>
      <trkpt lat="43.81789" lon="7.35025">
        <ele>393.3</ele>
        <time>2013-12-01T13:21:40Z</time>
      </trkpt>
      <trkpt lat="43.81781" lon="7.35037">
        <ele>392</ele>
        <time>2013-12-01T13:21:44Z</time>
      </trkpt>
      <trkpt lat="43.81758" lon="7.3504">
        <ele>389.9</ele>
        <time>2013-12-01T13:21:50Z</time>
      </trkpt>
      <trkpt lat="43.81748" lon="7.35034">
        <ele>390.1</ele>
        <time>2013-12-01T13:21:53Z</time>
      </trkpt>
      <trkpt lat="43.81739" lon="7.35025">
        <ele>390.3</ele>
        <time>2013-12-01T13:21:57Z</time>
      </trkpt>
      <trkpt lat="43.8173" lon="7.35021">
        <ele>389.5</ele>
        <time>2013-12-01T13:22:00Z</time>
      </trkpt>
      <trkpt lat="43.81722" lon="7.35026">
        <ele>388.4</ele>
        <time>2013-12-01T13:22:09Z</time>
      </trkpt>
      <trkpt lat="43.81717" lon="7.35037">
        <ele>388.1</ele>
        <time>2013-12-01T13:22:19Z</time>
      </trkpt>
      <trkpt lat="43.81713" lon="7.35053">
        <ele>388</ele>
        <time>2013-12-01T13:22:24Z</time>
      </trkpt>
      <trkpt lat="43.8171" lon="7.35066">
        <ele>387.4</ele>
        <time>2013-12-01T13:22:28Z</time>
      </trkpt>
      <trkpt lat="43.81712" lon="7.35079">
        <ele>387.1</ele>
        <time>2013-12-01T13:22:34Z</time>
      </trkpt>
      <trkpt lat="43.81701" lon="7.35081">
        <ele>386.2</ele>
        <time>2013-12-01T13:22:40Z</time>
      </trkpt>
      <trkpt lat="43.817" lon="7.35095">
        <ele>385.8</ele>
        <time>2013-12-01T13:22:44Z</time>
      </trkpt>
      <trkpt lat="43.81691" lon="7.35094">
        <ele>384.6</ele>
        <time>2013-12-01T13:28:07Z</time>
      </trkpt>
      <trkpt lat="43.81673" lon="7.35082">
        <ele>384.4</ele>
        <time>2013-12-01T13:28:18Z</time>
      </trkpt>
      <trkpt lat="43.81662" lon="7.3509">
        <ele>384.3</ele>
        <time>2013-12-01T13:28:21Z</time>
      </trkpt>
      <trkpt lat="43.81649" lon="7.35093">
        <ele>383.8</ele>
        <time>2013-12-01T13:28:25Z</time>
      </trkpt>
      <trkpt lat="43.81639" lon="7.35099">
        <ele>383.7</ele>
        <time>2013-12-01T13:28:27Z</time>
      </trkpt>
      <trkpt lat="43.81629" lon="7.35109">
        <ele>382.5</ele>
        <time>2013-12-01T13:28:30Z</time>
      </trkpt>
      <trkpt lat="43.8162" lon="7.35116">
        <ele>380.6</ele>
        <time>2013-12-01T13:28:34Z</time>
      </trkpt>
      <trkpt lat="43.81613" lon="7.35128">
        <ele>380.6</ele>
        <time>2013-12-01T13:28:38Z</time>
      </trkpt>
      <trkpt lat="43.81611" lon="7.35143">
        <ele>380.5</ele>
        <time>2013-12-01T13:28:41Z</time>
      </trkpt>
      <trkpt lat="43.81606" lon="7.35158">
        <ele>380.5</ele>
        <time>2013-12-01T13:28:44Z</time>
      </trkpt>
      <trkpt lat="43.81597" lon="7.35155">
        <ele>379.5</ele>
        <time>2013-12-01T13:28:49Z</time>
      </trkpt>
      <trkpt lat="43.81594" lon="7.35171">
        <ele>378.5</ele>
        <time>2013-12-01T13:28:53Z</time>
      </trkpt>
      <trkpt lat="43.81586" lon="7.35183">
        <ele>376.4</ele>
        <time>2013-12-01T13:28:56Z</time>
      </trkpt>
      <trkpt lat="43.8158" lon="7.35195">
        <ele>376.1</ele>
        <time>2013-12-01T13:28:58Z</time>
      </trkpt>
      <trkpt lat="43.81574" lon="7.35207">
        <ele>376</ele>
        <time>2013-12-01T13:29:00Z</time>
      </trkpt>
      <trkpt lat="43.81568" lon="7.35196">
        <ele>374.2</ele>
        <time>2013-12-01T13:29:05Z</time>
      </trkpt>
      <trkpt lat="43.81562" lon="7.35185">
        <ele>373.5</ele>
        <time>2013-12-01T13:29:08Z</time>
      </trkpt>
      <trkpt lat="43.81541" lon="7.35188">
        <ele>371.2</ele>
        <time>2013-12-01T13:29:18Z</time>
      </trkpt>
      <trkpt lat="43.81533" lon="7.35197">
        <ele>370.5</ele>
        <time>2013-12-01T13:29:23Z</time>
      </trkpt>
      <trkpt lat="43.81525" lon="7.35207">
        <ele>369.9</ele>
        <time>2013-12-01T13:29:26Z</time>
      </trkpt>
      <trkpt lat="43.81513" lon="7.35214">
        <ele>369.4</ele>
        <time>2013-12-01T13:29:29Z</time>
      </trkpt>
      <trkpt lat="43.81505" lon="7.35217">
        <ele>368.6</ele>
        <time>2013-12-01T13:29:31Z</time>
      </trkpt>
      <trkpt lat="43.81494" lon="7.35221">
        <ele>368.1</ele>
        <time>2013-12-01T13:29:33Z</time>
      </trkpt>
      <trkpt lat="43.81484" lon="7.35226">
        <ele>367.9</ele>
        <time>2013-12-01T13:29:35Z</time>
      </trkpt>
      <trkpt lat="43.81492" lon="7.35233">
        <ele>363.3</ele>
        <time>2013-12-01T13:29:46Z</time>
      </trkpt>
      <trkpt lat="43.81483" lon="7.35243">
        <ele>361</ele>
        <time>2013-12-01T13:29:54Z</time>
      </trkpt>
      <trkpt lat="43.81493" lon="7.3525">
        <ele>356</ele>
        <time>2013-12-01T13:30:05Z</time>
      </trkpt>
      <trkpt lat="43.81484" lon="7.35259">
        <ele>354.8</ele>
        <time>2013-12-01T13:30:11Z</time>
      </trkpt>
      <trkpt lat="43.81466" lon="7.35255">
        <ele>352.9</ele>
        <time>2013-12-01T13:30:19Z</time>
      </trkpt>
      <trkpt lat="43.81459" lon="7.35242">
        <ele>352.7</ele>
        <time>2013-12-01T13:30:22Z</time>
      </trkpt>
      <trkpt lat="43.81453" lon="7.35229">
        <ele>350.9</ele>
        <time>2013-12-01T13:30:26Z</time>
      </trkpt>
      <trkpt lat="43.81444" lon="7.35222">
        <ele>349.1</ele>
        <time>2013-12-01T13:30:29Z</time>
      </trkpt>
      <trkpt lat="43.81435" lon="7.35218">
        <ele>347.7</ele>
        <time>2013-12-01T13:30:32Z</time>
      </trkpt>
      <trkpt lat="43.8143" lon="7.35227">
        <ele>345.9</ele>
        <time>2013-12-01T13:31:24Z</time>
      </trkpt>
      <trkpt lat="43.8142" lon="7.35258">
        <ele>343.6</ele>
        <time>2013-12-01T13:32:18Z</time>
      </trkpt>
      <trkpt lat="43.81419" lon="7.35271">
        <ele>343.1</ele>
        <time>2013-12-01T13:32:20Z</time>
      </trkpt>
      <trkpt lat="43.81413" lon="7.35286">
        <ele>342.2</ele>
        <time>2013-12-01T13:32:23Z</time>
      </trkpt>
      <trkpt lat="43.81407" lon="7.35295">
        <ele>341.4</ele>
        <time>2013-12-01T13:32:25Z</time>
      </trkpt>
      <trkpt lat="43.81404" lon="7.35324">
        <ele>339.1</ele>
        <time>2013-12-01T13:32:32Z</time>
      </trkpt>
      <trkpt lat="43.81403" lon="7.3534">
        <ele>338.5</ele>
        <time>2013-12-01T13:32:35Z</time>
      </trkpt>
      <trkpt lat="43.81398" lon="7.35352">
        <ele>337.5</ele>
        <time>2013-12-01T13:32:38Z</time>
      </trkpt>
      <trkpt lat="43.81391" lon="7.35363">
        <ele>336.6</ele>
        <time>2013-12-01T13:32:41Z</time>
      </trkpt>
      <trkpt lat="43.81385" lon="7.35372">
        <ele>335.5</ele>
        <time>2013-12-01T13:32:44Z</time>
      </trkpt>
      <trkpt lat="43.81379" lon="7.35382">
        <ele>334.6</ele>
        <time>2013-12-01T13:32:46Z</time>
      </trkpt>
      <trkpt lat="43.81372" lon="7.35394">
        <ele>333.7</ele>
        <time>2013-12-01T13:32:49Z</time>
      </trkpt>
      <trkpt lat="43.81365" lon="7.35404">
        <ele>331.9</ele>
        <time>2013-12-01T13:32:52Z</time>
      </trkpt>
      <trkpt lat="43.81361" lon="7.35416">
        <ele>330.7</ele>
        <time>2013-12-01T13:32:55Z</time>
      </trkpt>
      <trkpt lat="43.81362" lon="7.35429">
        <ele>329.2</ele>
        <time>2013-12-01T13:32:59Z</time>
      </trkpt>
      <trkpt lat="43.81369" lon="7.3544">
        <ele>325.4</ele>
        <time>2013-12-01T13:33:05Z</time>
      </trkpt>
      <trkpt lat="43.81376" lon="7.35452">
        <ele>320.6</ele>
        <time>2013-12-01T13:33:11Z</time>
      </trkpt>
      <trkpt lat="43.8138" lon="7.35464">
        <ele>315.4</ele>
        <time>2013-12-01T13:33:16Z</time>
      </trkpt>
      <trkpt lat="43.81386" lon="7.3548">
        <ele>311.8</ele>
        <time>2013-12-01T13:33:19Z</time>
      </trkpt>
      <trkpt lat="43.81381" lon="7.35469">
        <ele>305.5</ele>
        <time>2013-12-01T13:38:44Z</time>
      </trkpt>
      <trkpt lat="43.81383" lon="7.35467">
        <ele>317.8</ele>
        <time>2013-12-01T13:41:07Z</time>
      </trkpt>
      <trkpt lat="43.81391" lon="7.35491">
        <ele>308.8</ele>
        <time>2013-12-01T13:41:15Z</time>
      </trkpt>
      <trkpt lat="43.81388" lon="7.35506">
        <ele>301.6</ele>
        <time>2013-12-01T13:42:56Z</time>
      </trkpt>
      <trkpt lat="43.81371" lon="7.35521">
        <ele>300.2</ele>
        <time>2013-12-01T13:43:03Z</time>
      </trkpt>
      <trkpt lat="43.81364" lon="7.3553">
        <ele>299.6</ele>
        <time>2013-12-01T13:43:07Z</time>
      </trkpt>
      <trkpt lat="43.81356" lon="7.35538">
        <ele>298.8</ele>
        <time>2013-12-01T13:43:12Z</time>
      </trkpt>
      <trkpt lat="43.81347" lon="7.35545">
        <ele>298.7</ele>
        <time>2013-12-01T13:43:16Z</time>
      </trkpt>
      <trkpt lat="43.81338" lon="7.35552">
        <ele>298.4</ele>
        <time>2013-12-01T13:43:20Z</time>
      </trkpt>
      <trkpt lat="43.81326" lon="7.35558">
        <ele>298.2</ele>
        <time>2013-12-01T13:43:24Z</time>
      </trkpt>
      <trkpt lat="43.81315" lon="7.35563">
        <ele>298.2</ele>
        <time>2013-12-01T13:43:27Z</time>
      </trkpt>
      <trkpt lat="43.81303" lon="7.35567">
        <ele>297.5</ele>
        <time>2013-12-01T13:43:30Z</time>
      </trkpt>
      <trkpt lat="43.81293" lon="7.35567">
        <ele>296.9</ele>
        <time>2013-12-01T13:43:33Z</time>
      </trkpt>
      <trkpt lat="43.81284" lon="7.35564">
        <ele>294.7</ele>
        <time>2013-12-01T13:43:40Z</time>
      </trkpt>
      <trkpt lat="43.81274" lon="7.35563">
        <ele>293</ele>
        <time>2013-12-01T13:43:45Z</time>
      </trkpt>
      <trkpt lat="43.81273" lon="7.35548">
        <ele>291.1</ele>
        <time>2013-12-01T13:43:49Z</time>
      </trkpt>
      <trkpt lat="43.81263" lon="7.35549">
        <ele>290.7</ele>
        <time>2013-12-01T13:43:55Z</time>
      </trkpt>
      <trkpt lat="43.81259" lon="7.35561">
        <ele>289.6</ele>
        <time>2013-12-01T13:43:59Z</time>
      </trkpt>
      <trkpt lat="43.81245" lon="7.35581">
        <ele>288.1</ele>
        <time>2013-12-01T13:44:05Z</time>
      </trkpt>
      <trkpt lat="43.81235" lon="7.35584">
        <ele>288.1</ele>
        <time>2013-12-01T13:44:08Z</time>
      </trkpt>
      <trkpt lat="43.81226" lon="7.35588">
        <ele>288.2</ele>
        <time>2013-12-01T13:44:10Z</time>
      </trkpt>
      <trkpt lat="43.81216" lon="7.35587">
        <ele>286.8</ele>
        <time>2013-12-01T13:44:13Z</time>
      </trkpt>
      <trkpt lat="43.81202" lon="7.35589">
        <ele>285</ele>
        <time>2013-12-01T13:44:16Z</time>
      </trkpt>
      <trkpt lat="43.81196" lon="7.3558">
        <ele>281.3</ele>
        <time>2013-12-01T13:44:20Z</time>
      </trkpt>
      <trkpt lat="43.81188" lon="7.35573">
        <ele>278</ele>
        <time>2013-12-01T13:44:46Z</time>
      </trkpt>
      <trkpt lat="43.8118" lon="7.35563">
        <ele>278</ele>
        <time>2013-12-01T13:44:49Z</time>
      </trkpt>
      <trkpt lat="43.8117" lon="7.35565">
        <ele>275.2</ele>
        <time>2013-12-01T13:44:57Z</time>
      </trkpt>
      <trkpt lat="43.81161" lon="7.35566">
        <ele>274.3</ele>
        <time>2013-12-01T13:45:01Z</time>
      </trkpt>
      <trkpt lat="43.8115" lon="7.35592">
        <ele>273.9</ele>
        <time>2013-12-01T13:46:14Z</time>
      </trkpt>
      <trkpt lat="43.81131" lon="7.35602">
        <ele>270.4</ele>
        <time>2013-12-01T13:46:22Z</time>
      </trkpt>
      <trkpt lat="43.8112" lon="7.35609">
        <ele>269.6</ele>
        <time>2013-12-01T13:46:25Z</time>
      </trkpt>
      <trkpt lat="43.81109" lon="7.35611">
        <ele>266.9</ele>
        <time>2013-12-01T13:46:29Z</time>
      </trkpt>
      <trkpt lat="43.81097" lon="7.35615">
        <ele>265.1</ele>
        <time>2013-12-01T13:46:33Z</time>
      </trkpt>
      <trkpt lat="43.81089" lon="7.35621">
        <ele>263.7</ele>
        <time>2013-12-01T13:46:35Z</time>
      </trkpt>
      <trkpt lat="43.81081" lon="7.35628">
        <ele>261.8</ele>
        <time>2013-12-01T13:46:38Z</time>
      </trkpt>
      <trkpt lat="43.81083" lon="7.35642">
        <ele>259.6</ele>
        <time>2013-12-01T13:46:42Z</time>
      </trkpt>
      <trkpt lat="43.81077" lon="7.35653">
        <ele>257.1</ele>
        <time>2013-12-01T13:46:46Z</time>
      </trkpt>
      <trkpt lat="43.81069" lon="7.35658">
        <ele>256</ele>
        <time>2013-12-01T13:46:48Z</time>
      </trkpt>
      <trkpt lat="43.81062" lon="7.35668">
        <ele>246.7</ele>
        <time>2013-12-01T13:47:57Z</time>
      </trkpt>
      <trkpt lat="43.81049" lon="7.35684">
        <ele>256.3</ele>
        <time>2013-12-01T13:51:30Z</time>
      </trkpt>
      <trkpt lat="43.81033" lon="7.35705">
        <ele>257.4</ele>
        <time>2013-12-01T13:58:47Z</time>
      </trkpt>
      <trkpt lat="43.81013" lon="7.35716">
        <ele>256.6</ele>
        <time>2013-12-01T13:58:53Z</time>
      </trkpt>
      <trkpt lat="43.81004" lon="7.35722">
        <ele>256.5</ele>
        <time>2013-12-01T13:58:55Z</time>
      </trkpt>
      <trkpt lat="43.80994" lon="7.35727">
        <ele>256.6</ele>
        <time>2013-12-01T13:58:57Z</time>
      </trkpt>
      <trkpt lat="43.80984" lon="7.35733">
        <ele>256.3</ele>
        <time>2013-12-01T13:58:59Z</time>
      </trkpt>
      <trkpt lat="43.80971" lon="7.35734">
        <ele>255.7</ele>
        <time>2013-12-01T13:59:01Z</time>
      </trkpt>
      <trkpt lat="43.80958" lon="7.35733">
        <ele>255.2</ele>
        <time>2013-12-01T13:59:03Z</time>
      </trkpt>
      <trkpt lat="43.80945" lon="7.35727">
        <ele>254.9</ele>
        <time>2013-12-01T13:59:05Z</time>
      </trkpt>
      <trkpt lat="43.80932" lon="7.35721">
        <ele>254.8</ele>
        <time>2013-12-01T13:59:07Z</time>
      </trkpt>
      <trkpt lat="43.80918" lon="7.35717">
        <ele>253.8</ele>
        <time>2013-12-01T13:59:09Z</time>
      </trkpt>
      <trkpt lat="43.80903" lon="7.35714">
        <ele>252.9</ele>
        <time>2013-12-01T13:59:11Z</time>
      </trkpt>
      <trkpt lat="43.80888" lon="7.35712">
        <ele>252.2</ele>
        <time>2013-12-01T13:59:13Z</time>
      </trkpt>
      <trkpt lat="43.80872" lon="7.3571">
        <ele>251.1</ele>
        <time>2013-12-01T13:59:15Z</time>
      </trkpt>
      <trkpt lat="43.80855" lon="7.35708">
        <ele>250.6</ele>
        <time>2013-12-01T13:59:17Z</time>
      </trkpt>
      <trkpt lat="43.80838" lon="7.35705">
        <ele>250.4</ele>
        <time>2013-12-01T13:59:19Z</time>
      </trkpt>
      <trkpt lat="43.80821" lon="7.35703">
        <ele>249.4</ele>
        <time>2013-12-01T13:59:21Z</time>
      </trkpt>
      <trkpt lat="43.80812" lon="7.35702">
        <ele>249</ele>
        <time>2013-12-01T13:59:22Z</time>
      </trkpt>
      <trkpt lat="43.80794" lon="7.35699">
        <ele>248</ele>
        <time>2013-12-01T13:59:24Z</time>
      </trkpt>
      <trkpt lat="43.80785" lon="7.35698">
        <ele>247.3</ele>
        <time>2013-12-01T13:59:25Z</time>
      </trkpt>
      <trkpt lat="43.80775" lon="7.35697">
        <ele>246.9</ele>
        <time>2013-12-01T13:59:26Z</time>
      </trkpt>
      <trkpt lat="43.80766" lon="7.35695">
        <ele>246.4</ele>
        <time>2013-12-01T13:59:27Z</time>
      </trkpt>
      <trkpt lat="43.80757" lon="7.35693">
        <ele>246.1</ele>
        <time>2013-12-01T13:59:28Z</time>
      </trkpt>
      <trkpt lat="43.8074" lon="7.35693">
        <ele>245.1</ele>
        <time>2013-12-01T13:59:30Z</time>
      </trkpt>
      <trkpt lat="43.80727" lon="7.35705">
        <ele>244.2</ele>
        <time>2013-12-01T13:59:32Z</time>
      </trkpt>
      <trkpt lat="43.8072" lon="7.35719">
        <ele>243.4</ele>
        <time>2013-12-01T13:59:34Z</time>
      </trkpt>
      <trkpt lat="43.80715" lon="7.35733">
        <ele>243.1</ele>
        <time>2013-12-01T13:59:37Z</time>
      </trkpt>
      <trkpt lat="43.80711" lon="7.35745">
        <ele>243.8</ele>
        <time>2013-12-01T13:59:41Z</time>
      </trkpt>
      <trkpt lat="43.80712" lon="7.35758">
        <ele>244.6</ele>
        <time>2013-12-01T13:59:48Z</time>
      </trkpt>
      <trkpt lat="43.80718" lon="7.35783">
        <ele>247.6</ele>
        <time>2013-12-01T14:00:09Z</time>
      </trkpt>
      <trkpt lat="43.80724" lon="7.35794">
        <ele>248.3</ele>
        <time>2013-12-01T14:00:18Z</time>
      </trkpt>
      <trkpt lat="43.80725" lon="7.35807">
        <ele>248.7</ele>
        <time>2013-12-01T14:00:27Z</time>
      </trkpt>
      <trkpt lat="43.80723" lon="7.35821">
        <ele>248.4</ele>
        <time>2013-12-01T14:00:36Z</time>
      </trkpt>
      <trkpt lat="43.80717" lon="7.35832">
        <ele>250.3</ele>
        <time>2013-12-01T14:00:44Z</time>
      </trkpt>
      <trkpt lat="43.80713" lon="7.35844">
        <ele>250.8</ele>
        <time>2013-12-01T14:00:51Z</time>
      </trkpt>
      <trkpt lat="43.80716" lon="7.3587">
        <ele>252.4</ele>
        <time>2013-12-01T14:01:06Z</time>
      </trkpt>
      <trkpt lat="43.80718" lon="7.35882">
        <ele>252.3</ele>
        <time>2013-12-01T14:01:13Z</time>
      </trkpt>
      <trkpt lat="43.80721" lon="7.35894">
        <ele>253.8</ele>
        <time>2013-12-01T14:01:20Z</time>
      </trkpt>
      <trkpt lat="43.80727" lon="7.35904">
        <ele>254.8</ele>
        <time>2013-12-01T14:01:26Z</time>
      </trkpt>
      <trkpt lat="43.80734" lon="7.35912">
        <ele>255.1</ele>
        <time>2013-12-01T14:01:33Z</time>
      </trkpt>
      <trkpt lat="43.80736" lon="7.35924">
        <ele>256.5</ele>
        <time>2013-12-01T14:01:40Z</time>
      </trkpt>
      <trkpt lat="43.80736" lon="7.35939">
        <ele>256.8</ele>
        <time>2013-12-01T14:01:48Z</time>
      </trkpt>
      <trkpt lat="43.80743" lon="7.35947">
        <ele>257.9</ele>
        <time>2013-12-01T14:01:56Z</time>
      </trkpt>
      <trkpt lat="43.80748" lon="7.35925">
        <ele>258.5</ele>
        <time>2013-12-01T14:02:12Z</time>
      </trkpt>
      <trkpt lat="43.80743" lon="7.35913">
        <ele>259.6</ele>
        <time>2013-12-01T14:02:20Z</time>
      </trkpt>
      <trkpt lat="43.8074" lon="7.35901">
        <ele>259.7</ele>
        <time>2013-12-01T14:02:27Z</time>
      </trkpt>
      <trkpt lat="43.80737" lon="7.35888">
        <ele>261.2</ele>
        <time>2013-12-01T14:02:34Z</time>
      </trkpt>
      <trkpt lat="43.80736" lon="7.35875">
        <ele>261.4</ele>
        <time>2013-12-01T14:02:41Z</time>
      </trkpt>
      <trkpt lat="43.80739" lon="7.35862">
        <ele>261.8</ele>
        <time>2013-12-01T14:02:48Z</time>
      </trkpt>
      <trkpt lat="43.80741" lon="7.35849">
        <ele>262.6</ele>
        <time>2013-12-01T14:02:55Z</time>
      </trkpt>
      <trkpt lat="43.80743" lon="7.35836">
        <ele>263.4</ele>
        <time>2013-12-01T14:03:02Z</time>
      </trkpt>
      <trkpt lat="43.80753" lon="7.35815">
        <ele>265</ele>
        <time>2013-12-01T14:03:16Z</time>
      </trkpt>
      <trkpt lat="43.80755" lon="7.35827">
        <ele>265.8</ele>
        <time>2013-12-01T14:03:22Z</time>
      </trkpt>
      <trkpt lat="43.80752" lon="7.3584">
        <ele>266.4</ele>
        <time>2013-12-01T14:03:28Z</time>
      </trkpt>
      <trkpt lat="43.8075" lon="7.35853">
        <ele>267</ele>
        <time>2013-12-01T14:03:34Z</time>
      </trkpt>
      <trkpt lat="43.80749" lon="7.35866">
        <ele>267.2</ele>
        <time>2013-12-01T14:03:41Z</time>
      </trkpt>
      <trkpt lat="43.80752" lon="7.35878">
        <ele>267.5</ele>
        <time>2013-12-01T14:03:48Z</time>
      </trkpt>
      <trkpt lat="43.80758" lon="7.35888">
        <ele>268.8</ele>
        <time>2013-12-01T14:03:55Z</time>
      </trkpt>
      <trkpt lat="43.80764" lon="7.35899">
        <ele>270.3</ele>
        <time>2013-12-01T14:04:02Z</time>
      </trkpt>
      <trkpt lat="43.8077" lon="7.3591">
        <ele>271</ele>
        <time>2013-12-01T14:04:09Z</time>
      </trkpt>
      <trkpt lat="43.80776" lon="7.35936">
        <ele>272.2</ele>
        <time>2013-12-01T14:04:23Z</time>
      </trkpt>
      <trkpt lat="43.80777" lon="7.35951">
        <ele>272.1</ele>
        <time>2013-12-01T14:04:30Z</time>
      </trkpt>
      <trkpt lat="43.80778" lon="7.35964">
        <ele>273.5</ele>
        <time>2013-12-01T14:04:37Z</time>
      </trkpt>
      <trkpt lat="43.80779" lon="7.35977">
        <ele>274.2</ele>
        <time>2013-12-01T14:04:44Z</time>
      </trkpt>
      <trkpt lat="43.80781" lon="7.3599">
        <ele>274.5</ele>
        <time>2013-12-01T14:04:51Z</time>
      </trkpt>
      <trkpt lat="43.80783" lon="7.36003">
        <ele>274.6</ele>
        <time>2013-12-01T14:04:58Z</time>
      </trkpt>
      <trkpt lat="43.80786" lon="7.36016">
        <ele>276.2</ele>
        <time>2013-12-01T14:05:06Z</time>
      </trkpt>
      <trkpt lat="43.80792" lon="7.36028">
        <ele>277</ele>
        <time>2013-12-01T14:05:14Z</time>
      </trkpt>
      <trkpt lat="43.80791" lon="7.36053">
        <ele>278.7</ele>
        <time>2013-12-01T14:05:27Z</time>
      </trkpt>
      <trkpt lat="43.80787" lon="7.36064">
        <ele>278.8</ele>
        <time>2013-12-01T14:05:33Z</time>
      </trkpt>
      <trkpt lat="43.80782" lon="7.36076">
        <ele>280</ele>
        <time>2013-12-01T14:05:40Z</time>
      </trkpt>
      <trkpt lat="43.80777" lon="7.36087">
        <ele>280.8</ele>
        <time>2013-12-01T14:05:47Z</time>
      </trkpt>
      <trkpt lat="43.80772" lon="7.36099">
        <ele>281.5</ele>
        <time>2013-12-01T14:05:54Z</time>
      </trkpt>
      <trkpt lat="43.80767" lon="7.36112">
        <ele>281.6</ele>
        <time>2013-12-01T14:06:01Z</time>
      </trkpt>
      <trkpt lat="43.80765" lon="7.36126">
        <ele>281.9</ele>
        <time>2013-12-01T14:06:08Z</time>
      </trkpt>
      <trkpt lat="43.80765" lon="7.3614">
        <ele>283.1</ele>
        <time>2013-12-01T14:06:15Z</time>
      </trkpt>
      <trkpt lat="43.80757" lon="7.36163">
        <ele>286.3</ele>
        <time>2013-12-01T14:06:27Z</time>
      </trkpt>
      <trkpt lat="43.80748" lon="7.36166">
        <ele>285.4</ele>
        <time>2013-12-01T14:06:33Z</time>
      </trkpt>
      <trkpt lat="43.80738" lon="7.36164">
        <ele>285.7</ele>
        <time>2013-12-01T14:06:39Z</time>
      </trkpt>
      <trkpt lat="43.8073" lon="7.36157">
        <ele>287.4</ele>
        <time>2013-12-01T14:06:45Z</time>
      </trkpt>
      <trkpt lat="43.80724" lon="7.36145">
        <ele>288</ele>
        <time>2013-12-01T14:06:52Z</time>
      </trkpt>
      <trkpt lat="43.80723" lon="7.36133">
        <ele>288.9</ele>
        <time>2013-12-01T14:06:58Z</time>
      </trkpt>
      <trkpt lat="43.80722" lon="7.36119">
        <ele>289.6</ele>
        <time>2013-12-01T14:07:05Z</time>
      </trkpt>
      <trkpt lat="43.80718" lon="7.36107">
        <ele>290.2</ele>
        <time>2013-12-01T14:07:11Z</time>
      </trkpt>
      <trkpt lat="43.8071" lon="7.36099">
        <ele>290.5</ele>
        <time>2013-12-01T14:07:18Z</time>
      </trkpt>
      <trkpt lat="43.80692" lon="7.36107">
        <ele>292.6</ele>
        <time>2013-12-01T14:07:29Z</time>
      </trkpt>
      <trkpt lat="43.80683" lon="7.36115">
        <ele>293</ele>
        <time>2013-12-01T14:07:35Z</time>
      </trkpt>
      <trkpt lat="43.80675" lon="7.36123">
        <ele>293.9</ele>
        <time>2013-12-01T14:07:41Z</time>
      </trkpt>
      <trkpt lat="43.80666" lon="7.36127">
        <ele>294.7</ele>
        <time>2013-12-01T14:07:48Z</time>
      </trkpt>
      <trkpt lat="43.80657" lon="7.3613">
        <ele>295.2</ele>
        <time>2013-12-01T14:07:55Z</time>
      </trkpt>
      <trkpt lat="43.80647" lon="7.36138">
        <ele>295.7</ele>
        <time>2013-12-01T14:08:01Z</time>
      </trkpt>
      <trkpt lat="43.80642" lon="7.36149">
        <ele>296.8</ele>
        <time>2013-12-01T14:08:05Z</time>
      </trkpt>
      <trkpt lat="43.80639" lon="7.36161">
        <ele>297.7</ele>
        <time>2013-12-01T14:08:10Z</time>
      </trkpt>
      <trkpt lat="43.80632" lon="7.36172">
        <ele>299.4</ele>
        <time>2013-12-01T14:11:22Z</time>
      </trkpt>
      <trkpt lat="43.80616" lon="7.3618">
        <ele>300.9</ele>
        <time>2013-12-01T14:11:35Z</time>
      </trkpt>
      <trkpt lat="43.80608" lon="7.36175">
        <ele>302.2</ele>
        <time>2013-12-01T14:11:41Z</time>
      </trkpt>
      <trkpt lat="43.806" lon="7.36168">
        <ele>302.2</ele>
        <time>2013-12-01T14:11:48Z</time>
      </trkpt>
      <trkpt lat="43.80591" lon="7.36163">
        <ele>304.5</ele>
        <time>2013-12-01T14:11:55Z</time>
      </trkpt>
      <trkpt lat="43.80581" lon="7.36159">
        <ele>305.9</ele>
        <time>2013-12-01T14:12:02Z</time>
      </trkpt>
      <trkpt lat="43.80572" lon="7.3616">
        <ele>307</ele>
        <time>2013-12-01T14:12:08Z</time>
      </trkpt>
      <trkpt lat="43.80562" lon="7.36162">
        <ele>307.8</ele>
        <time>2013-12-01T14:12:15Z</time>
      </trkpt>
      <trkpt lat="43.80552" lon="7.36165">
        <ele>308.9</ele>
        <time>2013-12-01T14:12:22Z</time>
      </trkpt>
      <trkpt lat="43.80542" lon="7.36167">
        <ele>310</ele>
        <time>2013-12-01T14:12:29Z</time>
      </trkpt>
      <trkpt lat="43.80522" lon="7.36168">
        <ele>312.8</ele>
        <time>2013-12-01T14:12:43Z</time>
      </trkpt>
      <trkpt lat="43.80512" lon="7.36169">
        <ele>313.6</ele>
        <time>2013-12-01T14:12:50Z</time>
      </trkpt>
      <trkpt lat="43.80504" lon="7.36176">
        <ele>314.6</ele>
        <time>2013-12-01T14:12:57Z</time>
      </trkpt>
      <trkpt lat="43.80499" lon="7.36189">
        <ele>315.9</ele>
        <time>2013-12-01T14:13:05Z</time>
      </trkpt>
      <trkpt lat="43.80508" lon="7.36194">
        <ele>315.6</ele>
        <time>2013-12-01T14:13:25Z</time>
      </trkpt>
      <trkpt lat="43.80518" lon="7.36197">
        <ele>316.3</ele>
        <time>2013-12-01T14:13:30Z</time>
      </trkpt>
      <trkpt lat="43.80518" lon="7.36198">
        <ele>318.8</ele>
        <time>2013-12-01T14:17:31Z</time>
      </trkpt>
      <trkpt lat="43.80497" lon="7.36189">
        <ele>316.8</ele>
        <time>2013-12-01T14:17:38Z</time>
      </trkpt>
      <trkpt lat="43.80488" lon="7.36198">
        <ele>316.8</ele>
        <time>2013-12-01T14:17:41Z</time>
      </trkpt>
      <trkpt lat="43.8048" lon="7.36209">
        <ele>316.8</ele>
        <time>2013-12-01T14:17:45Z</time>
      </trkpt>
      <trkpt lat="43.80475" lon="7.3622">
        <ele>317.4</ele>
        <time>2013-12-01T14:17:49Z</time>
      </trkpt>
      <trkpt lat="43.80474" lon="7.36234">
        <ele>317.4</ele>
        <time>2013-12-01T14:17:53Z</time>
      </trkpt>
      <trkpt lat="43.80478" lon="7.36246">
        <ele>317</ele>
        <time>2013-12-01T14:17:57Z</time>
      </trkpt>
      <trkpt lat="43.80484" lon="7.36257">
        <ele>316.7</ele>
        <time>2013-12-01T14:18:01Z</time>
      </trkpt>
      <trkpt lat="43.8049" lon="7.36267">
        <ele>317.6</ele>
        <time>2013-12-01T14:18:05Z</time>
      </trkpt>
      <trkpt lat="43.80497" lon="7.36276">
        <ele>317.9</ele>
        <time>2013-12-01T14:18:09Z</time>
      </trkpt>
      <trkpt lat="43.80503" lon="7.36285">
        <ele>317.6</ele>
        <time>2013-12-01T14:18:13Z</time>
      </trkpt>
      <trkpt lat="43.80509" lon="7.36295">
        <ele>318.4</ele>
        <time>2013-12-01T14:18:17Z</time>
      </trkpt>
      <trkpt lat="43.80514" lon="7.36306">
        <ele>318.7</ele>
        <time>2013-12-01T14:18:21Z</time>
      </trkpt>
      <trkpt lat="43.8052" lon="7.36318">
        <ele>318.6</ele>
        <time>2013-12-01T14:18:25Z</time>
      </trkpt>
      <trkpt lat="43.80525" lon="7.36331">
        <ele>318.5</ele>
        <time>2013-12-01T14:18:29Z</time>
      </trkpt>
      <trkpt lat="43.80531" lon="7.36343">
        <ele>318.2</ele>
        <time>2013-12-01T14:18:33Z</time>
      </trkpt>
      <trkpt lat="43.80547" lon="7.36365">
        <ele>317.8</ele>
        <time>2013-12-01T14:18:41Z</time>
      </trkpt>
      <trkpt lat="43.80556" lon="7.36375">
        <ele>319.2</ele>
        <time>2013-12-01T14:18:45Z</time>
      </trkpt>
      <trkpt lat="43.80563" lon="7.36384">
        <ele>318.7</ele>
        <time>2013-12-01T14:18:49Z</time>
      </trkpt>
      <trkpt lat="43.80568" lon="7.36397">
        <ele>318.9</ele>
        <time>2013-12-01T14:18:54Z</time>
      </trkpt>
      <trkpt lat="43.80569" lon="7.3641">
        <ele>319.3</ele>
        <time>2013-12-01T14:18:59Z</time>
      </trkpt>
      <trkpt lat="43.80566" lon="7.36423">
        <ele>319.5</ele>
        <time>2013-12-01T14:19:05Z</time>
      </trkpt>
      <trkpt lat="43.80562" lon="7.36434">
        <ele>321</ele>
        <time>2013-12-01T14:19:11Z</time>
      </trkpt>
      <trkpt lat="43.80557" lon="7.36445">
        <ele>321.5</ele>
        <time>2013-12-01T14:19:17Z</time>
      </trkpt>
      <trkpt lat="43.80557" lon="7.36458">
        <ele>323.3</ele>
        <time>2013-12-01T14:19:23Z</time>
      </trkpt>
      <trkpt lat="43.80552" lon="7.3647">
        <ele>323.1</ele>
        <time>2013-12-01T14:19:29Z</time>
      </trkpt>
      <trkpt lat="43.80544" lon="7.3648">
        <ele>324.6</ele>
        <time>2013-12-01T14:19:35Z</time>
      </trkpt>
      <trkpt lat="43.80526" lon="7.36491">
        <ele>326.6</ele>
        <time>2013-12-01T14:19:47Z</time>
      </trkpt>
      <trkpt lat="43.80517" lon="7.36488">
        <ele>326.5</ele>
        <time>2013-12-01T14:19:51Z</time>
      </trkpt>
      <trkpt lat="43.80507" lon="7.36485">
        <ele>325.9</ele>
        <time>2013-12-01T14:19:55Z</time>
      </trkpt>
      <trkpt lat="43.80496" lon="7.36484">
        <ele>325.7</ele>
        <time>2013-12-01T14:20:00Z</time>
      </trkpt>
      <trkpt lat="43.80488" lon="7.36492">
        <ele>327.1</ele>
        <time>2013-12-01T14:20:05Z</time>
      </trkpt>
      <trkpt lat="43.80483" lon="7.36502">
        <ele>328.2</ele>
        <time>2013-12-01T14:20:10Z</time>
      </trkpt>
      <trkpt lat="43.80475" lon="7.36511">
        <ele>328.4</ele>
        <time>2013-12-01T14:20:15Z</time>
      </trkpt>
      <trkpt lat="43.80466" lon="7.36518">
        <ele>328.2</ele>
        <time>2013-12-01T14:20:20Z</time>
      </trkpt>
      <trkpt lat="43.80457" lon="7.36525">
        <ele>329.1</ele>
        <time>2013-12-01T14:20:25Z</time>
      </trkpt>
      <trkpt lat="43.80449" lon="7.36533">
        <ele>329.3</ele>
        <time>2013-12-01T14:20:30Z</time>
      </trkpt>
      <trkpt lat="43.80441" lon="7.36542">
        <ele>329.6</ele>
        <time>2013-12-01T14:20:35Z</time>
      </trkpt>
      <trkpt lat="43.80435" lon="7.36554">
        <ele>328.9</ele>
        <time>2013-12-01T14:20:41Z</time>
      </trkpt>
      <trkpt lat="43.80429" lon="7.36582">
        <ele>330.4</ele>
        <time>2013-12-01T14:20:52Z</time>
      </trkpt>
      <trkpt lat="43.80424" lon="7.36593">
        <ele>331.4</ele>
        <time>2013-12-01T14:20:57Z</time>
      </trkpt>
      <trkpt lat="43.80417" lon="7.36603">
        <ele>331.8</ele>
        <time>2013-12-01T14:21:02Z</time>
      </trkpt>
      <trkpt lat="43.80411" lon="7.36612">
        <ele>333</ele>
        <time>2013-12-01T14:21:07Z</time>
      </trkpt>
      <trkpt lat="43.80405" lon="7.36622">
        <ele>333.4</ele>
        <time>2013-12-01T14:21:12Z</time>
      </trkpt>
      <trkpt lat="43.80397" lon="7.3663">
        <ele>334.3</ele>
        <time>2013-12-01T14:21:17Z</time>
      </trkpt>
      <trkpt lat="43.8039" lon="7.36638">
        <ele>335.1</ele>
        <time>2013-12-01T14:21:22Z</time>
      </trkpt>
      <trkpt lat="43.80383" lon="7.36647">
        <ele>336.2</ele>
        <time>2013-12-01T14:21:27Z</time>
      </trkpt>
      <trkpt lat="43.80377" lon="7.36658">
        <ele>336.8</ele>
        <time>2013-12-01T14:21:32Z</time>
      </trkpt>
      <trkpt lat="43.80372" lon="7.3667">
        <ele>337.7</ele>
        <time>2013-12-01T14:21:37Z</time>
      </trkpt>
      <trkpt lat="43.80365" lon="7.3668">
        <ele>337.6</ele>
        <time>2013-12-01T14:21:42Z</time>
      </trkpt>
      <trkpt lat="43.8035" lon="7.367">
        <ele>339.1</ele>
        <time>2013-12-01T14:21:52Z</time>
      </trkpt>
      <trkpt lat="43.80342" lon="7.36708">
        <ele>340.1</ele>
        <time>2013-12-01T14:21:57Z</time>
      </trkpt>
      <trkpt lat="43.80334" lon="7.36717">
        <ele>340.6</ele>
        <time>2013-12-01T14:22:02Z</time>
      </trkpt>
      <trkpt lat="43.80329" lon="7.36729">
        <ele>341.6</ele>
        <time>2013-12-01T14:22:08Z</time>
      </trkpt>
      <trkpt lat="43.80322" lon="7.36739">
        <ele>341.2</ele>
        <time>2013-12-01T14:22:14Z</time>
      </trkpt>
      <trkpt lat="43.80313" lon="7.36746">
        <ele>342.3</ele>
        <time>2013-12-01T14:22:20Z</time>
      </trkpt>
      <trkpt lat="43.80304" lon="7.36751">
        <ele>342</ele>
        <time>2013-12-01T14:22:25Z</time>
      </trkpt>
      <trkpt lat="43.80296" lon="7.36757">
        <ele>342.8</ele>
        <time>2013-12-01T14:22:31Z</time>
      </trkpt>
      <trkpt lat="43.80287" lon="7.36762">
        <ele>343</ele>
        <time>2013-12-01T14:22:37Z</time>
      </trkpt>
      <trkpt lat="43.80279" lon="7.3677">
        <ele>343.8</ele>
        <time>2013-12-01T14:22:43Z</time>
      </trkpt>
      <trkpt lat="43.80264" lon="7.36785">
        <ele>346.2</ele>
        <time>2013-12-01T14:22:55Z</time>
      </trkpt>
      <trkpt lat="43.80256" lon="7.36792">
        <ele>346.8</ele>
        <time>2013-12-01T14:23:02Z</time>
      </trkpt>
      <trkpt lat="43.80248" lon="7.36799">
        <ele>347.1</ele>
        <time>2013-12-01T14:23:08Z</time>
      </trkpt>
      <trkpt lat="43.8024" lon="7.36807">
        <ele>348</ele>
        <time>2013-12-01T14:23:14Z</time>
      </trkpt>
      <trkpt lat="43.80233" lon="7.36816">
        <ele>349.3</ele>
        <time>2013-12-01T14:23:20Z</time>
      </trkpt>
      <trkpt lat="43.80226" lon="7.36826">
        <ele>349.9</ele>
        <time>2013-12-01T14:23:26Z</time>
      </trkpt>
      <trkpt lat="43.80218" lon="7.36835">
        <ele>349.9</ele>
        <time>2013-12-01T14:23:32Z</time>
      </trkpt>
      <trkpt lat="43.8021" lon="7.36842">
        <ele>351.1</ele>
        <time>2013-12-01T14:23:38Z</time>
      </trkpt>
      <trkpt lat="43.80202" lon="7.3685">
        <ele>351.6</ele>
        <time>2013-12-01T14:23:44Z</time>
      </trkpt>
      <trkpt lat="43.8019" lon="7.3687">
        <ele>352.6</ele>
        <time>2013-12-01T14:23:55Z</time>
      </trkpt>
      <trkpt lat="43.80189" lon="7.36886">
        <ele>351.9</ele>
        <time>2013-12-01T14:24:00Z</time>
      </trkpt>
      <trkpt lat="43.80182" lon="7.36898">
        <ele>352.5</ele>
        <time>2013-12-01T14:24:04Z</time>
      </trkpt>
      <trkpt lat="43.80172" lon="7.36896">
        <ele>352.5</ele>
        <time>2013-12-01T14:24:08Z</time>
      </trkpt>
      <trkpt lat="43.80162" lon="7.36892">
        <ele>352</ele>
        <time>2013-12-01T14:24:13Z</time>
      </trkpt>
      <trkpt lat="43.80152" lon="7.3689">
        <ele>352.3</ele>
        <time>2013-12-01T14:24:18Z</time>
      </trkpt>
      <trkpt lat="43.80143" lon="7.36894">
        <ele>352.7</ele>
        <time>2013-12-01T14:24:23Z</time>
      </trkpt>
      <trkpt lat="43.80133" lon="7.36895">
        <ele>352.7</ele>
        <time>2013-12-01T14:24:29Z</time>
      </trkpt>
      <trkpt lat="43.80122" lon="7.36895">
        <ele>353.9</ele>
        <time>2013-12-01T14:24:35Z</time>
      </trkpt>
      <trkpt lat="43.80112" lon="7.36896">
        <ele>353.8</ele>
        <time>2013-12-01T14:24:41Z</time>
      </trkpt>
      <trkpt lat="43.80102" lon="7.369">
        <ele>353.7</ele>
        <time>2013-12-01T14:24:46Z</time>
      </trkpt>
      <trkpt lat="43.80084" lon="7.36905">
        <ele>353.2</ele>
        <time>2013-12-01T14:24:54Z</time>
      </trkpt>
      <trkpt lat="43.80075" lon="7.36907">
        <ele>353.1</ele>
        <time>2013-12-01T14:24:57Z</time>
      </trkpt>
      <trkpt lat="43.80066" lon="7.3691">
        <ele>352.9</ele>
        <time>2013-12-01T14:25:00Z</time>
      </trkpt>
      <trkpt lat="43.80053" lon="7.36913">
        <ele>352.2</ele>
        <time>2013-12-01T14:25:03Z</time>
      </trkpt>
      <trkpt lat="43.80043" lon="7.36918">
        <ele>351.3</ele>
        <time>2013-12-01T14:25:05Z</time>
      </trkpt>
      <trkpt lat="43.80031" lon="7.36921">
        <ele>350.4</ele>
        <time>2013-12-01T14:25:07Z</time>
      </trkpt>
      <trkpt lat="43.80019" lon="7.36926">
        <ele>349.6</ele>
        <time>2013-12-01T14:25:09Z</time>
      </trkpt>
      <trkpt lat="43.80009" lon="7.36936">
        <ele>348.9</ele>
        <time>2013-12-01T14:25:11Z</time>
      </trkpt>
      <trkpt lat="43.79999" lon="7.36947">
        <ele>347.9</ele>
        <time>2013-12-01T14:25:13Z</time>
      </trkpt>
      <trkpt lat="43.79987" lon="7.36959">
        <ele>347</ele>
        <time>2013-12-01T14:25:15Z</time>
      </trkpt>
      <trkpt lat="43.79973" lon="7.36964">
        <ele>346.3</ele>
        <time>2013-12-01T14:25:17Z</time>
      </trkpt>
      <trkpt lat="43.79959" lon="7.36966">
        <ele>345.4</ele>
        <time>2013-12-01T14:25:19Z</time>
      </trkpt>
      <trkpt lat="43.79946" lon="7.36967">
        <ele>344.5</ele>
        <time>2013-12-01T14:25:21Z</time>
      </trkpt>
      <trkpt lat="43.79933" lon="7.36969">
        <ele>343.8</ele>
        <time>2013-12-01T14:25:23Z</time>
      </trkpt>
      <trkpt lat="43.7992" lon="7.36969">
        <ele>342.8</ele>
        <time>2013-12-01T14:25:25Z</time>
      </trkpt>
      <trkpt lat="43.79908" lon="7.36971">
        <ele>341.9</ele>
        <time>2013-12-01T14:25:27Z</time>
      </trkpt>
      <trkpt lat="43.79898" lon="7.36978">
        <ele>341.1</ele>
        <time>2013-12-01T14:25:29Z</time>
      </trkpt>
      <trkpt lat="43.79888" lon="7.36988">
        <ele>340.6</ele>
        <time>2013-12-01T14:25:31Z</time>
      </trkpt>
      <trkpt lat="43.79878" lon="7.36998">
        <ele>340.2</ele>
        <time>2013-12-01T14:25:33Z</time>
      </trkpt>
      <trkpt lat="43.79867" lon="7.37004">
        <ele>340.1</ele>
        <time>2013-12-01T14:25:35Z</time>
      </trkpt>
      <trkpt lat="43.79856" lon="7.37009">
        <ele>340</ele>
        <time>2013-12-01T14:25:38Z</time>
      </trkpt>
      <trkpt lat="43.79848" lon="7.37016">
        <ele>340.1</ele>
        <time>2013-12-01T14:25:41Z</time>
      </trkpt>
      <trkpt lat="43.79842" lon="7.37027">
        <ele>341.4</ele>
        <time>2013-12-01T14:25:46Z</time>
      </trkpt>
      <trkpt lat="43.79844" lon="7.3704">
        <ele>341.1</ele>
        <time>2013-12-01T14:25:52Z</time>
      </trkpt>
      <trkpt lat="43.79862" lon="7.37049">
        <ele>343</ele>
        <time>2013-12-01T14:26:05Z</time>
      </trkpt>
      <trkpt lat="43.7987" lon="7.37055">
        <ele>344.8</ele>
        <time>2013-12-01T14:26:13Z</time>
      </trkpt>
      <trkpt lat="43.79877" lon="7.37065">
        <ele>345.9</ele>
        <time>2013-12-01T14:27:29Z</time>
      </trkpt>
      <trkpt lat="43.79896" lon="7.37059">
        <ele>348.9</ele>
        <time>2013-12-01T14:27:42Z</time>
      </trkpt>
      <trkpt lat="43.79904" lon="7.37052">
        <ele>349.8</ele>
        <time>2013-12-01T14:27:47Z</time>
      </trkpt>
      <trkpt lat="43.79913" lon="7.37054">
        <ele>352.5</ele>
        <time>2013-12-01T14:28:02Z</time>
      </trkpt>
      <trkpt lat="43.79909" lon="7.37065">
        <ele>355.8</ele>
        <time>2013-12-01T14:28:36Z</time>
      </trkpt>
      <trkpt lat="43.79898" lon="7.37086">
        <ele>355.6</ele>
        <time>2013-12-01T14:29:03Z</time>
      </trkpt>
      <trkpt lat="43.79888" lon="7.37087">
        <ele>354.9</ele>
        <time>2013-12-01T14:29:08Z</time>
      </trkpt>
      <trkpt lat="43.79876" lon="7.37086">
        <ele>354.5</ele>
        <time>2013-12-01T14:29:10Z</time>
      </trkpt>
      <trkpt lat="43.79866" lon="7.37084">
        <ele>353.6</ele>
        <time>2013-12-01T14:29:12Z</time>
      </trkpt>
      <trkpt lat="43.79854" lon="7.37081">
        <ele>352.6</ele>
        <time>2013-12-01T14:29:14Z</time>
      </trkpt>
      <trkpt lat="43.79844" lon="7.3707">
        <ele>350.8</ele>
        <time>2013-12-01T14:29:16Z</time>
      </trkpt>
      <trkpt lat="43.79853" lon="7.37064">
        <ele>349</ele>
        <time>2013-12-01T14:29:18Z</time>
      </trkpt>
      <trkpt lat="43.79862" lon="7.37064">
        <ele>347.3</ele>
        <time>2013-12-01T14:29:20Z</time>
      </trkpt>
      <trkpt lat="43.79872" lon="7.37063">
        <ele>346.2</ele>
        <time>2013-12-01T14:29:24Z</time>
      </trkpt>
      <trkpt lat="43.79883" lon="7.37061">
        <ele>347</ele>
        <time>2013-12-01T14:29:29Z</time>
      </trkpt>
      <trkpt lat="43.79892" lon="7.37059">
        <ele>348.8</ele>
        <time>2013-12-01T14:29:34Z</time>
      </trkpt>
      <trkpt lat="43.79902" lon="7.37052">
        <ele>350.4</ele>
        <time>2013-12-01T14:29:39Z</time>
      </trkpt>
      <trkpt lat="43.79907" lon="7.37065">
        <ele>355.5</ele>
        <time>2013-12-01T14:30:05Z</time>
      </trkpt>
      <trkpt lat="43.79905" lon="7.37078">
        <ele>355.9</ele>
        <time>2013-12-01T14:30:10Z</time>
      </trkpt>
      <trkpt lat="43.79897" lon="7.37084">
        <ele>355.8</ele>
        <time>2013-12-01T14:30:18Z</time>
      </trkpt>
      <trkpt lat="43.79887" lon="7.37087">
        <ele>355.4</ele>
        <time>2013-12-01T14:30:45Z</time>
      </trkpt>
      <trkpt lat="43.79865" lon="7.37083">
        <ele>355.2</ele>
        <time>2013-12-01T14:30:49Z</time>
      </trkpt>
      <trkpt lat="43.79853" lon="7.37081">
        <ele>353.9</ele>
        <time>2013-12-01T14:30:51Z</time>
      </trkpt>
      <trkpt lat="43.79847" lon="7.37069">
        <ele>352.4</ele>
        <time>2013-12-01T14:30:53Z</time>
      </trkpt>
      <trkpt lat="43.79856" lon="7.37066">
        <ele>349.7</ele>
        <time>2013-12-01T14:30:55Z</time>
      </trkpt>
      <trkpt lat="43.79867" lon="7.37064">
        <ele>347.5</ele>
        <time>2013-12-01T14:30:58Z</time>
      </trkpt>
      <trkpt lat="43.79874" lon="7.37056">
        <ele>346.1</ele>
        <time>2013-12-01T14:31:08Z</time>
      </trkpt>
      <trkpt lat="43.79865" lon="7.37048">
        <ele>345.6</ele>
        <time>2013-12-01T14:33:28Z</time>
      </trkpt>
      <trkpt lat="43.79841" lon="7.37037">
        <ele>344.2</ele>
        <time>2013-12-01T14:33:35Z</time>
      </trkpt>
      <trkpt lat="43.79831" lon="7.37037">
        <ele>343.8</ele>
        <time>2013-12-01T14:33:37Z</time>
      </trkpt>
      <trkpt lat="43.79821" lon="7.37038">
        <ele>343.6</ele>
        <time>2013-12-01T14:33:39Z</time>
      </trkpt>
      <trkpt lat="43.79811" lon="7.37038">
        <ele>343.3</ele>
        <time>2013-12-01T14:33:41Z</time>
      </trkpt>
      <trkpt lat="43.79801" lon="7.37037">
        <ele>343</ele>
        <time>2013-12-01T14:33:43Z</time>
      </trkpt>
      <trkpt lat="43.79791" lon="7.37032">
        <ele>342.7</ele>
        <time>2013-12-01T14:33:45Z</time>
      </trkpt>
      <trkpt lat="43.79782" lon="7.37031">
        <ele>342</ele>
        <time>2013-12-01T14:33:48Z</time>
      </trkpt>
      <trkpt lat="43.79773" lon="7.37032">
        <ele>342.8</ele>
        <time>2013-12-01T14:33:51Z</time>
      </trkpt>
      <trkpt lat="43.79764" lon="7.37035">
        <ele>341.8</ele>
        <time>2013-12-01T14:33:54Z</time>
      </trkpt>
      <trkpt lat="43.79755" lon="7.37039">
        <ele>340.9</ele>
        <time>2013-12-01T14:33:56Z</time>
      </trkpt>
      <trkpt lat="43.79746" lon="7.37042">
        <ele>340.2</ele>
        <time>2013-12-01T14:33:58Z</time>
      </trkpt>
      <trkpt lat="43.79737" lon="7.37045">
        <ele>339.8</ele>
        <time>2013-12-01T14:34:00Z</time>
      </trkpt>
      <trkpt lat="43.79725" lon="7.37051">
        <ele>338.6</ele>
        <time>2013-12-01T14:34:03Z</time>
      </trkpt>
      <trkpt lat="43.79713" lon="7.37056">
        <ele>337.2</ele>
        <time>2013-12-01T14:34:06Z</time>
      </trkpt>
      <trkpt lat="43.79702" lon="7.37051">
        <ele>336.7</ele>
        <time>2013-12-01T14:34:09Z</time>
      </trkpt>
      <trkpt lat="43.79694" lon="7.37057">
        <ele>336.9</ele>
        <time>2013-12-01T14:34:12Z</time>
      </trkpt>
      <trkpt lat="43.79681" lon="7.37062">
        <ele>336.7</ele>
        <time>2013-12-01T14:34:15Z</time>
      </trkpt>
      <trkpt lat="43.79671" lon="7.37063">
        <ele>336.3</ele>
        <time>2013-12-01T14:34:17Z</time>
      </trkpt>
      <trkpt lat="43.7966" lon="7.37064">
        <ele>335.4</ele>
        <time>2013-12-01T14:34:20Z</time>
      </trkpt>
      <trkpt lat="43.79647" lon="7.37069">
        <ele>334.4</ele>
        <time>2013-12-01T14:34:23Z</time>
      </trkpt>
      <trkpt lat="43.79636" lon="7.37072">
        <ele>333.7</ele>
        <time>2013-12-01T14:34:25Z</time>
      </trkpt>
      <trkpt lat="43.79623" lon="7.37074">
        <ele>333.3</ele>
        <time>2013-12-01T14:34:27Z</time>
      </trkpt>
      <trkpt lat="43.79608" lon="7.37074">
        <ele>332.9</ele>
        <time>2013-12-01T14:34:29Z</time>
      </trkpt>
      <trkpt lat="43.79579" lon="7.37072">
        <ele>332.7</ele>
        <time>2013-12-01T14:34:33Z</time>
      </trkpt>
      <trkpt lat="43.79569" lon="7.37075">
        <ele>331.3</ele>
        <time>2013-12-01T14:34:41Z</time>
      </trkpt>
      <trkpt lat="43.79557" lon="7.37076">
        <ele>330.8</ele>
        <time>2013-12-01T14:34:44Z</time>
      </trkpt>
      <trkpt lat="43.79547" lon="7.37074">
        <ele>330.3</ele>
        <time>2013-12-01T14:34:46Z</time>
      </trkpt>
      <trkpt lat="43.79537" lon="7.37074">
        <ele>330.8</ele>
        <time>2013-12-01T14:34:48Z</time>
      </trkpt>
      <trkpt lat="43.79527" lon="7.37073">
        <ele>330.4</ele>
        <time>2013-12-01T14:34:50Z</time>
      </trkpt>
      <trkpt lat="43.79516" lon="7.37073">
        <ele>329.8</ele>
        <time>2013-12-01T14:34:52Z</time>
      </trkpt>
      <trkpt lat="43.79506" lon="7.37073">
        <ele>329.4</ele>
        <time>2013-12-01T14:34:54Z</time>
      </trkpt>
      <trkpt lat="43.79497" lon="7.37074">
        <ele>328.9</ele>
        <time>2013-12-01T14:34:56Z</time>
      </trkpt>
      <trkpt lat="43.79487" lon="7.37075">
        <ele>328.2</ele>
        <time>2013-12-01T14:35:01Z</time>
      </trkpt>
      <trkpt lat="43.79478" lon="7.3707">
        <ele>326.9</ele>
        <time>2013-12-01T14:35:12Z</time>
      </trkpt>
      <trkpt lat="43.79468" lon="7.37065">
        <ele>326.5</ele>
        <time>2013-12-01T14:35:16Z</time>
      </trkpt>
      <trkpt lat="43.79459" lon="7.37061">
        <ele>326.1</ele>
        <time>2013-12-01T14:35:20Z</time>
      </trkpt>
      <trkpt lat="43.79448" lon="7.37056">
        <ele>326.3</ele>
        <time>2013-12-01T14:35:24Z</time>
      </trkpt>
      <trkpt lat="43.79439" lon="7.37046">
        <ele>326.3</ele>
        <time>2013-12-01T14:35:28Z</time>
      </trkpt>
      <trkpt lat="43.79435" lon="7.3703">
        <ele>327.1</ele>
        <time>2013-12-01T14:35:36Z</time>
      </trkpt>
      <trkpt lat="43.7942" lon="7.37005">
        <ele>323.4</ele>
        <time>2013-12-01T14:35:40Z</time>
      </trkpt>
      <trkpt lat="43.7941" lon="7.36995">
        <ele>322.3</ele>
        <time>2013-12-01T14:35:42Z</time>
      </trkpt>
      <trkpt lat="43.79402" lon="7.36986">
        <ele>321.8</ele>
        <time>2013-12-01T14:35:44Z</time>
      </trkpt>
      <trkpt lat="43.79393" lon="7.36979">
        <ele>321.6</ele>
        <time>2013-12-01T14:35:46Z</time>
      </trkpt>
      <trkpt lat="43.79384" lon="7.36972">
        <ele>321.3</ele>
        <time>2013-12-01T14:35:48Z</time>
      </trkpt>
      <trkpt lat="43.79373" lon="7.36966">
        <ele>321</ele>
        <time>2013-12-01T14:35:50Z</time>
      </trkpt>
      <trkpt lat="43.79362" lon="7.36961">
        <ele>321</ele>
        <time>2013-12-01T14:35:52Z</time>
      </trkpt>
      <trkpt lat="43.79352" lon="7.36955">
        <ele>320.9</ele>
        <time>2013-12-01T14:35:54Z</time>
      </trkpt>
      <trkpt lat="43.79341" lon="7.36949">
        <ele>320.9</ele>
        <time>2013-12-01T14:35:56Z</time>
      </trkpt>
      <trkpt lat="43.79332" lon="7.3695">
        <ele>320.6</ele>
        <time>2013-12-01T14:35:58Z</time>
      </trkpt>
      <trkpt lat="43.79323" lon="7.36951">
        <ele>320.4</ele>
        <time>2013-12-01T14:36:00Z</time>
      </trkpt>
      <trkpt lat="43.79317" lon="7.36962">
        <ele>321.2</ele>
        <time>2013-12-01T14:36:12Z</time>
      </trkpt>
      <trkpt lat="43.79308" lon="7.36956">
        <ele>320.6</ele>
        <time>2013-12-01T14:36:20Z</time>
      </trkpt>
      <trkpt lat="43.79299" lon="7.36949">
        <ele>320</ele>
        <time>2013-12-01T14:36:25Z</time>
      </trkpt>
      <trkpt lat="43.7929" lon="7.36939">
        <ele>319.8</ele>
        <time>2013-12-01T14:36:28Z</time>
      </trkpt>
      <trkpt lat="43.79278" lon="7.36931">
        <ele>320.2</ele>
        <time>2013-12-01T14:36:31Z</time>
      </trkpt>
      <trkpt lat="43.79267" lon="7.36924">
        <ele>319.6</ele>
        <time>2013-12-01T14:36:34Z</time>
      </trkpt>
      <trkpt lat="43.79255" lon="7.36916">
        <ele>318.9</ele>
        <time>2013-12-01T14:36:37Z</time>
      </trkpt>
      <trkpt lat="43.79233" lon="7.369">
        <ele>318</ele>
        <time>2013-12-01T14:36:43Z</time>
      </trkpt>
      <trkpt lat="43.79222" lon="7.36893">
        <ele>318.3</ele>
        <time>2013-12-01T14:36:46Z</time>
      </trkpt>
      <trkpt lat="43.79211" lon="7.36888">
        <ele>317.6</ele>
        <time>2013-12-01T14:36:49Z</time>
      </trkpt>
      <trkpt lat="43.792" lon="7.36887">
        <ele>316.9</ele>
        <time>2013-12-01T14:36:53Z</time>
      </trkpt>
      <trkpt lat="43.7919" lon="7.36883">
        <ele>316.9</ele>
        <time>2013-12-01T14:36:58Z</time>
      </trkpt>
      <trkpt lat="43.79186" lon="7.3687">
        <ele>318.1</ele>
        <time>2013-12-01T14:37:03Z</time>
      </trkpt>
      <trkpt lat="43.79183" lon="7.36858">
        <ele>318.8</ele>
        <time>2013-12-01T14:37:08Z</time>
      </trkpt>
      <trkpt lat="43.79181" lon="7.36844">
        <ele>318.9</ele>
        <time>2013-12-01T14:37:14Z</time>
      </trkpt>
      <trkpt lat="43.7918" lon="7.36831">
        <ele>320.6</ele>
        <time>2013-12-01T14:37:19Z</time>
      </trkpt>
      <trkpt lat="43.79179" lon="7.36817">
        <ele>322.4</ele>
        <time>2013-12-01T14:37:25Z</time>
      </trkpt>
      <trkpt lat="43.79177" lon="7.36804">
        <ele>323.5</ele>
        <time>2013-12-01T14:37:31Z</time>
      </trkpt>
      <trkpt lat="43.79174" lon="7.36792">
        <ele>323.5</ele>
        <time>2013-12-01T14:37:37Z</time>
      </trkpt>
      <trkpt lat="43.79168" lon="7.36781">
        <ele>324.4</ele>
        <time>2013-12-01T14:37:43Z</time>
      </trkpt>
      <trkpt lat="43.79151" lon="7.36771">
        <ele>326.2</ele>
        <time>2013-12-01T14:37:55Z</time>
      </trkpt>
      <trkpt lat="43.79141" lon="7.3677">
        <ele>325.9</ele>
        <time>2013-12-01T14:38:01Z</time>
      </trkpt>
      <trkpt lat="43.79131" lon="7.36772">
        <ele>327.2</ele>
        <time>2013-12-01T14:38:07Z</time>
      </trkpt>
      <trkpt lat="43.79121" lon="7.36775">
        <ele>328.7</ele>
        <time>2013-12-01T14:38:13Z</time>
      </trkpt>
      <trkpt lat="43.79111" lon="7.3678">
        <ele>329.5</ele>
        <time>2013-12-01T14:38:19Z</time>
      </trkpt>
      <trkpt lat="43.79101" lon="7.3678">
        <ele>330.3</ele>
        <time>2013-12-01T14:38:25Z</time>
      </trkpt>
      <trkpt lat="43.79092" lon="7.36778">
        <ele>331.1</ele>
        <time>2013-12-01T14:38:31Z</time>
      </trkpt>
      <trkpt lat="43.79083" lon="7.36777">
        <ele>333.1</ele>
        <time>2013-12-01T14:38:37Z</time>
      </trkpt>
      <trkpt lat="43.79073" lon="7.36775">
        <ele>334</ele>
        <time>2013-12-01T14:38:43Z</time>
      </trkpt>
      <trkpt lat="43.79063" lon="7.36773">
        <ele>335.4</ele>
        <time>2013-12-01T14:38:49Z</time>
      </trkpt>
      <trkpt lat="43.79043" lon="7.3677">
        <ele>337</ele>
        <time>2013-12-01T14:39:01Z</time>
      </trkpt>
      <trkpt lat="43.79032" lon="7.3677">
        <ele>338</ele>
        <time>2013-12-01T14:39:07Z</time>
      </trkpt>
      <trkpt lat="43.79022" lon="7.3677">
        <ele>337.8</ele>
        <time>2013-12-01T14:39:13Z</time>
      </trkpt>
      <trkpt lat="43.79011" lon="7.3677">
        <ele>339.2</ele>
        <time>2013-12-01T14:39:19Z</time>
      </trkpt>
      <trkpt lat="43.79" lon="7.3677">
        <ele>339.8</ele>
        <time>2013-12-01T14:39:25Z</time>
      </trkpt>
      <trkpt lat="43.7899" lon="7.36769">
        <ele>341.3</ele>
        <time>2013-12-01T14:39:31Z</time>
      </trkpt>
      <trkpt lat="43.78981" lon="7.36769">
        <ele>341.4</ele>
        <time>2013-12-01T14:39:36Z</time>
      </trkpt>
      <trkpt lat="43.78971" lon="7.36769">
        <ele>342.5</ele>
        <time>2013-12-01T14:39:42Z</time>
      </trkpt>
      <trkpt lat="43.78962" lon="7.36767">
        <ele>344.3</ele>
        <time>2013-12-01T14:40:51Z</time>
      </trkpt>
      <trkpt lat="43.78933" lon="7.3677">
        <ele>347.5</ele>
        <time>2013-12-01T14:46:30Z</time>
      </trkpt>
      <trkpt lat="43.78923" lon="7.36768">
        <ele>348.3</ele>
        <time>2013-12-01T14:46:36Z</time>
      </trkpt>
      <trkpt lat="43.78915" lon="7.36763">
        <ele>349.2</ele>
        <time>2013-12-01T14:46:42Z</time>
      </trkpt>
      <trkpt lat="43.7891" lon="7.36752">
        <ele>349.5</ele>
        <time>2013-12-01T14:46:51Z</time>
      </trkpt>
      <trkpt lat="43.78908" lon="7.36739">
        <ele>349.5</ele>
        <time>2013-12-01T14:46:56Z</time>
      </trkpt>
      <trkpt lat="43.78902" lon="7.36726">
        <ele>348</ele>
        <time>2013-12-01T14:46:59Z</time>
      </trkpt>
      <trkpt lat="43.78898" lon="7.36715">
        <ele>345.8</ele>
        <time>2013-12-01T14:47:02Z</time>
      </trkpt>
      <trkpt lat="43.78896" lon="7.36699">
        <ele>342.4</ele>
        <time>2013-12-01T14:47:05Z</time>
      </trkpt>
      <trkpt lat="43.78899" lon="7.36682">
        <ele>336.9</ele>
        <time>2013-12-01T14:47:10Z</time>
      </trkpt>
      <trkpt lat="43.78897" lon="7.36667">
        <ele>333.9</ele>
        <time>2013-12-01T14:47:13Z</time>
      </trkpt>
      <trkpt lat="43.78894" lon="7.36652">
        <ele>331.6</ele>
        <time>2013-12-01T14:47:17Z</time>
      </trkpt>
      <trkpt lat="43.78876" lon="7.36653">
        <ele>329.5</ele>
        <time>2013-12-01T14:49:30Z</time>
      </trkpt>
      <trkpt lat="43.78865" lon="7.36675">
        <ele>327.8</ele>
        <time>2013-12-01T14:49:43Z</time>
      </trkpt>
      <trkpt lat="43.78856" lon="7.36683">
        <ele>328.3</ele>
        <time>2013-12-01T14:49:49Z</time>
      </trkpt>
      <trkpt lat="43.78847" lon="7.36687">
        <ele>328.8</ele>
        <time>2013-12-01T14:49:54Z</time>
      </trkpt>
      <trkpt lat="43.78837" lon="7.36688">
        <ele>328.7</ele>
        <time>2013-12-01T14:49:59Z</time>
      </trkpt>
      <trkpt lat="43.78826" lon="7.36692">
        <ele>329.3</ele>
        <time>2013-12-01T14:50:04Z</time>
      </trkpt>
      <trkpt lat="43.78817" lon="7.36695">
        <ele>329.9</ele>
        <time>2013-12-01T14:50:08Z</time>
      </trkpt>
      <trkpt lat="43.78807" lon="7.36699">
        <ele>331</ele>
        <time>2013-12-01T14:50:13Z</time>
      </trkpt>
      <trkpt lat="43.78798" lon="7.36701">
        <ele>330.2</ele>
        <time>2013-12-01T14:50:17Z</time>
      </trkpt>
      <trkpt lat="43.78787" lon="7.36704">
        <ele>330.1</ele>
        <time>2013-12-01T14:50:22Z</time>
      </trkpt>
      <trkpt lat="43.78777" lon="7.36707">
        <ele>330.2</ele>
        <time>2013-12-01T14:50:27Z</time>
      </trkpt>
      <trkpt lat="43.78768" lon="7.36709">
        <ele>330.7</ele>
        <time>2013-12-01T14:50:31Z</time>
      </trkpt>
      <trkpt lat="43.78749" lon="7.36709">
        <ele>330.9</ele>
        <time>2013-12-01T14:50:39Z</time>
      </trkpt>
      <trkpt lat="43.78739" lon="7.36708">
        <ele>331.4</ele>
        <time>2013-12-01T14:50:43Z</time>
      </trkpt>
      <trkpt lat="43.7873" lon="7.36705">
        <ele>331.3</ele>
        <time>2013-12-01T14:50:47Z</time>
      </trkpt>
      <trkpt lat="43.78721" lon="7.36701">
        <ele>331.7</ele>
        <time>2013-12-01T14:50:51Z</time>
      </trkpt>
      <trkpt lat="43.78712" lon="7.36697">
        <ele>332.2</ele>
        <time>2013-12-01T14:50:55Z</time>
      </trkpt>
      <trkpt lat="43.78703" lon="7.36694">
        <ele>331.8</ele>
        <time>2013-12-01T14:50:59Z</time>
      </trkpt>
      <trkpt lat="43.78693" lon="7.36692">
        <ele>332.3</ele>
        <time>2013-12-01T14:51:03Z</time>
      </trkpt>
      <trkpt lat="43.78684" lon="7.3669">
        <ele>333.2</ele>
        <time>2013-12-01T14:51:07Z</time>
      </trkpt>
      <trkpt lat="43.78674" lon="7.36691">
        <ele>333.7</ele>
        <time>2013-12-01T14:51:11Z</time>
      </trkpt>
      <trkpt lat="43.78664" lon="7.36693">
        <ele>334.2</ele>
        <time>2013-12-01T14:51:15Z</time>
      </trkpt>
      <trkpt lat="43.78653" lon="7.36694">
        <ele>334.3</ele>
        <time>2013-12-01T14:51:19Z</time>
      </trkpt>
      <trkpt lat="43.78643" lon="7.36695">
        <ele>334.9</ele>
        <time>2013-12-01T14:51:23Z</time>
      </trkpt>
      <trkpt lat="43.78631" lon="7.36696">
        <ele>334.6</ele>
        <time>2013-12-01T14:51:27Z</time>
      </trkpt>
      <trkpt lat="43.78623" lon="7.36701">
        <ele>334.9</ele>
        <time>2013-12-01T14:51:30Z</time>
      </trkpt>
      <trkpt lat="43.78614" lon="7.3671">
        <ele>336.1</ele>
        <time>2013-12-01T14:51:35Z</time>
      </trkpt>
      <trkpt lat="43.78618" lon="7.36742">
        <ele>336.7</ele>
        <time>2013-12-01T14:51:43Z</time>
      </trkpt>
      <trkpt lat="43.78616" lon="7.36755">
        <ele>335.6</ele>
        <time>2013-12-01T14:51:47Z</time>
      </trkpt>
      <trkpt lat="43.78611" lon="7.36769">
        <ele>335.5</ele>
        <time>2013-12-01T14:51:51Z</time>
      </trkpt>
      <trkpt lat="43.78603" lon="7.36778">
        <ele>335.6</ele>
        <time>2013-12-01T14:51:55Z</time>
      </trkpt>
      <trkpt lat="43.78595" lon="7.36785">
        <ele>335.7</ele>
        <time>2013-12-01T14:51:59Z</time>
      </trkpt>
      <trkpt lat="43.78584" lon="7.36789">
        <ele>335.5</ele>
        <time>2013-12-01T14:52:03Z</time>
      </trkpt>
      <trkpt lat="43.78575" lon="7.36786">
        <ele>334.8</ele>
        <time>2013-12-01T14:52:07Z</time>
      </trkpt>
      <trkpt lat="43.78566" lon="7.36783">
        <ele>335.3</ele>
        <time>2013-12-01T14:52:11Z</time>
      </trkpt>
      <trkpt lat="43.78557" lon="7.36782">
        <ele>336.2</ele>
        <time>2013-12-01T14:52:15Z</time>
      </trkpt>
      <trkpt lat="43.78546" lon="7.36779">
        <ele>336.2</ele>
        <time>2013-12-01T14:52:20Z</time>
      </trkpt>
      <trkpt lat="43.78536" lon="7.36779">
        <ele>336.3</ele>
        <time>2013-12-01T14:52:25Z</time>
      </trkpt>
      <trkpt lat="43.78527" lon="7.36781">
        <ele>336.8</ele>
        <time>2013-12-01T14:52:30Z</time>
      </trkpt>
      <trkpt lat="43.78518" lon="7.36784">
        <ele>337.3</ele>
        <time>2013-12-01T14:52:34Z</time>
      </trkpt>
      <trkpt lat="43.78508" lon="7.36789">
        <ele>337.7</ele>
        <time>2013-12-01T14:52:39Z</time>
      </trkpt>
      <trkpt lat="43.78489" lon="7.36789">
        <ele>339.6</ele>
        <time>2013-12-01T14:52:49Z</time>
      </trkpt>
      <trkpt lat="43.78479" lon="7.36784">
        <ele>339.9</ele>
        <time>2013-12-01T14:52:54Z</time>
      </trkpt>
      <trkpt lat="43.7847" lon="7.36783">
        <ele>340.2</ele>
        <time>2013-12-01T14:52:58Z</time>
      </trkpt>
      <trkpt lat="43.78461" lon="7.36776">
        <ele>341.3</ele>
        <time>2013-12-01T14:53:03Z</time>
      </trkpt>
      <trkpt lat="43.78453" lon="7.36769">
        <ele>341.4</ele>
        <time>2013-12-01T14:53:08Z</time>
      </trkpt>
      <trkpt lat="43.78445" lon="7.36762">
        <ele>342.1</ele>
        <time>2013-12-01T14:53:14Z</time>
      </trkpt>
      <trkpt lat="43.78436" lon="7.36756">
        <ele>341.9</ele>
        <time>2013-12-01T14:53:20Z</time>
      </trkpt>
      <trkpt lat="43.78428" lon="7.36753">
        <ele>343.2</ele>
        <time>2013-12-01T14:53:26Z</time>
      </trkpt>
      <trkpt lat="43.7842" lon="7.36744">
        <ele>344.1</ele>
        <time>2013-12-01T14:53:33Z</time>
      </trkpt>
      <trkpt lat="43.78413" lon="7.36734">
        <ele>346.1</ele>
        <time>2013-12-01T14:53:39Z</time>
      </trkpt>
      <trkpt lat="43.78406" lon="7.36724">
        <ele>346.1</ele>
        <time>2013-12-01T14:53:44Z</time>
      </trkpt>
      <trkpt lat="43.78392" lon="7.36705">
        <ele>347.2</ele>
        <time>2013-12-01T14:53:55Z</time>
      </trkpt>
      <trkpt lat="43.78386" lon="7.36696">
        <ele>347.3</ele>
        <time>2013-12-01T14:54:00Z</time>
      </trkpt>
      <trkpt lat="43.78379" lon="7.36684">
        <ele>347.3</ele>
        <time>2013-12-01T14:54:05Z</time>
      </trkpt>
      <trkpt lat="43.78371" lon="7.36674">
        <ele>348.3</ele>
        <time>2013-12-01T14:54:10Z</time>
      </trkpt>
      <trkpt lat="43.78365" lon="7.36663">
        <ele>348.9</ele>
        <time>2013-12-01T14:54:15Z</time>
      </trkpt>
      <trkpt lat="43.78357" lon="7.36653">
        <ele>349.2</ele>
        <time>2013-12-01T14:54:20Z</time>
      </trkpt>
      <trkpt lat="43.78349" lon="7.36644">
        <ele>349.6</ele>
        <time>2013-12-01T14:54:25Z</time>
      </trkpt>
      <trkpt lat="43.78342" lon="7.36636">
        <ele>350.5</ele>
        <time>2013-12-01T14:54:30Z</time>
      </trkpt>
      <trkpt lat="43.78335" lon="7.36626">
        <ele>350.9</ele>
        <time>2013-12-01T14:54:35Z</time>
      </trkpt>
      <trkpt lat="43.78331" lon="7.36614">
        <ele>351.5</ele>
        <time>2013-12-01T14:54:40Z</time>
      </trkpt>
      <trkpt lat="43.78326" lon="7.36601">
        <ele>352.8</ele>
        <time>2013-12-01T14:54:45Z</time>
      </trkpt>
      <trkpt lat="43.78316" lon="7.36577">
        <ele>353.4</ele>
        <time>2013-12-01T14:54:55Z</time>
      </trkpt>
      <trkpt lat="43.78311" lon="7.36566">
        <ele>353.9</ele>
        <time>2013-12-01T14:55:00Z</time>
      </trkpt>
      <trkpt lat="43.78304" lon="7.36556">
        <ele>354.6</ele>
        <time>2013-12-01T14:55:06Z</time>
      </trkpt>
      <trkpt lat="43.78298" lon="7.36543">
        <ele>355.7</ele>
        <time>2013-12-01T14:55:12Z</time>
      </trkpt>
      <trkpt lat="43.78293" lon="7.36532">
        <ele>356.9</ele>
        <time>2013-12-01T14:55:17Z</time>
      </trkpt>
      <trkpt lat="43.78286" lon="7.36519">
        <ele>357.1</ele>
        <time>2013-12-01T14:55:22Z</time>
      </trkpt>
      <trkpt lat="43.7828" lon="7.36509">
        <ele>356.8</ele>
        <time>2013-12-01T14:55:26Z</time>
      </trkpt>
      <trkpt lat="43.78273" lon="7.36498">
        <ele>356.7</ele>
        <time>2013-12-01T14:55:30Z</time>
      </trkpt>
      <trkpt lat="43.78266" lon="7.36487">
        <ele>357.1</ele>
        <time>2013-12-01T14:55:34Z</time>
      </trkpt>
      <trkpt lat="43.78259" lon="7.36477">
        <ele>357.4</ele>
        <time>2013-12-01T14:55:38Z</time>
      </trkpt>
      <trkpt lat="43.78251" lon="7.36468">
        <ele>357.6</ele>
        <time>2013-12-01T14:55:43Z</time>
      </trkpt>
      <trkpt lat="43.78244" lon="7.36458">
        <ele>358.7</ele>
        <time>2013-12-01T14:55:48Z</time>
      </trkpt>
      <trkpt lat="43.78233" lon="7.36435">
        <ele>360.5</ele>
        <time>2013-12-01T14:55:56Z</time>
      </trkpt>
      <trkpt lat="43.78231" lon="7.36421">
        <ele>361.5</ele>
        <time>2013-12-01T14:56:00Z</time>
      </trkpt>
      <trkpt lat="43.78228" lon="7.36408">
        <ele>361.4</ele>
        <time>2013-12-01T14:56:04Z</time>
      </trkpt>
      <trkpt lat="43.78225" lon="7.36394">
        <ele>362.2</ele>
        <time>2013-12-01T14:56:08Z</time>
      </trkpt>
      <trkpt lat="43.7822" lon="7.36381">
        <ele>362</ele>
        <time>2013-12-01T14:56:12Z</time>
      </trkpt>
      <trkpt lat="43.78215" lon="7.36368">
        <ele>361.9</ele>
        <time>2013-12-01T14:56:16Z</time>
      </trkpt>
      <trkpt lat="43.7821" lon="7.36354">
        <ele>362.8</ele>
        <time>2013-12-01T14:56:20Z</time>
      </trkpt>
      <trkpt lat="43.78205" lon="7.3634">
        <ele>363.6</ele>
        <time>2013-12-01T14:56:24Z</time>
      </trkpt>
      <trkpt lat="43.78199" lon="7.36327">
        <ele>364</ele>
        <time>2013-12-01T14:56:28Z</time>
      </trkpt>
      <trkpt lat="43.78195" lon="7.36312">
        <ele>364.4</ele>
        <time>2013-12-01T14:56:32Z</time>
      </trkpt>
      <trkpt lat="43.78191" lon="7.36298">
        <ele>365.5</ele>
        <time>2013-12-01T14:56:36Z</time>
      </trkpt>
      <trkpt lat="43.78187" lon="7.36282">
        <ele>366.5</ele>
        <time>2013-12-01T14:56:40Z</time>
      </trkpt>
      <trkpt lat="43.78184" lon="7.3627">
        <ele>366.7</ele>
        <time>2013-12-01T14:56:43Z</time>
      </trkpt>
      <trkpt lat="43.78181" lon="7.36258">
        <ele>367.2</ele>
        <time>2013-12-01T14:56:46Z</time>
      </trkpt>
      <trkpt lat="43.78177" lon="7.36247">
        <ele>368</ele>
        <time>2013-12-01T14:56:49Z</time>
      </trkpt>
      <trkpt lat="43.78161" lon="7.36224">
        <ele>370.7</ele>
        <time>2013-12-01T14:56:57Z</time>
      </trkpt>
      <trkpt lat="43.78152" lon="7.36216">
        <ele>371.2</ele>
        <time>2013-12-01T14:57:01Z</time>
      </trkpt>
      <trkpt lat="43.78141" lon="7.3621">
        <ele>371.4</ele>
        <time>2013-12-01T14:57:05Z</time>
      </trkpt>
      <trkpt lat="43.7813" lon="7.36204">
        <ele>372.1</ele>
        <time>2013-12-01T14:57:09Z</time>
      </trkpt>
      <trkpt lat="43.78119" lon="7.36198">
        <ele>373.6</ele>
        <time>2013-12-01T14:57:13Z</time>
      </trkpt>
      <trkpt lat="43.78108" lon="7.36192">
        <ele>374.3</ele>
        <time>2013-12-01T14:57:17Z</time>
      </trkpt>
      <trkpt lat="43.78099" lon="7.36186">
        <ele>374.4</ele>
        <time>2013-12-01T14:57:21Z</time>
      </trkpt>
      <trkpt lat="43.7809" lon="7.36179">
        <ele>375</ele>
        <time>2013-12-01T14:57:25Z</time>
      </trkpt>
      <trkpt lat="43.78081" lon="7.36172">
        <ele>375.1</ele>
        <time>2013-12-01T14:57:29Z</time>
      </trkpt>
      <trkpt lat="43.78073" lon="7.36165">
        <ele>376.7</ele>
        <time>2013-12-01T14:57:33Z</time>
      </trkpt>
      <trkpt lat="43.78064" lon="7.3616">
        <ele>377.8</ele>
        <time>2013-12-01T14:57:37Z</time>
      </trkpt>
      <trkpt lat="43.78054" lon="7.36157">
        <ele>378.9</ele>
        <time>2013-12-01T14:57:41Z</time>
      </trkpt>
      <trkpt lat="43.78045" lon="7.36157">
        <ele>380.5</ele>
        <time>2013-12-01T14:57:45Z</time>
      </trkpt>
      <trkpt lat="43.78035" lon="7.36154">
        <ele>381.2</ele>
        <time>2013-12-01T14:57:51Z</time>
      </trkpt>
      <trkpt lat="43.78017" lon="7.36142">
        <ele>380.3</ele>
        <time>2013-12-01T15:02:14Z</time>
      </trkpt>
      <trkpt lat="43.77995" lon="7.36132">
        <ele>379.2</ele>
        <time>2013-12-01T15:02:21Z</time>
      </trkpt>
      <trkpt lat="43.77985" lon="7.36132">
        <ele>379.4</ele>
        <time>2013-12-01T15:02:23Z</time>
      </trkpt>
      <trkpt lat="43.77974" lon="7.36126">
        <ele>378.5</ele>
        <time>2013-12-01T15:02:25Z</time>
      </trkpt>
      <trkpt lat="43.77965" lon="7.36111">
        <ele>377.6</ele>
        <time>2013-12-01T15:02:27Z</time>
      </trkpt>
      <trkpt lat="43.77963" lon="7.36096">
        <ele>376.8</ele>
        <time>2013-12-01T15:02:29Z</time>
      </trkpt>
      <trkpt lat="43.77963" lon="7.36081">
        <ele>374.7</ele>
        <time>2013-12-01T15:02:31Z</time>
      </trkpt>
      <trkpt lat="43.77961" lon="7.36067">
        <ele>373.1</ele>
        <time>2013-12-01T15:02:33Z</time>
      </trkpt>
      <trkpt lat="43.77953" lon="7.36057">
        <ele>371.7</ele>
        <time>2013-12-01T15:02:35Z</time>
      </trkpt>
      <trkpt lat="43.77944" lon="7.36051">
        <ele>370.6</ele>
        <time>2013-12-01T15:02:37Z</time>
      </trkpt>
      <trkpt lat="43.77933" lon="7.36048">
        <ele>368.6</ele>
        <time>2013-12-01T15:02:40Z</time>
      </trkpt>
      <trkpt lat="43.77924" lon="7.36055">
        <ele>366.5</ele>
        <time>2013-12-01T15:02:43Z</time>
      </trkpt>
      <trkpt lat="43.77918" lon="7.36067">
        <ele>364.8</ele>
        <time>2013-12-01T15:02:46Z</time>
      </trkpt>
      <trkpt lat="43.77909" lon="7.36077">
        <ele>362.7</ele>
        <time>2013-12-01T15:02:49Z</time>
      </trkpt>
      <trkpt lat="43.779" lon="7.36072">
        <ele>361.6</ele>
        <time>2013-12-01T15:02:51Z</time>
      </trkpt>
      <trkpt lat="43.77889" lon="7.36062">
        <ele>360.8</ele>
        <time>2013-12-01T15:02:53Z</time>
      </trkpt>
      <trkpt lat="43.77876" lon="7.36058">
        <ele>360.2</ele>
        <time>2013-12-01T15:02:55Z</time>
      </trkpt>
      <trkpt lat="43.77863" lon="7.36059">
        <ele>358.5</ele>
        <time>2013-12-01T15:02:57Z</time>
      </trkpt>
      <trkpt lat="43.77854" lon="7.36053">
        <ele>356.7</ele>
        <time>2013-12-01T15:02:59Z</time>
      </trkpt>
      <trkpt lat="43.77847" lon="7.36041">
        <ele>355.1</ele>
        <time>2013-12-01T15:03:02Z</time>
      </trkpt>
      <trkpt lat="43.77836" lon="7.36038">
        <ele>353.9</ele>
        <time>2013-12-01T15:03:06Z</time>
      </trkpt>
      <trkpt lat="43.77825" lon="7.36048">
        <ele>353.1</ele>
        <time>2013-12-01T15:03:09Z</time>
      </trkpt>
      <trkpt lat="43.77815" lon="7.36051">
        <ele>353.5</ele>
        <time>2013-12-01T15:03:12Z</time>
      </trkpt>
      <trkpt lat="43.77808" lon="7.36041">
        <ele>354.2</ele>
        <time>2013-12-01T15:03:14Z</time>
      </trkpt>
      <trkpt lat="43.778" lon="7.36032">
        <ele>354.2</ele>
        <time>2013-12-01T15:03:16Z</time>
      </trkpt>
      <trkpt lat="43.77789" lon="7.36005">
        <ele>355.2</ele>
        <time>2013-12-01T15:03:22Z</time>
      </trkpt>
      <trkpt lat="43.77784" lon="7.35993">
        <ele>355.8</ele>
        <time>2013-12-01T15:03:27Z</time>
      </trkpt>
      <trkpt lat="43.77778" lon="7.35981">
        <ele>356.4</ele>
        <time>2013-12-01T15:03:32Z</time>
      </trkpt>
      <trkpt lat="43.77771" lon="7.35972">
        <ele>357.4</ele>
        <time>2013-12-01T15:03:37Z</time>
      </trkpt>
      <trkpt lat="43.77762" lon="7.35967">
        <ele>357</ele>
        <time>2013-12-01T15:03:41Z</time>
      </trkpt>
      <trkpt lat="43.77752" lon="7.3596">
        <ele>358.3</ele>
        <time>2013-12-01T15:03:46Z</time>
      </trkpt>
      <trkpt lat="43.77743" lon="7.35953">
        <ele>358.6</ele>
        <time>2013-12-01T15:03:52Z</time>
      </trkpt>
      <trkpt lat="43.77735" lon="7.35946">
        <ele>359</ele>
        <time>2013-12-01T15:03:57Z</time>
      </trkpt>
      <trkpt lat="43.7773" lon="7.35935">
        <ele>359.6</ele>
        <time>2013-12-01T15:04:01Z</time>
      </trkpt>
      <trkpt lat="43.77724" lon="7.35924">
        <ele>360.5</ele>
        <time>2013-12-01T15:04:05Z</time>
      </trkpt>
      <trkpt lat="43.77718" lon="7.35912">
        <ele>360.8</ele>
        <time>2013-12-01T15:04:09Z</time>
      </trkpt>
      <trkpt lat="43.77714" lon="7.35901">
        <ele>360.6</ele>
        <time>2013-12-01T15:05:28Z</time>
      </trkpt>
      <trkpt lat="43.77709" lon="7.35864">
        <ele>360.2</ele>
        <time>2013-12-01T15:08:13Z</time>
      </trkpt>
      <trkpt lat="43.77712" lon="7.35852">
        <ele>359.6</ele>
        <time>2013-12-01T15:08:17Z</time>
      </trkpt>
      <trkpt lat="43.77711" lon="7.35839">
        <ele>359</ele>
        <time>2013-12-01T15:08:21Z</time>
      </trkpt>
      <trkpt lat="43.77713" lon="7.35824">
        <ele>358.3</ele>
        <time>2013-12-01T15:08:24Z</time>
      </trkpt>
      <trkpt lat="43.7771" lon="7.35809">
        <ele>358.5</ele>
        <time>2013-12-01T15:08:27Z</time>
      </trkpt>
      <trkpt lat="43.77707" lon="7.35796">
        <ele>359.1</ele>
        <time>2013-12-01T15:08:30Z</time>
      </trkpt>
      <trkpt lat="43.77704" lon="7.35782">
        <ele>359</ele>
        <time>2013-12-01T15:08:35Z</time>
      </trkpt>
      <trkpt lat="43.77703" lon="7.35767">
        <ele>358.2</ele>
        <time>2013-12-01T15:08:47Z</time>
      </trkpt>
      <trkpt lat="43.77702" lon="7.35753">
        <ele>357.7</ele>
        <time>2013-12-01T15:08:51Z</time>
      </trkpt>
      <trkpt lat="43.77701" lon="7.35737">
        <ele>357.4</ele>
        <time>2013-12-01T15:08:55Z</time>
      </trkpt>
      <trkpt lat="43.77705" lon="7.35724">
        <ele>357.4</ele>
        <time>2013-12-01T15:09:00Z</time>
      </trkpt>
      <trkpt lat="43.77712" lon="7.35715">
        <ele>357</ele>
        <time>2013-12-01T15:09:03Z</time>
      </trkpt>
      <trkpt lat="43.77714" lon="7.35702">
        <ele>356.3</ele>
        <time>2013-12-01T15:09:07Z</time>
      </trkpt>
      <trkpt lat="43.77701" lon="7.35679">
        <ele>355.1</ele>
        <time>2013-12-01T15:09:15Z</time>
      </trkpt>
      <trkpt lat="43.77692" lon="7.35682">
        <ele>355.3</ele>
        <time>2013-12-01T15:09:19Z</time>
      </trkpt>
      <trkpt lat="43.77683" lon="7.35677">
        <ele>355.7</ele>
        <time>2013-12-01T15:09:22Z</time>
      </trkpt>
      <trkpt lat="43.77678" lon="7.35663">
        <ele>355.4</ele>
        <time>2013-12-01T15:09:25Z</time>
      </trkpt>
      <trkpt lat="43.77672" lon="7.35653">
        <ele>354.5</ele>
        <time>2013-12-01T15:09:29Z</time>
      </trkpt>
      <trkpt lat="43.7767" lon="7.3564">
        <ele>354.6</ele>
        <time>2013-12-01T15:09:33Z</time>
      </trkpt>
      <trkpt lat="43.77667" lon="7.35627">
        <ele>354.5</ele>
        <time>2013-12-01T15:09:36Z</time>
      </trkpt>
      <trkpt lat="43.77663" lon="7.35613">
        <ele>353.7</ele>
        <time>2013-12-01T15:09:39Z</time>
      </trkpt>
      <trkpt lat="43.77658" lon="7.356">
        <ele>353.4</ele>
        <time>2013-12-01T15:09:43Z</time>
      </trkpt>
      <trkpt lat="43.77651" lon="7.3559">
        <ele>353.2</ele>
        <time>2013-12-01T15:09:46Z</time>
      </trkpt>
      <trkpt lat="43.77646" lon="7.35579">
        <ele>353.2</ele>
        <time>2013-12-01T15:09:49Z</time>
      </trkpt>
      <trkpt lat="43.77637" lon="7.35571">
        <ele>352.2</ele>
        <time>2013-12-01T15:09:53Z</time>
      </trkpt>
      <trkpt lat="43.7763" lon="7.35561">
        <ele>351.6</ele>
        <time>2013-12-01T15:09:56Z</time>
      </trkpt>
      <trkpt lat="43.77623" lon="7.35549">
        <ele>352.5</ele>
        <time>2013-12-01T15:09:59Z</time>
      </trkpt>
      <trkpt lat="43.77613" lon="7.35542">
        <ele>353.2</ele>
        <time>2013-12-01T15:10:02Z</time>
      </trkpt>
      <trkpt lat="43.77602" lon="7.35546">
        <ele>352.4</ele>
        <time>2013-12-01T15:10:06Z</time>
      </trkpt>
      <trkpt lat="43.77593" lon="7.35536">
        <ele>352.5</ele>
        <time>2013-12-01T15:10:10Z</time>
      </trkpt>
      <trkpt lat="43.77598" lon="7.35518">
        <ele>349.5</ele>
        <time>2013-12-01T15:11:21Z</time>
      </trkpt>
      <trkpt lat="43.7762" lon="7.35516">
        <ele>347.7</ele>
        <time>2013-12-01T15:11:27Z</time>
      </trkpt>
      <trkpt lat="43.7763" lon="7.35527">
        <ele>347.1</ele>
        <time>2013-12-01T15:11:29Z</time>
      </trkpt>
      <trkpt lat="43.77638" lon="7.35536">
        <ele>346.2</ele>
        <time>2013-12-01T15:11:31Z</time>
      </trkpt>
      <trkpt lat="43.7765" lon="7.35537">
        <ele>344.1</ele>
        <time>2013-12-01T15:11:34Z</time>
      </trkpt>
      <trkpt lat="43.77656" lon="7.35545">
        <ele>342.5</ele>
        <time>2013-12-01T15:11:36Z</time>
      </trkpt>
      <trkpt lat="43.77668" lon="7.35543">
        <ele>340</ele>
        <time>2013-12-01T15:11:39Z</time>
      </trkpt>
      <trkpt lat="43.77675" lon="7.35526">
        <ele>338</ele>
        <time>2013-12-01T15:11:42Z</time>
      </trkpt>
      <trkpt lat="43.77685" lon="7.35515">
        <ele>336.6</ele>
        <time>2013-12-01T15:11:44Z</time>
      </trkpt>
      <trkpt lat="43.77697" lon="7.35509">
        <ele>333</ele>
        <time>2013-12-01T15:11:47Z</time>
      </trkpt>
      <trkpt lat="43.77704" lon="7.35517">
        <ele>331</ele>
        <time>2013-12-01T15:11:49Z</time>
      </trkpt>
      <trkpt lat="43.77712" lon="7.35511">
        <ele>323.6</ele>
        <time>2013-12-01T15:12:03Z</time>
      </trkpt>
      <trkpt lat="43.77714" lon="7.35494">
        <ele>322.9</ele>
        <time>2013-12-01T15:12:30Z</time>
      </trkpt>
      <trkpt lat="43.77693" lon="7.35485">
        <ele>320.1</ele>
        <time>2013-12-01T15:12:37Z</time>
      </trkpt>
      <trkpt lat="43.77683" lon="7.35492">
        <ele>319.4</ele>
        <time>2013-12-01T15:12:41Z</time>
      </trkpt>
      <trkpt lat="43.77676" lon="7.35485">
        <ele>318.6</ele>
        <time>2013-12-01T15:12:46Z</time>
      </trkpt>
      <trkpt lat="43.77668" lon="7.35478">
        <ele>317.9</ele>
        <time>2013-12-01T15:12:49Z</time>
      </trkpt>
      <trkpt lat="43.77674" lon="7.35463">
        <ele>316.1</ele>
        <time>2013-12-01T15:12:55Z</time>
      </trkpt>
      <trkpt lat="43.77684" lon="7.35455">
        <ele>315.7</ele>
        <time>2013-12-01T15:12:58Z</time>
      </trkpt>
      <trkpt lat="43.77691" lon="7.35445">
        <ele>315.6</ele>
        <time>2013-12-01T15:13:01Z</time>
      </trkpt>
      <trkpt lat="43.77689" lon="7.35433">
        <ele>313.6</ele>
        <time>2013-12-01T15:13:06Z</time>
      </trkpt>
      <trkpt lat="43.77695" lon="7.35423">
        <ele>313.3</ele>
        <time>2013-12-01T15:13:11Z</time>
      </trkpt>
      <trkpt lat="43.77707" lon="7.35422">
        <ele>313.4</ele>
        <time>2013-12-01T15:13:15Z</time>
      </trkpt>
      <trkpt lat="43.77716" lon="7.35421">
        <ele>313.1</ele>
        <time>2013-12-01T15:13:17Z</time>
      </trkpt>
      <trkpt lat="43.77727" lon="7.35418">
        <ele>310.8</ele>
        <time>2013-12-01T15:13:20Z</time>
      </trkpt>
      <trkpt lat="43.77738" lon="7.35419">
        <ele>309.9</ele>
        <time>2013-12-01T15:13:23Z</time>
      </trkpt>
      <trkpt lat="43.77742" lon="7.35407">
        <ele>307.5</ele>
        <time>2013-12-01T15:13:30Z</time>
      </trkpt>
      <trkpt lat="43.77746" lon="7.35397">
        <ele>308.3</ele>
        <time>2013-12-01T15:13:33Z</time>
      </trkpt>
      <trkpt lat="43.77766" lon="7.35396">
        <ele>305.1</ele>
        <time>2013-12-01T15:13:44Z</time>
      </trkpt>
      <trkpt lat="43.77775" lon="7.3539">
        <ele>304.7</ele>
        <time>2013-12-01T15:13:50Z</time>
      </trkpt>
      <trkpt lat="43.77782" lon="7.35382">
        <ele>303.3</ele>
        <time>2013-12-01T15:13:55Z</time>
      </trkpt>
      <trkpt lat="43.77786" lon="7.35395">
        <ele>302.5</ele>
        <time>2013-12-01T15:14:00Z</time>
      </trkpt>
      <trkpt lat="43.77789" lon="7.3541">
        <ele>302.8</ele>
        <time>2013-12-01T15:14:03Z</time>
      </trkpt>
      <trkpt lat="43.77799" lon="7.3541">
        <ele>302.4</ele>
        <time>2013-12-01T15:14:09Z</time>
      </trkpt>
      <trkpt lat="43.77811" lon="7.35408">
        <ele>302.1</ele>
        <time>2013-12-01T15:14:14Z</time>
      </trkpt>
      <trkpt lat="43.77811" lon="7.35422">
        <ele>302.6</ele>
        <time>2013-12-01T15:14:33Z</time>
      </trkpt>
      <trkpt lat="43.77816" lon="7.35434">
        <ele>301.2</ele>
        <time>2013-12-01T15:14:38Z</time>
      </trkpt>
      <trkpt lat="43.77834" lon="7.35438">
        <ele>299.3</ele>
        <time>2013-12-01T15:14:45Z</time>
      </trkpt>
      <trkpt lat="43.77845" lon="7.3543">
        <ele>298.5</ele>
        <time>2013-12-01T15:14:49Z</time>
      </trkpt>
      <trkpt lat="43.77856" lon="7.35427">
        <ele>297.5</ele>
        <time>2013-12-01T15:14:55Z</time>
      </trkpt>
      <trkpt lat="43.7786" lon="7.35417">
        <ele>297.1</ele>
        <time>2013-12-01T15:14:58Z</time>
      </trkpt>
      <trkpt lat="43.77873" lon="7.35419">
        <ele>297.1</ele>
        <time>2013-12-01T15:15:02Z</time>
      </trkpt>
      <trkpt lat="43.77882" lon="7.35417">
        <ele>296.4</ele>
        <time>2013-12-01T15:15:06Z</time>
      </trkpt>
      <trkpt lat="43.77887" lon="7.35429">
        <ele>295.6</ele>
        <time>2013-12-01T15:15:09Z</time>
      </trkpt>
      <trkpt lat="43.77896" lon="7.35441">
        <ele>294.8</ele>
        <time>2013-12-01T15:15:12Z</time>
      </trkpt>
      <trkpt lat="43.77898" lon="7.35455">
        <ele>294.1</ele>
        <time>2013-12-01T15:15:15Z</time>
      </trkpt>
      <trkpt lat="43.77901" lon="7.35471">
        <ele>293.5</ele>
        <time>2013-12-01T15:15:19Z</time>
      </trkpt>
      <trkpt lat="43.77901" lon="7.35484">
        <ele>292.1</ele>
        <time>2013-12-01T15:15:22Z</time>
      </trkpt>
      <trkpt lat="43.7791" lon="7.3549">
        <ele>290.2</ele>
        <time>2013-12-01T15:15:26Z</time>
      </trkpt>
      <trkpt lat="43.77919" lon="7.35494">
        <ele>288.9</ele>
        <time>2013-12-01T15:15:29Z</time>
      </trkpt>
      <trkpt lat="43.77929" lon="7.35501">
        <ele>288.1</ele>
        <time>2013-12-01T15:15:32Z</time>
      </trkpt>
      <trkpt lat="43.7794" lon="7.35499">
        <ele>287.3</ele>
        <time>2013-12-01T15:15:35Z</time>
      </trkpt>
      <trkpt lat="43.7795" lon="7.35497">
        <ele>286</ele>
        <time>2013-12-01T15:15:39Z</time>
      </trkpt>
      <trkpt lat="43.77969" lon="7.35495">
        <ele>285.7</ele>
        <time>2013-12-01T15:15:47Z</time>
      </trkpt>
      <trkpt lat="43.77974" lon="7.35484">
        <ele>285.1</ele>
        <time>2013-12-01T15:15:50Z</time>
      </trkpt>
      <trkpt lat="43.77982" lon="7.35492">
        <ele>283.9</ele>
        <time>2013-12-01T15:15:54Z</time>
      </trkpt>
      <trkpt lat="43.77992" lon="7.35493">
        <ele>283.7</ele>
        <time>2013-12-01T15:15:57Z</time>
      </trkpt>
      <trkpt lat="43.78002" lon="7.35489">
        <ele>283.2</ele>
        <time>2013-12-01T15:16:00Z</time>
      </trkpt>
      <trkpt lat="43.78008" lon="7.35478">
        <ele>282.4</ele>
        <time>2013-12-01T15:16:03Z</time>
      </trkpt>
      <trkpt lat="43.78018" lon="7.35468">
        <ele>281.1</ele>
        <time>2013-12-01T15:16:09Z</time>
      </trkpt>
      <trkpt lat="43.78027" lon="7.35458">
        <ele>280.5</ele>
        <time>2013-12-01T15:16:12Z</time>
      </trkpt>
      <trkpt lat="43.78033" lon="7.35448">
        <ele>280.4</ele>
        <time>2013-12-01T15:16:14Z</time>
      </trkpt>
      <trkpt lat="43.78032" lon="7.35435">
        <ele>278.5</ele>
        <time>2013-12-01T15:16:19Z</time>
      </trkpt>
      <trkpt lat="43.78038" lon="7.35421">
        <ele>278.1</ele>
        <time>2013-12-01T15:16:24Z</time>
      </trkpt>
      <trkpt lat="43.78041" lon="7.35408">
        <ele>278.1</ele>
        <time>2013-12-01T15:16:27Z</time>
      </trkpt>
      <trkpt lat="43.78041" lon="7.35392">
        <ele>277.7</ele>
        <time>2013-12-01T15:16:30Z</time>
      </trkpt>
      <trkpt lat="43.78033" lon="7.35382">
        <ele>277.7</ele>
        <time>2013-12-01T15:16:34Z</time>
      </trkpt>
      <trkpt lat="43.78038" lon="7.35367">
        <ele>277.1</ele>
        <time>2013-12-01T15:16:37Z</time>
      </trkpt>
      <trkpt lat="43.7804" lon="7.35352">
        <ele>276.3</ele>
        <time>2013-12-01T15:16:40Z</time>
      </trkpt>
      <trkpt lat="43.78039" lon="7.3533">
        <ele>273.9</ele>
        <time>2013-12-01T15:16:47Z</time>
      </trkpt>
      <trkpt lat="43.78044" lon="7.35316">
        <ele>272.7</ele>
        <time>2013-12-01T15:16:51Z</time>
      </trkpt>
      <trkpt lat="43.78042" lon="7.35302">
        <ele>272.6</ele>
        <time>2013-12-01T15:16:54Z</time>
      </trkpt>
      <trkpt lat="43.7805" lon="7.35295">
        <ele>270.9</ele>
        <time>2013-12-01T15:17:32Z</time>
      </trkpt>
      <trkpt lat="43.78042" lon="7.35287">
        <ele>270.9</ele>
        <time>2013-12-01T15:22:21Z</time>
      </trkpt>
      <trkpt lat="43.7806" lon="7.35272">
        <ele>268.4</ele>
        <time>2013-12-01T15:22:29Z</time>
      </trkpt>
      <trkpt lat="43.7807" lon="7.35273">
        <ele>266.4</ele>
        <time>2013-12-01T15:22:32Z</time>
      </trkpt>
      <trkpt lat="43.78076" lon="7.35261">
        <ele>262.9</ele>
        <time>2013-12-01T15:22:39Z</time>
      </trkpt>
      <trkpt lat="43.78084" lon="7.35252">
        <ele>261.4</ele>
        <time>2013-12-01T15:22:42Z</time>
      </trkpt>
      <trkpt lat="43.78089" lon="7.35241">
        <ele>259.3</ele>
        <time>2013-12-01T15:22:47Z</time>
      </trkpt>
      <trkpt lat="43.78097" lon="7.35232">
        <ele>257.3</ele>
        <time>2013-12-01T15:22:51Z</time>
      </trkpt>
      <trkpt lat="43.78103" lon="7.3522">
        <ele>255.2</ele>
        <time>2013-12-01T15:22:55Z</time>
      </trkpt>
      <trkpt lat="43.78113" lon="7.35221">
        <ele>253.7</ele>
        <time>2013-12-01T15:22:59Z</time>
      </trkpt>
      <trkpt lat="43.78124" lon="7.35221">
        <ele>253.1</ele>
        <time>2013-12-01T15:23:02Z</time>
      </trkpt>
      <trkpt lat="43.78133" lon="7.3522">
        <ele>252.7</ele>
        <time>2013-12-01T15:23:04Z</time>
      </trkpt>
      <trkpt lat="43.78144" lon="7.35218">
        <ele>253</ele>
        <time>2013-12-01T15:23:07Z</time>
      </trkpt>
      <trkpt lat="43.78151" lon="7.3521">
        <ele>252.9</ele>
        <time>2013-12-01T15:23:09Z</time>
      </trkpt>
      <trkpt lat="43.78154" lon="7.35197">
        <ele>251.5</ele>
        <time>2013-12-01T15:23:13Z</time>
      </trkpt>
      <trkpt lat="43.78144" lon="7.35189">
        <ele>250.6</ele>
        <time>2013-12-01T15:23:18Z</time>
      </trkpt>
      <trkpt lat="43.78136" lon="7.35179">
        <ele>250.1</ele>
        <time>2013-12-01T15:23:21Z</time>
      </trkpt>
      <trkpt lat="43.78129" lon="7.3517">
        <ele>247.8</ele>
        <time>2013-12-01T15:23:25Z</time>
      </trkpt>
      <trkpt lat="43.78122" lon="7.35145">
        <ele>244.7</ele>
        <time>2013-12-01T15:23:31Z</time>
      </trkpt>
      <trkpt lat="43.78123" lon="7.35133">
        <ele>241.8</ele>
        <time>2013-12-01T15:23:37Z</time>
      </trkpt>
      <trkpt lat="43.78132" lon="7.35135">
        <ele>240.6</ele>
        <time>2013-12-01T15:23:41Z</time>
      </trkpt>
      <trkpt lat="43.78143" lon="7.35137">
        <ele>238.5</ele>
        <time>2013-12-01T15:23:46Z</time>
      </trkpt>
      <trkpt lat="43.78152" lon="7.35131">
        <ele>235.4</ele>
        <time>2013-12-01T15:23:50Z</time>
      </trkpt>
      <trkpt lat="43.78162" lon="7.35124">
        <ele>235</ele>
        <time>2013-12-01T15:23:53Z</time>
      </trkpt>
      <trkpt lat="43.7817" lon="7.35113">
        <ele>234.5</ele>
        <time>2013-12-01T15:23:59Z</time>
      </trkpt>
      <trkpt lat="43.78179" lon="7.35108">
        <ele>233.3</ele>
        <time>2013-12-01T15:24:02Z</time>
      </trkpt>
      <trkpt lat="43.78186" lon="7.35096">
        <ele>233.3</ele>
        <time>2013-12-01T15:24:05Z</time>
      </trkpt>
      <trkpt lat="43.7819" lon="7.35082">
        <ele>232.7</ele>
        <time>2013-12-01T15:24:09Z</time>
      </trkpt>
      <trkpt lat="43.78188" lon="7.35067">
        <ele>232.8</ele>
        <time>2013-12-01T15:24:12Z</time>
      </trkpt>
      <trkpt lat="43.78185" lon="7.35053">
        <ele>231.9</ele>
        <time>2013-12-01T15:24:17Z</time>
      </trkpt>
      <trkpt lat="43.78191" lon="7.35043">
        <ele>230.8</ele>
        <time>2013-12-01T15:24:20Z</time>
      </trkpt>
      <trkpt lat="43.78192" lon="7.35027">
        <ele>230.2</ele>
        <time>2013-12-01T15:24:23Z</time>
      </trkpt>
      <trkpt lat="43.78182" lon="7.35021">
        <ele>228.5</ele>
        <time>2013-12-01T15:24:28Z</time>
      </trkpt>
      <trkpt lat="43.78182" lon="7.34992">
        <ele>227.9</ele>
        <time>2013-12-01T15:24:35Z</time>
      </trkpt>
      <trkpt lat="43.78177" lon="7.34981">
        <ele>227.1</ele>
        <time>2013-12-01T15:24:38Z</time>
      </trkpt>
      <trkpt lat="43.78172" lon="7.34963">
        <ele>226.8</ele>
        <time>2013-12-01T15:24:41Z</time>
      </trkpt>
      <trkpt lat="43.78167" lon="7.3495">
        <ele>225.5</ele>
        <time>2013-12-01T15:24:43Z</time>
      </trkpt>
      <trkpt lat="43.78164" lon="7.34938">
        <ele>224.7</ele>
        <time>2013-12-01T15:24:45Z</time>
      </trkpt>
      <trkpt lat="43.78154" lon="7.34935">
        <ele>223.9</ele>
        <time>2013-12-01T15:24:49Z</time>
      </trkpt>
      <trkpt lat="43.78145" lon="7.34942">
        <ele>223.7</ele>
        <time>2013-12-01T15:24:56Z</time>
      </trkpt>
      <trkpt lat="43.78137" lon="7.34949">
        <ele>223.3</ele>
        <time>2013-12-01T15:25:02Z</time>
      </trkpt>
      <trkpt lat="43.78126" lon="7.34953">
        <ele>223.5</ele>
        <time>2013-12-01T15:25:08Z</time>
      </trkpt>
      <trkpt lat="43.78114" lon="7.34951">
        <ele>223.7</ele>
        <time>2013-12-01T15:25:11Z</time>
      </trkpt>
      <trkpt lat="43.78107" lon="7.3496">
        <ele>223.3</ele>
        <time>2013-12-01T15:25:20Z</time>
      </trkpt>
      <trkpt lat="43.78096" lon="7.34955">
        <ele>225.4</ele>
        <time>2013-12-01T15:25:31Z</time>
      </trkpt>
      <trkpt lat="43.78081" lon="7.34944">
        <ele>224.2</ele>
        <time>2013-12-01T15:25:38Z</time>
      </trkpt>
      <trkpt lat="43.78071" lon="7.34944">
        <ele>224.6</ele>
        <time>2013-12-01T15:25:43Z</time>
      </trkpt>
      <trkpt lat="43.78064" lon="7.34933">
        <ele>224</ele>
        <time>2013-12-01T15:25:47Z</time>
      </trkpt>
      <trkpt lat="43.78054" lon="7.34928">
        <ele>223.5</ele>
        <time>2013-12-01T15:25:52Z</time>
      </trkpt>
      <trkpt lat="43.78047" lon="7.34921">
        <ele>224.1</ele>
        <time>2013-12-01T15:25:57Z</time>
      </trkpt>
      <trkpt lat="43.78052" lon="7.3491">
        <ele>223.7</ele>
        <time>2013-12-01T15:26:01Z</time>
      </trkpt>
      <trkpt lat="43.78063" lon="7.34908">
        <ele>222.8</ele>
        <time>2013-12-01T15:26:07Z</time>
      </trkpt>
      <trkpt lat="43.78071" lon="7.34903">
        <ele>222.5</ele>
        <time>2013-12-01T15:26:10Z</time>
      </trkpt>
      <trkpt lat="43.7808" lon="7.34897">
        <ele>222.5</ele>
        <time>2013-12-01T15:26:14Z</time>
      </trkpt>
      <trkpt lat="43.78089" lon="7.34897">
        <ele>221.8</ele>
        <time>2013-12-01T15:26:41Z</time>
      </trkpt>
      <trkpt lat="43.78097" lon="7.34911">
        <ele>222.2</ele>
        <time>2013-12-01T15:28:29Z</time>
      </trkpt>
      <trkpt lat="43.78103" lon="7.34882">
        <ele>221.5</ele>
        <time>2013-12-01T15:29:20Z</time>
      </trkpt>
      <trkpt lat="43.78108" lon="7.34869">
        <ele>221.9</ele>
        <time>2013-12-01T15:29:24Z</time>
      </trkpt>
      <trkpt lat="43.78117" lon="7.3486">
        <ele>222.3</ele>
        <time>2013-12-01T15:29:27Z</time>
      </trkpt>
      <trkpt lat="43.78114" lon="7.34847">
        <ele>221.4</ele>
        <time>2013-12-01T15:29:32Z</time>
      </trkpt>
      <trkpt lat="43.78101" lon="7.34825">
        <ele>220.9</ele>
        <time>2013-12-01T15:29:41Z</time>
      </trkpt>
      <trkpt lat="43.78094" lon="7.34815">
        <ele>221.3</ele>
        <time>2013-12-01T15:29:44Z</time>
      </trkpt>
      <trkpt lat="43.78083" lon="7.34809">
        <ele>220.3</ele>
        <time>2013-12-01T15:29:48Z</time>
      </trkpt>
      <trkpt lat="43.78075" lon="7.34801">
        <ele>220.7</ele>
        <time>2013-12-01T15:29:51Z</time>
      </trkpt>
      <trkpt lat="43.78067" lon="7.34792">
        <ele>221.3</ele>
        <time>2013-12-01T15:29:55Z</time>
      </trkpt>
      <trkpt lat="43.78065" lon="7.3478">
        <ele>220.4</ele>
        <time>2013-12-01T15:30:05Z</time>
      </trkpt>
      <trkpt lat="43.78062" lon="7.34766">
        <ele>220.1</ele>
        <time>2013-12-01T15:30:11Z</time>
      </trkpt>
      <trkpt lat="43.78063" lon="7.34749">
        <ele>220.6</ele>
        <time>2013-12-01T15:30:15Z</time>
      </trkpt>
      <trkpt lat="43.7806" lon="7.34734">
        <ele>219.9</ele>
        <time>2013-12-01T15:30:19Z</time>
      </trkpt>
      <trkpt lat="43.78062" lon="7.34721">
        <ele>220.2</ele>
        <time>2013-12-01T15:30:22Z</time>
      </trkpt>
      <trkpt lat="43.78059" lon="7.34705">
        <ele>219.3</ele>
        <time>2013-12-01T15:30:26Z</time>
      </trkpt>
      <trkpt lat="43.78059" lon="7.3469">
        <ele>219.3</ele>
        <time>2013-12-01T15:30:31Z</time>
      </trkpt>
      <trkpt lat="43.78055" lon="7.34675">
        <ele>218.5</ele>
        <time>2013-12-01T15:30:35Z</time>
      </trkpt>
      <trkpt lat="43.7804" lon="7.34662">
        <ele>216.5</ele>
        <time>2013-12-01T15:30:52Z</time>
      </trkpt>
      <trkpt lat="43.78031" lon="7.34663">
        <ele>217.1</ele>
        <time>2013-12-01T15:31:07Z</time>
      </trkpt>
      <trkpt lat="43.78021" lon="7.34655">
        <ele>218.1</ele>
        <time>2013-12-01T15:31:12Z</time>
      </trkpt>
      <trkpt lat="43.7801" lon="7.34655">
        <ele>218.7</ele>
        <time>2013-12-01T15:31:21Z</time>
      </trkpt>
      <trkpt lat="43.78001" lon="7.34656">
        <ele>216.9</ele>
        <time>2013-12-01T15:31:36Z</time>
      </trkpt>
      <trkpt lat="43.77985" lon="7.34668">
        <ele>218</ele>
        <time>2013-12-01T15:32:07Z</time>
      </trkpt>
      <trkpt lat="43.7798" lon="7.34655">
        <ele>216.7</ele>
        <time>2013-12-01T15:32:34Z</time>
      </trkpt>
      <trkpt lat="43.77978" lon="7.34643">
        <ele>217.1</ele>
        <time>2013-12-01T15:32:38Z</time>
      </trkpt>
      <trkpt lat="43.77958" lon="7.34636">
        <ele>214.8</ele>
        <time>2013-12-01T15:32:49Z</time>
      </trkpt>
      <trkpt lat="43.77964" lon="7.34625">
        <ele>215.4</ele>
        <time>2013-12-01T15:32:55Z</time>
      </trkpt>
      <trkpt lat="43.77973" lon="7.34622">
        <ele>215.5</ele>
        <time>2013-12-01T15:33:01Z</time>
      </trkpt>
      <trkpt lat="43.77983" lon="7.34618">
        <ele>216</ele>
        <time>2013-12-01T15:33:10Z</time>
      </trkpt>
      <trkpt lat="43.77987" lon="7.34605">
        <ele>215.9</ele>
        <time>2013-12-01T15:33:15Z</time>
      </trkpt>
      <trkpt lat="43.77993" lon="7.34593">
        <ele>215.7</ele>
        <time>2013-12-01T15:33:20Z</time>
      </trkpt>
      <trkpt lat="43.77994" lon="7.34579">
        <ele>215.5</ele>
        <time>2013-12-01T15:33:25Z</time>
      </trkpt>
      <trkpt lat="43.77995" lon="7.34566">
        <ele>215.1</ele>
        <time>2013-12-01T15:33:32Z</time>
      </trkpt>
      <trkpt lat="43.78003" lon="7.34557">
        <ele>213.4</ele>
        <time>2013-12-01T15:33:39Z</time>
      </trkpt>
      <trkpt lat="43.78019" lon="7.34544">
        <ele>211.2</ele>
        <time>2013-12-01T15:33:48Z</time>
      </trkpt>
      <trkpt lat="43.78015" lon="7.34531">
        <ele>210.7</ele>
        <time>2013-12-01T15:33:51Z</time>
      </trkpt>
      <trkpt lat="43.78014" lon="7.34518">
        <ele>209.7</ele>
        <time>2013-12-01T15:33:54Z</time>
      </trkpt>
      <trkpt lat="43.78013" lon="7.34502">
        <ele>208.2</ele>
        <time>2013-12-01T15:33:58Z</time>
      </trkpt>
      <trkpt lat="43.78014" lon="7.34487">
        <ele>207.3</ele>
        <time>2013-12-01T15:34:01Z</time>
      </trkpt>
      <trkpt lat="43.7801" lon="7.34475">
        <ele>205.7</ele>
        <time>2013-12-01T15:34:05Z</time>
      </trkpt>
      <trkpt lat="43.78008" lon="7.34461">
        <ele>204.6</ele>
        <time>2013-12-01T15:34:09Z</time>
      </trkpt>
      <trkpt lat="43.78008" lon="7.34445">
        <ele>204</ele>
        <time>2013-12-01T15:34:12Z</time>
      </trkpt>
      <trkpt lat="43.78003" lon="7.34435">
        <ele>201.6</ele>
        <time>2013-12-01T15:34:17Z</time>
      </trkpt>
      <trkpt lat="43.77993" lon="7.34439">
        <ele>201.4</ele>
        <time>2013-12-01T15:34:21Z</time>
      </trkpt>
      <trkpt lat="43.77981" lon="7.34437">
        <ele>201.9</ele>
        <time>2013-12-01T15:34:24Z</time>
      </trkpt>
      <trkpt lat="43.77979" lon="7.34424">
        <ele>201.3</ele>
        <time>2013-12-01T15:34:27Z</time>
      </trkpt>
      <trkpt lat="43.77983" lon="7.34411">
        <ele>200.5</ele>
        <time>2013-12-01T15:34:29Z</time>
      </trkpt>
      <trkpt lat="43.77989" lon="7.34398">
        <ele>199.6</ele>
        <time>2013-12-01T15:34:32Z</time>
      </trkpt>
      <trkpt lat="43.77995" lon="7.34388">
        <ele>198.6</ele>
        <time>2013-12-01T15:34:36Z</time>
      </trkpt>
      <trkpt lat="43.77987" lon="7.34377">
        <ele>196.1</ele>
        <time>2013-12-01T15:34:42Z</time>
      </trkpt>
      <trkpt lat="43.77984" lon="7.34356">
        <ele>194.3</ele>
        <time>2013-12-01T15:34:52Z</time>
      </trkpt>
      <trkpt lat="43.77982" lon="7.34341">
        <ele>193.7</ele>
        <time>2013-12-01T15:34:57Z</time>
      </trkpt>
      <trkpt lat="43.77972" lon="7.34339">
        <ele>193.7</ele>
        <time>2013-12-01T15:35:02Z</time>
      </trkpt>
      <trkpt lat="43.77965" lon="7.34329">
        <ele>192.9</ele>
        <time>2013-12-01T15:35:07Z</time>
      </trkpt>
      <trkpt lat="43.77964" lon="7.34313">
        <ele>192.7</ele>
        <time>2013-12-01T15:35:11Z</time>
      </trkpt>
      <trkpt lat="43.77956" lon="7.34303">
        <ele>190.4</ele>
        <time>2013-12-01T15:35:17Z</time>
      </trkpt>
      <trkpt lat="43.77949" lon="7.34294">
        <ele>189.5</ele>
        <time>2013-12-01T15:35:21Z</time>
      </trkpt>
      <trkpt lat="43.77952" lon="7.34278">
        <ele>188.1</ele>
        <time>2013-12-01T15:35:25Z</time>
      </trkpt>
      <trkpt lat="43.77946" lon="7.34267">
        <ele>186</ele>
        <time>2013-12-01T15:35:29Z</time>
      </trkpt>
      <trkpt lat="43.77944" lon="7.34253">
        <ele>183.8</ele>
        <time>2013-12-01T15:35:33Z</time>
      </trkpt>
      <trkpt lat="43.77936" lon="7.34244">
        <ele>182.6</ele>
        <time>2013-12-01T15:35:36Z</time>
      </trkpt>
      <trkpt lat="43.77926" lon="7.34242">
        <ele>181.6</ele>
        <time>2013-12-01T15:35:39Z</time>
      </trkpt>
      <trkpt lat="43.77915" lon="7.34238">
        <ele>180.9</ele>
        <time>2013-12-01T15:35:42Z</time>
      </trkpt>
      <trkpt lat="43.77906" lon="7.34238">
        <ele>180</ele>
        <time>2013-12-01T15:35:45Z</time>
      </trkpt>
      <trkpt lat="43.77904" lon="7.34213">
        <ele>175.9</ele>
        <time>2013-12-01T15:35:56Z</time>
      </trkpt>
      <trkpt lat="43.77912" lon="7.34199">
        <ele>174.9</ele>
        <time>2013-12-01T15:35:59Z</time>
      </trkpt>
      <trkpt lat="43.7792" lon="7.34187">
        <ele>174.5</ele>
        <time>2013-12-01T15:36:02Z</time>
      </trkpt>
      <trkpt lat="43.77922" lon="7.34172">
        <ele>174.4</ele>
        <time>2013-12-01T15:36:05Z</time>
      </trkpt>
      <trkpt lat="43.77917" lon="7.3416">
        <ele>173.9</ele>
        <time>2013-12-01T15:36:08Z</time>
      </trkpt>
      <trkpt lat="43.77912" lon="7.34147">
        <ele>172.8</ele>
        <time>2013-12-01T15:36:12Z</time>
      </trkpt>
      <trkpt lat="43.77906" lon="7.34132">
        <ele>172.2</ele>
        <time>2013-12-01T15:36:15Z</time>
      </trkpt>
      <trkpt lat="43.77901" lon="7.34115">
        <ele>171.9</ele>
        <time>2013-12-01T15:36:18Z</time>
      </trkpt>
      <trkpt lat="43.77894" lon="7.34105">
        <ele>171.6</ele>
        <time>2013-12-01T15:36:21Z</time>
      </trkpt>
      <trkpt lat="43.77887" lon="7.34091">
        <ele>171</ele>
        <time>2013-12-01T15:36:24Z</time>
      </trkpt>
      <trkpt lat="43.77881" lon="7.3408">
        <ele>170.9</ele>
        <time>2013-12-01T15:36:26Z</time>
      </trkpt>
      <trkpt lat="43.77874" lon="7.34071">
        <ele>170.1</ele>
        <time>2013-12-01T15:36:28Z</time>
      </trkpt>
      <trkpt lat="43.77865" lon="7.34066">
        <ele>169.5</ele>
        <time>2013-12-01T15:36:30Z</time>
      </trkpt>
      <trkpt lat="43.77856" lon="7.34059">
        <ele>169.8</ele>
        <time>2013-12-01T15:36:35Z</time>
      </trkpt>
      <trkpt lat="43.7785" lon="7.3405">
        <ele>170.7</ele>
        <time>2013-12-01T15:36:44Z</time>
      </trkpt>
      <trkpt lat="43.77841" lon="7.34043">
        <ele>170.8</ele>
        <time>2013-12-01T15:39:13Z</time>
      </trkpt>
      <trkpt lat="43.77819" lon="7.34038">
        <ele>170.9</ele>
        <time>2013-12-01T15:39:21Z</time>
      </trkpt>
      <trkpt lat="43.77811" lon="7.34032">
        <ele>170.4</ele>
        <time>2013-12-01T15:39:23Z</time>
      </trkpt>
      <trkpt lat="43.778" lon="7.34027">
        <ele>169.2</ele>
        <time>2013-12-01T15:39:26Z</time>
      </trkpt>
      <trkpt lat="43.7779" lon="7.34029">
        <ele>166.8</ele>
        <time>2013-12-01T15:39:33Z</time>
      </trkpt>
      <trkpt lat="43.77782" lon="7.34033">
        <ele>165.7</ele>
        <time>2013-12-01T15:39:39Z</time>
      </trkpt>
      <trkpt lat="43.77773" lon="7.3404">
        <ele>164.2</ele>
        <time>2013-12-01T15:39:44Z</time>
      </trkpt>
      <trkpt lat="43.77765" lon="7.3405">
        <ele>164.1</ele>
        <time>2013-12-01T15:39:48Z</time>
      </trkpt>
      <trkpt lat="43.77757" lon="7.34059">
        <ele>163.5</ele>
        <time>2013-12-01T15:39:51Z</time>
      </trkpt>
      <trkpt lat="43.7775" lon="7.34069">
        <ele>162.9</ele>
        <time>2013-12-01T15:39:54Z</time>
      </trkpt>
      <trkpt lat="43.77742" lon="7.34076">
        <ele>159.2</ele>
        <time>2013-12-01T15:39:59Z</time>
      </trkpt>
      <trkpt lat="43.77737" lon="7.34066">
        <ele>155.6</ele>
        <time>2013-12-01T15:40:06Z</time>
      </trkpt>
      <trkpt lat="43.77741" lon="7.34052">
        <ele>152.6</ele>
        <time>2013-12-01T15:40:18Z</time>
      </trkpt>
      <trkpt lat="43.77753" lon="7.3403">
        <ele>150.9</ele>
        <time>2013-12-01T15:40:25Z</time>
      </trkpt>
      <trkpt lat="43.77755" lon="7.34017">
        <ele>150.3</ele>
        <time>2013-12-01T15:40:28Z</time>
      </trkpt>
      <trkpt lat="43.77754" lon="7.34001">
        <ele>149.7</ele>
        <time>2013-12-01T15:40:31Z</time>
      </trkpt>
      <trkpt lat="43.77752" lon="7.33988">
        <ele>149.5</ele>
        <time>2013-12-01T15:40:33Z</time>
      </trkpt>
      <trkpt lat="43.7775" lon="7.33975">
        <ele>149.4</ele>
        <time>2013-12-01T15:40:35Z</time>
      </trkpt>
      <trkpt lat="43.77749" lon="7.33961">
        <ele>149.2</ele>
        <time>2013-12-01T15:40:37Z</time>
      </trkpt>
      <trkpt lat="43.77748" lon="7.33948">
        <ele>149.1</ele>
        <time>2013-12-01T15:40:39Z</time>
      </trkpt>
      <trkpt lat="43.77748" lon="7.33934">
        <ele>147.8</ele>
        <time>2013-12-01T15:40:41Z</time>
      </trkpt>
      <trkpt lat="43.77747" lon="7.3392">
        <ele>147.3</ele>
        <time>2013-12-01T15:40:43Z</time>
      </trkpt>
      <trkpt lat="43.77746" lon="7.33906">
        <ele>147.3</ele>
        <time>2013-12-01T15:40:45Z</time>
      </trkpt>
      <trkpt lat="43.77745" lon="7.3389">
        <ele>146.8</ele>
        <time>2013-12-01T15:40:47Z</time>
      </trkpt>
      <trkpt lat="43.77744" lon="7.33875">
        <ele>146.6</ele>
        <time>2013-12-01T15:40:49Z</time>
      </trkpt>
      <trkpt lat="43.77743" lon="7.33859">
        <ele>146.5</ele>
        <time>2013-12-01T15:40:51Z</time>
      </trkpt>
      <trkpt lat="43.77744" lon="7.33846">
        <ele>145.4</ele>
        <time>2013-12-01T15:40:53Z</time>
      </trkpt>
      <trkpt lat="43.77748" lon="7.33829">
        <ele>145</ele>
        <time>2013-12-01T15:40:56Z</time>
      </trkpt>
      <trkpt lat="43.7775" lon="7.33816">
        <ele>144.6</ele>
        <time>2013-12-01T15:41:00Z</time>
      </trkpt>
      <trkpt lat="43.77748" lon="7.33804">
        <ele>143.6</ele>
        <time>2013-12-01T15:41:26Z</time>
      </trkpt>
      <trkpt lat="43.77733" lon="7.33791">
        <ele>144.7</ele>
        <time>2013-12-01T15:41:33Z</time>
      </trkpt>
      <trkpt lat="43.77723" lon="7.33788">
        <ele>145</ele>
        <time>2013-12-01T15:41:36Z</time>
      </trkpt>
      <trkpt lat="43.77714" lon="7.33784">
        <ele>144.7</ele>
        <time>2013-12-01T15:41:39Z</time>
      </trkpt>
      <trkpt lat="43.77704" lon="7.33781">
        <ele>143.9</ele>
        <time>2013-12-01T15:41:42Z</time>
      </trkpt>
      <trkpt lat="43.77694" lon="7.33777">
        <ele>144</ele>
        <time>2013-12-01T15:41:45Z</time>
      </trkpt>
      <trkpt lat="43.77683" lon="7.33773">
        <ele>143.6</ele>
        <time>2013-12-01T15:41:48Z</time>
      </trkpt>
      <trkpt lat="43.77671" lon="7.33769">
        <ele>143.5</ele>
        <time>2013-12-01T15:41:51Z</time>
      </trkpt>
      <trkpt lat="43.77658" lon="7.33764">
        <ele>143.6</ele>
        <time>2013-12-01T15:41:54Z</time>
      </trkpt>
      <trkpt lat="43.77646" lon="7.33761">
        <ele>142.8</ele>
        <time>2013-12-01T15:41:57Z</time>
      </trkpt>
      <trkpt lat="43.77634" lon="7.33757">
        <ele>142.9</ele>
        <time>2013-12-01T15:42:00Z</time>
      </trkpt>
      <trkpt lat="43.77623" lon="7.33753">
        <ele>143.3</ele>
        <time>2013-12-01T15:42:03Z</time>
      </trkpt>
      <trkpt lat="43.7761" lon="7.33749">
        <ele>143.5</ele>
        <time>2013-12-01T15:42:06Z</time>
      </trkpt>
      <trkpt lat="43.77602" lon="7.33746">
        <ele>143.4</ele>
        <time>2013-12-01T15:42:08Z</time>
      </trkpt>
      <trkpt lat="43.77589" lon="7.3374">
        <ele>143.7</ele>
        <time>2013-12-01T15:42:11Z</time>
      </trkpt>
      <trkpt lat="43.77581" lon="7.33735">
        <ele>143.4</ele>
        <time>2013-12-01T15:42:13Z</time>
      </trkpt>
      <trkpt lat="43.77569" lon="7.33727">
        <ele>142.3</ele>
        <time>2013-12-01T15:42:16Z</time>
      </trkpt>
      <trkpt lat="43.77558" lon="7.33719">
        <ele>141.9</ele>
        <time>2013-12-01T15:42:19Z</time>
      </trkpt>
      <trkpt lat="43.77547" lon="7.3371">
        <ele>142.4</ele>
        <time>2013-12-01T15:42:22Z</time>
      </trkpt>
      <trkpt lat="43.77538" lon="7.33699">
        <ele>142.4</ele>
        <time>2013-12-01T15:42:25Z</time>
      </trkpt>
      <trkpt lat="43.77527" lon="7.33689">
        <ele>142.1</ele>
        <time>2013-12-01T15:42:28Z</time>
      </trkpt>
      <trkpt lat="43.77508" lon="7.33668">
        <ele>142</ele>
        <time>2013-12-01T15:42:34Z</time>
      </trkpt>
      <trkpt lat="43.77497" lon="7.33657">
        <ele>142.2</ele>
        <time>2013-12-01T15:42:37Z</time>
      </trkpt>
      <trkpt lat="43.7749" lon="7.33649">
        <ele>142.2</ele>
        <time>2013-12-01T15:42:39Z</time>
      </trkpt>
      <trkpt lat="43.77483" lon="7.33641">
        <ele>142.2</ele>
        <time>2013-12-01T15:42:41Z</time>
      </trkpt>
      <trkpt lat="43.77475" lon="7.33633">
        <ele>142.2</ele>
        <time>2013-12-01T15:42:43Z</time>
      </trkpt>
      <trkpt lat="43.77466" lon="7.33624">
        <ele>141.9</ele>
        <time>2013-12-01T15:42:45Z</time>
      </trkpt>
      <trkpt lat="43.77458" lon="7.33615">
        <ele>141.8</ele>
        <time>2013-12-01T15:42:47Z</time>
      </trkpt>
      <trkpt lat="43.77448" lon="7.33605">
        <ele>141.8</ele>
        <time>2013-12-01T15:42:49Z</time>
      </trkpt>
      <trkpt lat="43.77437" lon="7.33594">
        <ele>141.4</ele>
        <time>2013-12-01T15:42:51Z</time>
      </trkpt>
      <trkpt lat="43.77426" lon="7.33583">
        <ele>141.2</ele>
        <time>2013-12-01T15:42:53Z</time>
      </trkpt>
      <trkpt lat="43.77414" lon="7.33571">
        <ele>140.5</ele>
        <time>2013-12-01T15:42:55Z</time>
      </trkpt>
      <trkpt lat="43.77401" lon="7.33558">
        <ele>140.3</ele>
        <time>2013-12-01T15:42:57Z</time>
      </trkpt>
      <trkpt lat="43.77388" lon="7.33544">
        <ele>140.3</ele>
        <time>2013-12-01T15:42:59Z</time>
      </trkpt>
      <trkpt lat="43.77374" lon="7.3353">
        <ele>140.1</ele>
        <time>2013-12-01T15:43:01Z</time>
      </trkpt>
      <trkpt lat="43.77361" lon="7.33514">
        <ele>140.2</ele>
        <time>2013-12-01T15:43:03Z</time>
      </trkpt>
      <trkpt lat="43.77349" lon="7.33496">
        <ele>140.4</ele>
        <time>2013-12-01T15:43:05Z</time>
      </trkpt>
      <trkpt lat="43.77343" lon="7.33486">
        <ele>140</ele>
        <time>2013-12-01T15:43:06Z</time>
      </trkpt>
      <trkpt lat="43.77337" lon="7.33477">
        <ele>139.8</ele>
        <time>2013-12-01T15:43:07Z</time>
      </trkpt>
      <trkpt lat="43.77331" lon="7.33467">
        <ele>139.6</ele>
        <time>2013-12-01T15:43:08Z</time>
      </trkpt>
      <trkpt lat="43.77326" lon="7.33456">
        <ele>139.5</ele>
        <time>2013-12-01T15:43:09Z</time>
      </trkpt>
      <trkpt lat="43.77321" lon="7.33445">
        <ele>139.5</ele>
        <time>2013-12-01T15:43:10Z</time>
      </trkpt>
      <trkpt lat="43.77316" lon="7.33435">
        <ele>139.6</ele>
        <time>2013-12-01T15:43:11Z</time>
      </trkpt>
      <trkpt lat="43.77311" lon="7.33424">
        <ele>139.6</ele>
        <time>2013-12-01T15:43:12Z</time>
      </trkpt>
      <trkpt lat="43.77306" lon="7.33413">
        <ele>139.1</ele>
        <time>2013-12-01T15:43:13Z</time>
      </trkpt>
      <trkpt lat="43.77301" lon="7.33402">
        <ele>138.8</ele>
        <time>2013-12-01T15:43:14Z</time>
      </trkpt>
      <trkpt lat="43.77296" lon="7.33391">
        <ele>138.5</ele>
        <time>2013-12-01T15:43:15Z</time>
      </trkpt>
      <trkpt lat="43.77291" lon="7.3338">
        <ele>139</ele>
        <time>2013-12-01T15:43:16Z</time>
      </trkpt>
      <trkpt lat="43.77286" lon="7.33369">
        <ele>139.4</ele>
        <time>2013-12-01T15:43:17Z</time>
      </trkpt>
      <trkpt lat="43.7728" lon="7.33359">
        <ele>139.7</ele>
        <time>2013-12-01T15:43:18Z</time>
      </trkpt>
      <trkpt lat="43.77274" lon="7.33349">
        <ele>139.6</ele>
        <time>2013-12-01T15:43:19Z</time>
      </trkpt>
      <trkpt lat="43.77267" lon="7.3334">
        <ele>139.6</ele>
        <time>2013-12-01T15:43:20Z</time>
      </trkpt>
      <trkpt lat="43.7726" lon="7.33333">
        <ele>139.6</ele>
        <time>2013-12-01T15:43:21Z</time>
      </trkpt>
      <trkpt lat="43.77252" lon="7.33328">
        <ele>139.3</ele>
        <time>2013-12-01T15:43:22Z</time>
      </trkpt>
      <trkpt lat="43.77234" lon="7.33319">
        <ele>139</ele>
        <time>2013-12-01T15:43:24Z</time>
      </trkpt>
      <trkpt lat="43.77226" lon="7.33315">
        <ele>138.9</ele>
        <time>2013-12-01T15:43:25Z</time>
      </trkpt>
      <trkpt lat="43.77217" lon="7.33311">
        <ele>138.6</ele>
        <time>2013-12-01T15:43:26Z</time>
      </trkpt>
      <trkpt lat="43.77208" lon="7.33307">
        <ele>138.4</ele>
        <time>2013-12-01T15:43:27Z</time>
      </trkpt>
      <trkpt lat="43.772" lon="7.33305">
        <ele>138.3</ele>
        <time>2013-12-01T15:43:28Z</time>
      </trkpt>
      <trkpt lat="43.77191" lon="7.33303">
        <ele>137.9</ele>
        <time>2013-12-01T15:43:29Z</time>
      </trkpt>
      <trkpt lat="43.77173" lon="7.33305">
        <ele>137.4</ele>
        <time>2013-12-01T15:43:31Z</time>
      </trkpt>
      <trkpt lat="43.77146" lon="7.33308">
        <ele>137.2</ele>
        <time>2013-12-01T15:43:34Z</time>
      </trkpt>
      <trkpt lat="43.77137" lon="7.33307">
        <ele>137</ele>
        <time>2013-12-01T15:43:35Z</time>
      </trkpt>
      <trkpt lat="43.77119" lon="7.33305">
        <ele>136.6</ele>
        <time>2013-12-01T15:43:37Z</time>
      </trkpt>
      <trkpt lat="43.77102" lon="7.33301">
        <ele>136.4</ele>
        <time>2013-12-01T15:43:39Z</time>
      </trkpt>
      <trkpt lat="43.77085" lon="7.33296">
        <ele>136.2</ele>
        <time>2013-12-01T15:43:41Z</time>
      </trkpt>
      <trkpt lat="43.77069" lon="7.33288">
        <ele>135.8</ele>
        <time>2013-12-01T15:43:43Z</time>
      </trkpt>
      <trkpt lat="43.77053" lon="7.3328">
        <ele>135.4</ele>
        <time>2013-12-01T15:43:45Z</time>
      </trkpt>
      <trkpt lat="43.77038" lon="7.33272">
        <ele>135.1</ele>
        <time>2013-12-01T15:43:47Z</time>
      </trkpt>
      <trkpt lat="43.77023" lon="7.33264">
        <ele>135.2</ele>
        <time>2013-12-01T15:43:49Z</time>
      </trkpt>
      <trkpt lat="43.77008" lon="7.33255">
        <ele>135.2</ele>
        <time>2013-12-01T15:43:51Z</time>
      </trkpt>
      <trkpt lat="43.76993" lon="7.33248">
        <ele>135.3</ele>
        <time>2013-12-01T15:43:53Z</time>
      </trkpt>
      <trkpt lat="43.76978" lon="7.33241">
        <ele>134.8</ele>
        <time>2013-12-01T15:43:55Z</time>
      </trkpt>
      <trkpt lat="43.76963" lon="7.33235">
        <ele>134.6</ele>
        <time>2013-12-01T15:43:57Z</time>
      </trkpt>
      <trkpt lat="43.76949" lon="7.33229">
        <ele>134.5</ele>
        <time>2013-12-01T15:43:59Z</time>
      </trkpt>
      <trkpt lat="43.76934" lon="7.33223">
        <ele>134.2</ele>
        <time>2013-12-01T15:44:01Z</time>
      </trkpt>
      <trkpt lat="43.76919" lon="7.33216">
        <ele>134</ele>
        <time>2013-12-01T15:44:03Z</time>
      </trkpt>
      <trkpt lat="43.76906" lon="7.33205">
        <ele>133.6</ele>
        <time>2013-12-01T15:44:05Z</time>
      </trkpt>
      <trkpt lat="43.76894" lon="7.33193">
        <ele>133.4</ele>
        <time>2013-12-01T15:44:07Z</time>
      </trkpt>
      <trkpt lat="43.76882" lon="7.3318">
        <ele>133.2</ele>
        <time>2013-12-01T15:44:09Z</time>
      </trkpt>
      <trkpt lat="43.76871" lon="7.33166">
        <ele>133</ele>
        <time>2013-12-01T15:44:11Z</time>
      </trkpt>
      <trkpt lat="43.76859" lon="7.33154">
        <ele>132.9</ele>
        <time>2013-12-01T15:44:13Z</time>
      </trkpt>
      <trkpt lat="43.76848" lon="7.33141">
        <ele>132.8</ele>
        <time>2013-12-01T15:44:15Z</time>
      </trkpt>
      <trkpt lat="43.76834" lon="7.33134">
        <ele>132.6</ele>
        <time>2013-12-01T15:44:17Z</time>
      </trkpt>
      <trkpt lat="43.7682" lon="7.33132">
        <ele>132.3</ele>
        <time>2013-12-01T15:44:19Z</time>
      </trkpt>
      <trkpt lat="43.76808" lon="7.33127">
        <ele>133</ele>
        <time>2013-12-01T15:44:21Z</time>
      </trkpt>
      <trkpt lat="43.76796" lon="7.33119">
        <ele>133.2</ele>
        <time>2013-12-01T15:44:23Z</time>
      </trkpt>
      <trkpt lat="43.76786" lon="7.33112">
        <ele>133.2</ele>
        <time>2013-12-01T15:44:25Z</time>
      </trkpt>
      <trkpt lat="43.76776" lon="7.33104">
        <ele>133.7</ele>
        <time>2013-12-01T15:44:27Z</time>
      </trkpt>
      <trkpt lat="43.76767" lon="7.33096">
        <ele>133.8</ele>
        <time>2013-12-01T15:44:29Z</time>
      </trkpt>
      <trkpt lat="43.76757" lon="7.33089">
        <ele>133.7</ele>
        <time>2013-12-01T15:44:31Z</time>
      </trkpt>
      <trkpt lat="43.76748" lon="7.33082">
        <ele>134.1</ele>
        <time>2013-12-01T15:44:33Z</time>
      </trkpt>
      <trkpt lat="43.76729" lon="7.33067">
        <ele>135.9</ele>
        <time>2013-12-01T15:44:37Z</time>
      </trkpt>
      <trkpt lat="43.7672" lon="7.3306">
        <ele>136.4</ele>
        <time>2013-12-01T15:44:39Z</time>
      </trkpt>
      <trkpt lat="43.76711" lon="7.33053">
        <ele>136.7</ele>
        <time>2013-12-01T15:44:41Z</time>
      </trkpt>
      <trkpt lat="43.76702" lon="7.33046">
        <ele>136.9</ele>
        <time>2013-12-01T15:44:43Z</time>
      </trkpt>
      <trkpt lat="43.76693" lon="7.33039">
        <ele>137</ele>
        <time>2013-12-01T15:44:45Z</time>
      </trkpt>
      <trkpt lat="43.76683" lon="7.33031">
        <ele>137.1</ele>
        <time>2013-12-01T15:44:47Z</time>
      </trkpt>
      <trkpt lat="43.76672" lon="7.33023">
        <ele>137.3</ele>
        <time>2013-12-01T15:44:49Z</time>
      </trkpt>
      <trkpt lat="43.7666" lon="7.33014">
        <ele>137.7</ele>
        <time>2013-12-01T15:44:51Z</time>
      </trkpt>
      <trkpt lat="43.76647" lon="7.33004">
        <ele>136.2</ele>
        <time>2013-12-01T15:44:53Z</time>
      </trkpt>
      <trkpt lat="43.76634" lon="7.32993">
        <ele>135.7</ele>
        <time>2013-12-01T15:44:55Z</time>
      </trkpt>
      <trkpt lat="43.7662" lon="7.32982">
        <ele>135.7</ele>
        <time>2013-12-01T15:44:57Z</time>
      </trkpt>
      <trkpt lat="43.76605" lon="7.3297">
        <ele>135.5</ele>
        <time>2013-12-01T15:44:59Z</time>
      </trkpt>
      <trkpt lat="43.7659" lon="7.32958">
        <ele>134.6</ele>
        <time>2013-12-01T15:45:01Z</time>
      </trkpt>
      <trkpt lat="43.76574" lon="7.32946">
        <ele>133.5</ele>
        <time>2013-12-01T15:45:03Z</time>
      </trkpt>
      <trkpt lat="43.76566" lon="7.3294">
        <ele>133.2</ele>
        <time>2013-12-01T15:45:04Z</time>
      </trkpt>
      <trkpt lat="43.76558" lon="7.32933">
        <ele>132.5</ele>
        <time>2013-12-01T15:45:05Z</time>
      </trkpt>
      <trkpt lat="43.7655" lon="7.32926">
        <ele>131.9</ele>
        <time>2013-12-01T15:45:06Z</time>
      </trkpt>
      <trkpt lat="43.76542" lon="7.32919">
        <ele>131.5</ele>
        <time>2013-12-01T15:45:07Z</time>
      </trkpt>
      <trkpt lat="43.76535" lon="7.32911">
        <ele>131.2</ele>
        <time>2013-12-01T15:45:08Z</time>
      </trkpt>
      <trkpt lat="43.76529" lon="7.32902">
        <ele>131</ele>
        <time>2013-12-01T15:45:09Z</time>
      </trkpt>
      <trkpt lat="43.76517" lon="7.32884">
        <ele>130.3</ele>
        <time>2013-12-01T15:45:11Z</time>
      </trkpt>
      <trkpt lat="43.76505" lon="7.32867">
        <ele>129.7</ele>
        <time>2013-12-01T15:45:13Z</time>
      </trkpt>
      <trkpt lat="43.76494" lon="7.3285">
        <ele>129.4</ele>
        <time>2013-12-01T15:45:15Z</time>
      </trkpt>
      <trkpt lat="43.76485" lon="7.32831">
        <ele>128.9</ele>
        <time>2013-12-01T15:45:17Z</time>
      </trkpt>
      <trkpt lat="43.76478" lon="7.32812">
        <ele>128.5</ele>
        <time>2013-12-01T15:45:19Z</time>
      </trkpt>
      <trkpt lat="43.76473" lon="7.32792">
        <ele>128.9</ele>
        <time>2013-12-01T15:45:21Z</time>
      </trkpt>
      <trkpt lat="43.76469" lon="7.32772">
        <ele>129.1</ele>
        <time>2013-12-01T15:45:23Z</time>
      </trkpt>
      <trkpt lat="43.76465" lon="7.32752">
        <ele>128.1</ele>
        <time>2013-12-01T15:45:25Z</time>
      </trkpt>
      <trkpt lat="43.76462" lon="7.32731">
        <ele>127.7</ele>
        <time>2013-12-01T15:45:27Z</time>
      </trkpt>
      <trkpt lat="43.76458" lon="7.3271">
        <ele>127.7</ele>
        <time>2013-12-01T15:45:29Z</time>
      </trkpt>
      <trkpt lat="43.76454" lon="7.3269">
        <ele>127.7</ele>
        <time>2013-12-01T15:45:31Z</time>
      </trkpt>
      <trkpt lat="43.7645" lon="7.32669">
        <ele>126.9</ele>
        <time>2013-12-01T15:45:33Z</time>
      </trkpt>
      <trkpt lat="43.76447" lon="7.32649">
        <ele>126</ele>
        <time>2013-12-01T15:45:35Z</time>
      </trkpt>
      <trkpt lat="43.76444" lon="7.32609">
        <ele>125.8</ele>
        <time>2013-12-01T15:45:39Z</time>
      </trkpt>
      <trkpt lat="43.76445" lon="7.32589">
        <ele>125</ele>
        <time>2013-12-01T15:45:41Z</time>
      </trkpt>
      <trkpt lat="43.76446" lon="7.3257">
        <ele>125.1</ele>
        <time>2013-12-01T15:45:43Z</time>
      </trkpt>
      <trkpt lat="43.76448" lon="7.32553">
        <ele>125.5</ele>
        <time>2013-12-01T15:45:45Z</time>
      </trkpt>
      <trkpt lat="43.76452" lon="7.3254">
        <ele>124.6</ele>
        <time>2013-12-01T15:45:47Z</time>
      </trkpt>
      <trkpt lat="43.76465" lon="7.32538">
        <ele>123.8</ele>
        <time>2013-12-01T15:45:50Z</time>
      </trkpt>
      <trkpt lat="43.76472" lon="7.32546">
        <ele>123.8</ele>
        <time>2013-12-01T15:45:52Z</time>
      </trkpt>
      <trkpt lat="43.76482" lon="7.32556">
        <ele>123.9</ele>
        <time>2013-12-01T15:45:55Z</time>
      </trkpt>
      <trkpt lat="43.7649" lon="7.32567">
        <ele>122.6</ele>
        <time>2013-12-01T15:45:58Z</time>
      </trkpt>
      <trkpt lat="43.76496" lon="7.32576">
        <ele>122.6</ele>
        <time>2013-12-01T15:46:55Z</time>
      </trkpt>
      <trkpt lat="43.76504" lon="7.32571">
        <ele>121.9</ele>
        <time>2013-12-01T15:49:25Z</time>
      </trkpt>
    </trkseg>
  </trk>
</gpx>